     2.10           OBSERVATION DATA    G (GPS)             RINEX VERSION / TYPE
teqc 2000Feb29 simon 20011212 22:16:56UTC                   PGM / RUN BY / DATE
Linux 2.0.36|Pentium II|gcc|Linux|486/DX+                   COMMENT
BIT 2 OF LLI FLAGS DATA COLLECTED UNDER A/S CONDITION       COMMENT
GS40                                                        MARKER NAME
gs40                                                        MARKER NUMBER
C_W -Unknown-                                               OBSERVER / AGENCY
488 ASHTECH Z-XII3 4J30                                     REC # / TYPE / VERS
009 ASH701933_M                                             ANT # / TYPE
 -2403568.0000 -4566339.0000  3738414.0000                  APPROX POSITION XYZ
        1.2132        0.0000        0.0000                  ANTENNA: DELTA H/E/N
     1     1                                                WAVELENGTH FACT L1/2
     7    L1    L2    C1    P1    P2    S1    S2            # / TYPES OF OBSERV
    30.0000                                                 INTERVAL
SNR is mapped to RINEX snr flag value [1-9]                 COMMENT
L1: 1 -> 1; 90 -> 5; 210 -> 9                               COMMENT
L2: 1 -> 1; 150 -> 5; 250 -> 9                              COMMENT
Original height was 0.0000                                  COMMENT
New height found assuming measured height 1.2890            COMMENT
and assuming radial 0.1737 vertical -0.0640                 COMMENT
  2001    11    12    16     5    0.0000000     GPS         TIME OF FIRST OBS
                                                            END OF HEADER
 01 11 12 16  5  0.0000000  0  7G22G20G14G 1G29G25G11
    -79291.93549    -41658.96346  17745495.387    17745496.650    17745507.049
       228.000         184.000
    -51654.63849    -29908.89447  16302097.273    16302097.363    16302104.473
       239.000         204.000
     17830.37843                  20123015.728
       215.000          74.000
    -53103.54349    -29927.00347  17815556.099    17815557.384    17815566.848
       227.000         188.000
     16935.82149      9789.21847  17649141.621    17649142.000    17649150.739
       233.000         192.000
     16538.50759      9295.89957  16601933.082    16601933.841    16601940.669
       244.000         211.000
     36068.26359     22348.95857  17851912.586    17851913.272    17851920.920
       236.000         190.000
 01 11 12 16  5 30.0000000  0  7G22G20G14G 1G29G25G11
   -194804.60149   -131668.80446  17723514.782    17723514.516    17723525.727
       228.000         183.000
   -134471.69949    -94441.71547  16286338.356    16286338.076    16286344.977
       240.000         204.000
     56295.75545                  20132410.804                    20132424.271
       212.000         150.000
   -136181.54549    -94663.16247  17799748.132    17799748.608    17799757.049
       231.000         189.000
     44034.43249     30904.82747  17654298.538    17654298.803    17654307.583
       233.000         190.000
     42434.23359     29474.25647  16606861.422    16606861.586    16606868.608
       243.000         211.000
     79424.92449     56133.21547  17860164.184    17860164.082    17860171.480
       236.000         190.000
 01 11 12 16  6  0.0010000  0  7G22G20G14G 1G29G25G11
   -310137.08349   -221538.23746  22798039.667    22798039.240    22798050.539
       227.000         183.000
   -217041.88949   -158782.16747  21367097.770    21367097.304    21367104.226
       239.000         204.000
    132774.71449     94616.46145  25238241.436    25238241.908    25238256.364
       211.000         151.000
   -219262.85249   -159401.87547  22880410.411    22880410.475    22880418.887
       236.000         188.000
     71048.89349     51954.87347  22755911.305    22755911.360    22755920.188
       234.000         191.000
     68485.06449     49773.48147  21708290.676    21708290.688    21708297.757
       244.000         211.000
    122904.82449     90013.49247  22964909.921    22964909.776    22964917.283
       235.000         190.000
 01 11 12 16  6 30.0010000  0  7G22G20G14G 1G29G25G11
   -425438.39649   -311383.38546  22776098.701    22776098.134    22776109.422
       230.000         184.000
   -299480.80049   -223020.31647  21351410.256    21351409.718    21351416.625
       240.000         204.000
    181791.41149    132810.86145  25247569.383    25247569.710    25247585.158
       214.000         154.000
   -302465.72649   -224235.34347  22864577.800    22864577.484    22864585.985
       240.000         189.000
     97978.78649     72939.02347  22761036.104    22761036.063    22761044.835
       233.000         190.000
     94687.53949     70190.87747  21713276.961    21713276.898    21713283.954
       244.000         211.000
    166522.01649    124000.75447  22973210.130    22973209.946    22973217.450
       237.000         189.000
 01 11 12 16  7  0.0010000  0  7G22G20G14G 1G29G25G11
   -540634.17149   -401146.29746  22754177.730    22754177.121    22754188.304
       230.000         185.000
   -381732.40449   -287112.52547  21335758.387    21335757.793    21335764.659
       239.000         205.000
    230629.14349    170865.81545  25256863.158    25256863.447    25256878.883
       214.000         152.000
   -385736.49849   -289121.71247  22848731.973    22848731.610    22848740.084
       231.000         190.000
    124818.86249     93853.19147  22766143.771    22766143.655    22766152.393
       233.000         191.000
    121035.12349     90721.35047  21718290.840    21718290.717    21718297.771
       244.000         211.000
    210259.99749    158082.12747  22981533.278    22981533.061    22981540.595
       235.000         189.000
 01 11 12 16  7 30.0010000  0  7G22G20G14G 1G29G25G11
   -655694.23549   -490803.47446  22732282.606    22732281.925    22732293.026
       229.000         184.000
   -463767.81749   -351036.26447  21320147.625    21320146.995    21320153.858
       239.000         204.000
    279314.72749    208802.20845  25266127.997    25266128.093    25266143.499
       213.000         149.000
   -469048.56749   -354040.22047  22832878.238    22832877.855    22832886.383
       238.000         190.000
    151595.95749    114718.27347  22771239.416    22771239.267    22771247.983
       234.000         191.000
    147552.73449    111384.31547  21723337.064    21723336.896    21723343.915
       244.000         211.000
    254142.91149    192276.45247  22989884.046    22989883.758    22989891.306
       235.000         189.000
 01 11 12 16  8  0.0010000  0  7G22G20G14G 1G29G25G11
   -770572.00949   -580318.60446  22710422.168    22710421.415    22710432.441
       230.000         183.000
   -545541.48649   -414756.04047  21304586.654    21304586.002    21304592.871
       240.000         204.000
    327891.40749    246653.76145  25275372.127    25275372.040    25275387.422
       211.000         153.000
   -552358.65749   -418957.23347  22817024.988    22817024.486    22817033.024
       234.000         191.000
    178353.39249    135568.04147  22776331.358    22776331.144    22776339.827
       233.000         191.000
    174281.21549    132211.60147  21728423.439    21728423.215    21728430.182
       244.000         211.000
    298211.00149    226615.04547  22998270.065    22998269.687    22998277.232
       237.000         189.000
 01 11 12 16  8 30.0010000  0  7G22G20G14G 1G29G25G11
   -885220.86949   -669655.33546  22688605.286    22688604.473    22688615.468
       226.000         178.000
   -627008.07149   -478236.57648  21289084.138    21289083.455    21289090.321
       242.000         213.000
    376402.45349    284454.12745  25284603.756    25284603.485    25284618.984
       202.000         149.000
   -635623.68849   -483839.12047  22801180.277    22801179.713    22801188.245
       233.000         188.000
    205134.30549    156436.10146  22781427.763    22781427.482    22781436.150
       226.000         182.000
    201262.11849    153235.60547  21733557.852    21733557.554    21733564.513
       239.000         199.000
    342504.49349    261129.29446  23006698.952    23006698.532    23006706.085
       233.000         187.000
 01 11 12 16  9  0.0010000  0  7G22G20G14G 1G29G25G11
   -999645.77249   -758817.59446  22666831.008    22666830.166    22666841.146
       233.000         185.000
   -708173.52449   -541482.37847  21273638.920    21273638.195    21273645.077
       242.000         205.000
    424839.52649    322196.89045  25293821.165    25293820.882    25293836.347
       207.000         146.000
   -718851.80149   -548692.24647  22785342.512    22785341.953    22785350.496
       235.000         192.000
    231930.39449    177315.98347  22786527.068    22786526.712    22786535.379
       232.000         191.000
    228485.15249    174448.23747  21738738.348    21738738.005    21738744.910
       244.000         210.000
    387012.55249    295810.72846  23015168.605    23015168.177    23015175.762
       231.000         181.000
 01 11 12 16  9 30.0010000  0  7G22G20G14G 1G29G25G11
  -1113830.92849   -847793.00245  22645102.420    22645101.481    22645112.334
       211.000         159.000
   -789023.56149   -604482.43547  21258253.729    21258252.978    21258259.877
       240.000         206.000
    473214.88659    359891.53555  25303026.990    25303026.578    25303042.067
       207.000         140.000
   -802030.95349   -613507.18147  22769514.219    22769513.529    22769522.051
       234.000         193.000
    258754.06849    198217.33547  22791631.611    22791631.192    22791639.867
       234.000         195.000
    255960.16749    195857.24847  21743966.733    21743966.385    21743973.281
       243.000         211.000
    431744.59349    330666.70246  23023680.956    23023680.485    23023688.089
       236.000         187.000
 01 11 12 16 10  0.0010000  0  7G22G20G14G 1G29G25G11
  -1227748.14949   -936559.56946  22623424.801    22623423.790    22623434.566
       217.000         163.000
   -869530.87549   -667215.40846  21242933.748    21242932.986    21242939.868
       229.000         180.000
    521553.74949    397557.66945  25312225.989    25312225.343    25312240.911
       201.000         144.000
   -885136.16749   -678264.52446  22753699.853    22753699.191    22753707.729
       224.000         168.000
    285630.27349    219159.61247  22796746.113    22796745.667    22796754.312
       238.000         200.000
    283710.44549    217480.67148  21749247.550    21749247.151    21749253.997
       251.000         217.000
    476722.69949    365714.34345  23032240.281    23032239.664    23032247.301
       217.000         151.000
 01 11 12 16 10 30.0010000  0  7G22G20G14G 1G29G25G11
  -1341403.67149  -1025122.32646  22601796.762    22601795.826    22601806.551
       229.000         185.000
   -949702.94149   -729687.21047  21227677.560    21227676.780    21227683.688
       242.000         205.000
    569846.30149    435187.87945  25321416.096    25321415.308    25321430.839
       209.000         153.000
   -968177.36049   -742972.01347  22737897.859    22737897.001    22737905.514
       239.000         194.000
    312549.24049    240135.28647  22801868.788    22801868.296    22801876.955
       234.000         194.000
    311724.86349    239310.04747  21754578.576    21754578.172    21754585.058
       243.000         210.000
    521934.12549    400943.91646  23040843.844    23040843.173    23040850.841
       226.000         177.000
 01 11 12 16 11  0.0010000  0  7G22G20G14G 1G29G25G11
  -1454780.15749  -1113467.58046  22580221.856    22580220.966    22580231.670
       231.000         179.000
  -1029523.41449   -791885.01347  21212488.278    21212487.485    21212494.398
       240.000         205.000
    618106.71449    472792.96645  25330599.991    25330599.149    25330614.693
       207.000         147.000
  -1051140.33449   -807618.49047  22722110.581    22722109.703    22722118.188
       233.000         192.000
    339525.19449    261155.31147  22807002.288    22807001.767    22807010.476
       232.000         191.000
    340014.89349    261354.13047  21759962.053    21759961.643    21759968.567
       243.000         210.000
    567390.27149    436364.09946  23049493.863    23049493.256    23049500.966
       234.000         186.000
 01 11 12 16 11 30.0010000  0  7G22G20G14G 1G29G25G11
  -1567853.84149  -1201576.92546  22558704.688    22558703.772    22558714.417
       229.000         180.000
  -1108969.88349   -853791.41947  21197370.137    21197369.349    21197376.272
       241.000         202.000
    666355.22849    510388.76545  25339781.743    25339780.849    25339796.477
       204.000         132.000
  -1134004.92249   -872188.33547  22706341.872    22706341.123    22706349.576
       239.000         198.000
    366578.33749    282235.50946  22812150.467    22812149.920    22812158.677
       225.000         178.000
    368598.59949    283627.05947  21765401.414    21765401.007    21765407.980
       235.000         196.000
    613108.63149    471988.62446  23058193.926    23058193.281    23058201.012
       230.000         179.000
 01 11 12 16 12  0.0010000  0  7G22G20G14G 1G29G25G11
  -1680615.95749  -1289443.39946  22537246.700    22537245.862    22537256.498
       230.000         183.000
  -1188034.75549   -915400.40347  21182324.647    21182323.838    21182330.780
       241.000         206.000
    714597.28649    547979.49045  25348962.233    25348961.234    25348977.019
       209.000         144.000
  -1216765.79149   -936677.34347  22690593.215    22690592.311    22690600.717
       234.000         191.000
    393714.16949    303380.09147  22817314.394    22817313.827    22817322.609
       232.000         191.000
    397479.93949    306131.87947  21770897.470    21770897.024    21770904.034
       244.000         210.000
    659091.95749    507819.61646  23066944.367    23066943.712    23066951.457
       233.000         183.000
 01 11 12 16 12 30.0010000  0  7G22G20G14G 1G29G25G11
  -1793059.81349  -1377061.93246  22515849.346    22515848.505    22515859.101
       232.000         185.000
  -1266712.59749   -976707.84047  21167352.765    21167351.971    21167358.957
       241.000         207.000
    762836.25649    585567.88045  25358142.125    25358141.096    25358156.785
       208.000         148.000
  -1299419.56449  -1001082.90447  22674864.611    22674863.813    22674872.215
       240.000         192.000
    420936.21949    324591.88847  22822494.737    22822494.141    22822502.958
       232.000         190.000
    426659.88549    328869.39047  21776450.274    21776449.838    21776456.909
       243.000         211.000
    705340.47749    543857.23546  23075745.143    23075744.560    23075752.374
       232.000         185.000
 01 11 12 16 13  0.0010000  0  7G22G20G14G 1G29G25G11
  -1905164.36849  -1464416.08146  22494516.550    22494515.731    22494526.207
       233.000         185.000
  -1344983.25249  -1037697.98747  21152458.386    21152457.595    21152464.613
       241.000         207.000
    811090.18649    623167.87845  25367324.853    25367323.751    25367339.638
       208.000         144.000
  -1381948.51749  -1065391.20747  22659159.878    22659159.109    22659167.475
       237.000         193.000
    448262.07649    345884.56747  22827694.836    22827694.220    22827703.076
       232.000         190.000
    456154.48849    351852.08347  21782062.968    21782062.546    21782069.664
       243.000         211.000
    751868.98049    580113.03646  23084599.357    23084598.724    23084606.542
       232.000         182.000
 01 11 12 16 13 30.0010000  0  7G22G20G14G 1G29G25G11
  -2016928.56849  -1551505.00746  22473248.463    22473247.677    22473258.121
       231.000         185.000
  -1422846.80049  -1098370.90847  21137641.462    21137640.685    21137647.724
       241.000         207.000
    859356.58949    660777.59545  25376509.993    25376508.801    25376524.811
       208.000         143.000
  -1464355.18549  -1129604.22847  22643478.428    22643477.675    22643486.021
       238.000         194.000
    475689.61249    367256.48247  22832914.245    22832913.638    22832922.547
       230.000         190.000
    485958.99649    375076.26047  21787734.679    21787734.219    21787741.371
       243.000         210.000
    798672.43349    616583.07346  23093505.845    23093505.219    23093513.038
       233.000         183.000
 01 11 12 16 14  0.0010000  0  7G22G20G14G 1G29G25G11
  -2128342.25049  -1638320.80746  22452047.130    22452046.312    22452056.743
       230.000         185.000
  -1500294.54249  -1158719.82247  21122903.690    21122902.908    21122909.970
       241.000         207.000
    907642.59549    698402.58745  25385698.862    25385697.625    25385713.704
       208.000         142.000
  -1546632.65949  -1193716.55047  22627821.556    22627820.823    22627829.160
       236.000         194.000
    503225.53949    388712.84647  22838154.267    22838153.674    22838162.630
       232.000         189.000
    516078.41849    398545.82047  21793466.298    21793465.830    21793473.010
       243.000         210.000
    845754.64549    653270.31346  23102465.433    23102464.795    23102472.608
       231.000         183.000
 01 11 12 16 14 30.0010000  0  7G22G20G14G 1G29G25G11
  -2239405.69949  -1724863.69946  22430912.432    22430911.639    22430922.044
       232.000         185.000
  -1577327.51149  -1218745.54747  21108244.830    21108244.041    21108251.132
       241.000         207.000
    955944.48449    736040.00445  25394890.749    25394889.528    25394905.608
       207.000         148.000
  -1628784.47649  -1257730.97247  22612188.609    22612187.868    22612196.231
       239.000         194.000
    530866.71049    410251.22447  22843414.381    22843413.732    22843422.740
       232.000         189.000
    546507.15949    422256.40547  21799256.767    21799256.292    21799263.500
       243.000         210.000
    893109.39749    690169.93946  23111476.858    23111476.210    23111484.036
       233.000         182.000
 01 11 12 16 15  0.0010000  0  7G22G20G14G 1G29G25G11
  -2350124.36049  -1811137.92646  22409843.338    22409842.531    22409852.910
       231.000         186.000
  -1653952.78749  -1278453.58547  21093663.547    21093662.759    21093669.880
       240.000         207.000
   1004253.44649    773682.86945  25404084.018    25404082.701    25404098.745
       212.000         144.000
  -1710819.67949  -1321654.57047  22596577.915    22596577.108    22596585.510
       239.000         194.000
    558604.11949    431864.58847  22848692.768    22848692.130    22848701.154
       231.000         188.000
    577234.31349    446199.52147  21805104.051    21805103.555    21805110.767
       244.000         210.000
    940725.05649    727272.84246  23120537.955    23120537.292    23120545.105
       232.000         182.000
 01 11 12 16 15 30.0010000  0  7G22G20G14G 1G29G25G11
  -2460489.26449  -1897136.50446  22388841.486    22388840.730    22388851.076
       230.000         185.000
  -1730162.29749  -1337837.64847  21079161.372    21079160.596    21079167.730
       241.000         208.000
   1052575.28349    811335.77745  25413279.653    25413278.343    25413294.579
       207.000         148.000
  -1792732.48749  -1385482.73047  22580990.301    22580989.624    22580998.110
       238.000         195.000
    586443.50449    453557.43047  22853990.612    22853989.931    22853998.985
       232.000         189.000
    608263.72049    470378.15347  21811008.853    21811008.337    21811015.544
       244.000         210.000
    988604.22949    764581.09846  23129649.235    23129648.524    23129656.339
       232.000         181.000
 01 11 12 16 16  0.0010000  0  7G22G20G14G 1G29G25G11
  -2570491.55949  -1982852.54746  22367908.737    22367907.950    22367918.253
       232.000         185.000
  -1805948.53049  -1396891.89147  21064739.773    21064738.980    21064746.129
       241.000         207.000
   1100915.63249    849003.22045  25422478.882    25422477.466    25422493.703
       205.000         147.000
  -1874517.33349  -1449211.24747  22565427.211    22565426.512    22565435.042
       238.000         195.000
    614390.47149    475334.08247  22859308.931    22859308.224    22859317.280
       231.000         188.000
    639598.60549    494794.82447  21816971.750    21816971.249    21816978.458
       244.000         210.000
   1036749.51949    802096.69746  23138811.092    23138810.387    23138818.240
       231.000         181.000
 01 11 12 16 16 30.0010000  0  7G22G20G14G 1G29G25G11
  -2680114.54449  -2068273.01746  22347048.135    22347047.344    22347057.619
       232.000         186.000
  -1881295.84649  -1455604.11047  21050401.685    21050400.897    21050408.057
       241.000         207.000
   1149287.93649    886695.40445  25431684.183    25431682.693    25431699.172
       210.000         146.000
  -1956160.97349  -1512829.70747  22549890.980    22549890.267    22549898.855
       239.000         195.000
    642458.47949    497205.05347  22864650.226    22864649.531    22864658.635
       231.000         188.000
    671250.63549    519458.61847  21822995.036    21822994.520    21823001.728
       244.000         210.000
   1085171.37149    839827.81646  23148025.616    23148024.883    23148032.731
       233.000         181.000
 01 11 12 16 17  0.0010000  0  7G22G20G14G 1G29G25G11
  -2789379.93049  -2153414.84646  22326255.608    22326254.822    22326265.034
       232.000         185.000
  -1956227.04349  -1513992.09247  21036142.781    21036141.988    21036149.167
       240.000         207.000
   1197667.21449    924393.10645  25440890.816    25440889.335    25440905.875
       209.000         148.000
  -2037688.33349  -1576357.56547  22534376.836    22534376.152    22534384.788
       239.000         196.000
    670622.66449    519150.97146  22870009.808    22870009.149    22870018.288
       231.000         187.000
    703192.44149    544348.21347  21829073.449    21829072.931    21829080.150
       243.000         209.000
   1133842.24749    877752.96546  23157287.513    23157286.777    23157294.636
       232.000         180.000
 01 11 12 16 17 30.0010000  0  7G22G20G14G 1G29G25G11
  -2898282.03049  -2238273.61146  22305532.170    22305531.406    22305541.589
       232.000         186.000
  -2030737.62149  -1572052.31347  21021963.941    21021963.130    21021970.307
       241.000         207.000
   1246056.00649    962098.21645  25450099.283    25450097.834    25450114.386
       209.000         146.000
  -2119097.11849  -1639793.03147  22518885.389    22518884.622    22518893.295
       241.000         196.000
    698885.55149    541173.80146  22875388.232    22875387.546    22875396.723
       230.000         187.000
    735424.47949    569463.96147  21835207.070    21835206.553    21835213.819
       243.000         209.000
   1182761.31749    915871.51246  23166596.742    23166595.956    23166603.777
       233.000         181.000
 01 11 12 16 18  0.0010000  0  7G22G20G14G 1G29G25G11
  -3006800.99049  -2322833.82946  22284881.670    22284880.889    22284891.025
       231.000         186.000
  -2104809.09049  -1629770.37147  21007868.621    21007867.836    21007875.023
       241.000         207.000
   1294470.96849    999823.67845  25459312.717    25459311.204    25459328.025
       209.000         150.000
  -2200370.80449  -1703123.20347  22503419.584    22503418.804    22503427.482
       235.000         197.000
    727263.71549    563286.45146  22880788.555    22880787.863    22880797.104
       231.000         187.000
    767961.49249    594817.35347  21841398.741    21841398.222    21841405.517
       243.000         209.000
   1231942.28549    954194.14246  23175955.830    23175954.965    23175962.744
       233.000         180.000
 01 11 12 16 18 30.0010000  0  7G22G20G14G 1G29G25G11
  -3114929.33349  -2407089.66746  22264305.455    22264304.700    22264314.860
       230.000         185.000
  -2178434.95449  -1687141.20947  20993858.112    20993857.342    20993864.507
       240.000         207.000
   1342916.25349   1037572.89945  25468531.843    25468530.309    25468547.129
       210.000         150.000
  -2281505.11049  -1766344.78047  22487980.240    22487979.504    22487988.163
       235.000         196.000
    755761.43649    585492.26846  22886211.637    22886210.955    22886220.245
       230.000         186.000
    800805.62849    620410.06147  21847648.872    21847648.341    21847655.668
       243.000         208.000
   1281386.45849    992721.86146  23185364.943    23185364.050    23185371.801
       233.000         179.000
 01 11 12 16 19  0.0010000  0  7G22G20G14G 1G29G25G11
  -3222683.42349  -2491053.89146  22243800.484    22243799.744    22243809.902
       231.000         187.000
  -2251632.94949  -1744178.63847  20979929.034    20979928.263    20979935.417
       238.000         207.000
   1391372.27449   1075330.31045  25477753.025    25477751.527    25477768.663
       210.000         145.000
  -2362519.74849  -1829473.08547  22472563.611    22472562.965    22472571.603
       239.000         196.000
    784359.17749    607776.01546  22891653.739    22891653.086    22891662.409
       231.000         186.000
    833935.44849    646225.38447  21853953.330    21853952.814    21853960.187
       242.000         208.000
   1331071.24149   1031437.07746  23194819.835    23194818.921    23194826.697
       231.000         179.000
 01 11 12 16 19 30.0010000  0  7G22G20G14G 1G29G25G11
  -3330065.77249  -2574728.44946  22223366.254    22223365.533    22223375.705
       231.000         187.000
  -2324406.54549  -1800885.37847  20966080.730    20966079.946    20966087.087
       239.000         207.000
   1439833.32049   1113091.83445  25486975.250    25486973.731    25486990.819
       210.000         151.000
  -2443420.48049  -1892512.68347  22457168.896    22457168.106    22457176.706
       238.000         196.000
    813051.29049    630133.30946  22897113.842    22897113.152    22897122.543
       231.000         186.000
    867342.80849    672256.96547  21860310.595    21860310.095    21860317.516
       242.000         208.000
   1380988.05049   1070333.07946  23204318.796    23204317.927    23204325.746
       232.000         179.000
 01 11 12 16 20  0.0010000  0  7G22G20G14G 1G29G25G11
  -3437051.91449  -2658094.27747  22203007.408    22203006.722    22203016.930
       232.000         188.000
  -2396732.49149  -1857243.30147  20952317.595    20952316.804    20952323.928
       239.000         207.000
   1488321.03349   1150873.99245  25496202.517    25496200.912    25496218.288
       217.000         155.000
  -2524186.06249  -1955446.91347  22441799.553    22441798.937    22441807.535
       236.000         196.000
    841859.00949    652580.67346  22902595.942    22902595.242    22902604.674
       230.000         186.000
    901047.02649    698519.86747  21866724.373    21866723.879    21866731.330
       242.000         207.000
   1431155.06349   1109424.04546  23213865.405    23213864.543    23213872.405
       232.000         180.000
 01 11 12 16 20 30.0010000  0  7G22G20G14G 1G29G25G11
  -3543638.50049  -2741148.76547  22182724.647    22182723.927    22182734.182
       232.000         188.000
  -2468608.46449  -1913250.59547  20938640.058    20938639.289    20938646.401
       238.000         207.000
   1536835.44149   1188677.03445  25505434.778    25505433.209    25505450.634
       209.000         147.000
  -2604816.36649  -2018275.75647  22426456.184    22426455.517    22426464.094
       239.000         195.000
    870782.60049    675118.33546  22908100.048    22908099.368    22908108.850
       229.000         185.000
    935046.20749    725012.60847  21873194.302    21873193.791    21873201.268
       242.000         206.000
   1481569.58449   1148707.86846  23223459.175    23223458.296    23223466.168
       232.000         179.000
 01 11 12 16 21  0.0010000  0  7G22G20G14G 1G29G25G11
  -3649852.17349  -2823912.66147  22162512.782    22162512.123    22162522.434
       231.000         189.000
  -2540062.50649  -1968929.11147  20925042.828    20925042.060    20925049.166
       238.000         207.000
   1585346.47949   1226477.49445  25514666.601    25514664.974    25514682.519
       208.000         151.000
  -2685341.23249  -2081022.40047  22411132.868    22411132.146    22411140.731
       239.000         196.000
    899792.32449    697723.10546  22913620.572    22913619.878    22913629.413
       229.000         185.000
    969308.07449    751710.04347  21879714.181    21879713.699    21879721.187
       242.000         206.000
   1532198.80849   1188159.00146  23233093.778    23233092.898    23233100.789
       233.000         180.000
 01 11 12 16 21 30.0010000  0  7G22G20G14G 1G29G25G11
  -3755689.50349  -2906383.30347  22142372.596    22142371.891    22142382.296
       231.000         190.000
  -2611092.44249  -2024277.15747  20911526.315    20911525.556    20911532.635
       239.000         207.000
   1633854.73849   1264275.71645  25523897.688    25523896.094    25523913.727
       213.000         149.000
  -2765760.42449  -2143686.74947  22395829.796    22395828.921    22395837.478
       236.000         196.000
    928888.35049    720395.13146  22919157.475    22919156.816    22919166.413
       229.000         184.000
   1003830.88649    778610.81147  21886283.757    21886283.264    21886290.742
       242.000         206.000
   1583039.90549   1227775.22446  23242768.608    23242767.800    23242775.740
       230.000         179.000
 01 11 12 16 22  0.0010000  0  7G22G20G14G 1G29G25G11
  -3861126.67249  -2988542.12947  22122308.573    22122307.842    22122318.318
       231.000         191.000
  -2681675.43349  -2079276.93847  20898094.863    20898094.092    20898101.161
       238.000         207.000
   1682380.63849   1302087.80245  25533132.188    25533130.610    25533148.356
       206.000         144.000
  -2846053.35949  -2206252.68247  22380550.300    22380549.689    22380558.270
       237.000         196.000
    958091.63049    743150.73646  22924714.829    22924714.156    22924723.808
       228.000         185.000
   1038633.37849    805729.51547  21892906.560    21892906.051    21892913.522
       242.000         206.000
   1634110.54749   1267570.31546  23252487.227    23252486.384    23252494.367
       232.000         179.000
 01 11 12 16 22 30.0010000  0  7G22G20G14G 1G29G25G11
  -3966149.01749  -3070377.71447  22102323.467    22102322.736    22102333.277
       232.000         192.000
  -2751798.22849  -2133918.12247  20884750.964    20884750.202    20884757.255
       238.000         206.000
   1730935.69949   1339922.52845  25542372.186    25542370.635    25542388.523
       208.000         146.000
  -2926208.67749  -2268711.39447  22365297.214    22365296.670    22365305.242
       239.000         196.000
    987413.38949    765998.65146  22930294.677    22930294.043    22930303.746
       228.000         184.000
   1073724.93449    833073.45847  21899584.369    21899583.856    21899591.287
       242.000         205.000
   1685419.38449   1307551.00946  23262251.113    23262250.282    23262258.321
       231.000         179.000
 01 11 12 16 23  0.0010000  0  7G22G20G14G 1G29G25G11
  -4070783.41049  -3151910.99647  22082412.185    22082411.463    22082422.053
       233.000         193.000
  -2821488.48849  -2188222.26547  20871489.386    20871488.608    20871495.656
       237.000         207.000
   1779490.33149   1377756.96945  25551612.098    25551610.579    25551628.557
       212.000         153.000
  -3006256.05549  -2331086.00447  22350064.650    22350064.192    22350072.741
       237.000         197.000
   1016824.25449    788916.00246  22935891.479    22935890.889    22935900.644
       228.000         184.000
   1109073.84349    860617.93647  21906311.133    21906310.616    21906318.036
       243.000         205.000
   1736933.31549   1347691.52346  23272054.131    23272053.253    23272061.325
       230.000         178.000
 01 11 12 16 23 30.0010000  0  7G22G20G14G 1G29G25G11
  -4175029.42349  -3233141.63447  22062574.874    22062574.100    22062584.760
       233.000         194.000
  -2890747.07449  -2242190.03447  20858309.922    20858309.166    20858316.214
       238.000         207.000
   1828041.51949   1415588.73445  25560851.324    25560849.856    25560867.916
       208.000         148.000
  -3086198.46249  -2393378.85147  22334852.268    22334851.690    22334860.239
       240.000         196.000
   1046320.86549    811900.17346  22941504.610    22941504.035    22941513.859
       229.000         183.000
   1144675.25649    888359.16647  21913085.971    21913085.444    21913092.848
       243.000         206.000
   1788646.63349   1387987.38646  23281894.996    23281894.136    23281902.290
       230.000         178.000
 01 11 12 16 24  0.0010000  0  7G22G20G14G 1G29G25G11
  -4278867.80149  -3314054.63147  22042815.085    22042814.323    22042825.019
       233.000         195.000
  -2959556.01749  -2295807.43547  20845216.056    20845215.294    20845222.345
       237.000         206.000
   1876605.49649   1453430.46845  25570092.967    25570091.510    25570109.822
       204.000         135.000
  -3166020.04349  -2455577.47647  22319662.661    22319662.171    22319670.731
       241.000         196.000
   1075919.70649    834963.99846  22947137.239    22947136.640    22947146.538
       228.000         184.000
   1180542.61949    916307.63047  21919911.419    21919910.875    21919918.288
       243.000         206.000
   1840572.27449   1428448.69246  23291776.293    23291775.434    23291783.658
       231.000         179.000
 01 11 12 16 24 30.0010000  0  7G22G20G14G 1G29G25G11
  -4382310.70349  -3394659.46047  22023130.588    22023129.790    22023140.519
       233.000         195.000
  -3027928.64249  -2349084.84447  20832205.182    20832204.446    20832211.502
       237.000         207.000
   1925167.12349   1491270.41444  25579334.159    25579332.926    25579351.021
       195.000         123.000
  -3245735.65449  -2517693.56547  22304493.384    22304492.820    22304501.370
       240.000         197.000
   1105605.64249    858095.68646  22952786.452    22952785.838    22952795.778
       228.000         183.000
   1216659.29749    944450.35847  21926784.290    21926783.750    21926791.186
       243.000         206.000
   1892692.37849   1469061.54446  23301694.594    23301693.742    23301702.013
       230.000         179.000
 01 11 12 16 25  0.0000000  0  7G22G20G14G 1G29G25G11
  -4485337.85649  -3474940.33147  22003525.165    22003524.384    22003535.135
       234.000         196.000
  -3095847.06749  -2402008.32447  20819280.728    20819280.011    20819287.095
       237.000         207.000
                   1529117.82444  25588577.150                    25588594.383
       184.000         109.000
  -3325329.23049  -2579714.56447  22289347.268    22289346.688    22289355.248
       239.000         196.000
   1135391.44149    881305.18646  22958454.649    22958454.036    22958464.032
       228.000         184.000
   1253035.35349    972795.20047  21933706.503    21933705.982    21933713.451
       243.000         206.000
   1945015.81549   1509832.82946  23311651.562    23311650.709    23311659.065
       230.000         179.000
 01 11 12 16 25 30.0000000  0  7G22G20G14G 1G29G25G11
  -4587962.60149  -3554907.63647  21983996.298    21983995.543    21984006.295
       234.000         195.000
  -3163323.19749  -2454587.15547  20806440.438    20806439.745    20806446.850
       237.000         207.000
                   1566968.27554  25597820.904
       179.000         100.000
  -3404815.41449  -2641651.86547  22274221.567    22274220.972    22274229.548
       238.000         197.000
   1165269.64949    904586.69346  22964140.398    22964139.822    22964149.857
       228.000         183.000
   1289661.52749   1001334.94347  21940676.353    21940675.820    21940683.319
       243.000         207.000
   1997533.45249   1550755.43946  23321645.499    23321644.624    23321653.083
       228.000         178.000
 01 11 12 16 26  0.0000000  0  7G22G20G14G 1G29G25G11
  -4690172.08049  -3634551.35047  21964546.450    21964545.691    21964556.466
       234.000         195.000
  -3230346.85049  -2506813.41547  20793686.297    20793685.599    20793692.701
       237.000         207.000
                   1604824.71054  25607066.279
       161.000          95.000
  -3484185.33549  -2703498.58347  22259117.914    22259117.378    22259125.969
       240.000         197.000
   1195245.68849    927944.43746  22969844.798    22969844.219    22969854.326
       228.000         183.000
   1326541.08549   1030072.11547  21947694.370    21947693.872    21947701.412
       243.000         207.000
   2050246.72849   1591830.49346  23331676.638    23331675.778    23331684.339
       228.000         177.000
 01 11 12 16 26 30.0000000  0  6G22G20G 1G29G25G11
  -4791962.24049  -3713868.32047  21945176.415    21945175.670    21945186.427
       234.000         196.000
  -3296914.98749  -2558684.71847  20781018.844    20781018.134    20781025.240
       237.000         207.000
  -3563437.91749  -2765253.88147  22244036.605    22244036.116    22244044.721
       237.000         197.000
   1225320.46149    951379.11346  22975568.047    22975567.423    22975577.586
       228.000         183.000
   1363672.66849   1059005.67047  21954760.364    21954759.873    21954767.466
       243.000         207.000
   2103153.76049   1633056.50046  23341744.655    23341743.809    23341752.457
       230.000         178.000
 01 11 12 16 27  0.0000000  0  6G22G20G 1G29G25G11
  -4893331.65849  -3792857.43947  21925886.442    21925885.690    21925896.456
       235.000         196.000
  -3363027.18249  -2610200.74647  20768438.126    20768437.424    20768444.537
       237.000         207.000
  -3642574.79249  -2826919.02847  22228977.316    22228976.886    22228985.483
       239.000         197.000
   1255492.53649    974889.60446  22981309.749    22981309.111    22981319.357
       227.000         182.000
   1401052.66449   1088132.78947  21961873.649    21961873.152    21961880.785
       243.000         207.000
   2156249.90849   1674429.90346  23351848.669    23351847.852    23351856.583
       230.000         177.000
 01 11 12 16 27 30.0000000  0  6G22G20G 1G29G25G11
  -4994280.89249  -3871519.14347  21906676.373    21906675.678    21906686.434
       234.000         196.000
  -3428685.42049  -2661363.03447  20755943.784    20755943.099    20755950.234
       237.000         207.000
  -3721599.58349  -2888496.78447  22213939.347    22213938.982    22213947.578
       240.000         197.000
   1285758.37749    998473.15446  22987069.251    22987068.634    22987078.962
       227.000         182.000
   1438675.43249   1117449.07847  21969033.122    21969032.632    21969040.316
       242.000         207.000
   2209528.55449   1715945.48146  23361987.349    23361986.564    23361995.417
       228.000         177.000
 01 11 12 16 28  0.0000000  0  6G22G20G 1G29G25G11
  -5094807.40049  -3949851.45447  21887546.775    21887546.098    21887556.828
       234.000         195.000
  -3493888.27249  -2712170.48647  20743536.094    20743535.423    20743542.590
       236.000         207.000
  -3800512.88849  -2949987.70047  22198922.821    22198922.283    22198930.881
       237.000         197.000
   1316117.60149   1022129.47146  22992846.533    22992845.940    22992856.342
       227.000         181.000
   1476538.74249   1146952.80447  21976238.354    21976237.881    21976245.616
       243.000         207.000
   2262986.22649   1757600.56646  23372160.138    23372159.379    23372168.340
       230.000         176.000
 01 11 12 16 28 30.0000000  0  6G22G20G 1G29G25G11
  -5194903.17749  -4027848.13147  21868499.147    21868498.485    21868509.174
       234.000         194.000
  -3558628.64249  -2762617.55947  20731216.415    20731215.761    20731222.950
       236.000         207.000
  -3879309.48149  -3011387.67847  22183928.410    22183927.809    22183936.382
       240.000         197.000
   1346575.39249   1045862.59546  22998642.641    22998642.018    22998652.461
       226.000         181.000
   1514645.57349   1176646.28147  21983489.922    21983489.462    21983497.251
       242.000         207.000
   2316624.96949   1799396.76046  23382367.462    23382366.675    23382375.730
       229.000         175.000
 01 11 12 16 29  0.0000000  0  6G22G20G 1G29G25G11
  -5294559.45149  -4105502.34547  21849535.130    21849534.494    21849545.132
       234.000         194.000
  -3622899.36249  -2812698.67347  20718986.119    20718985.459    20718992.679
       236.000         207.000
  -3957983.87149  -3072692.41547  22168957.113    22168956.588    22168965.170
       240.000         198.000
   1377137.40849   1069676.92746  23004458.516    23004457.920    23004468.425
       226.000         180.000
   1552998.92849   1206531.86047  21990788.400    21990787.957    21990795.790
       242.000         206.000
   2370447.24049   1841335.94246  23392609.597    23392608.846    23392618.003
       227.000         175.000
 01 11 12 16 29 30.0000000  0  6G22G20G 1G29G25G11
  -5393774.54049  -4182812.77847  21830655.071    21830654.445    21830665.059
       235.000         195.000
  -3686699.76949  -2862413.30747  20706845.332    20706844.657    20706851.909
       235.000         207.000
  -4036537.40249  -3133902.98447  22154008.871    22154008.368    22154016.967
       239.000         198.000
   1407802.46849   1093571.55746  23010294.006    23010293.434    23010304.000
       225.000         180.000
   1591595.80249   1236607.19847  21998133.226    21998132.793    21998140.669
       242.000         206.000
   2424448.97649   1883414.98146  23402885.858    23402885.171    23402894.454
       228.000         175.000
 01 11 12 16 30  0.0000000  0  6G22G20G 1G29G25G11
  -5492551.98349  -4259782.19347  21811858.318    21811857.689    21811868.262
       234.000         194.000
  -3750034.54549  -2911765.11047  20694793.121    20694792.469    20694799.734
       236.000         207.000
  -4114976.49249  -3195024.36847  22139082.437    22139081.929    22139090.537
       237.000         198.000
   1438564.07449   1117541.40146  23016147.903    23016147.319    23016157.944
       225.000         179.000
   1630427.61549   1266865.60447  22005522.797    22005522.344    22005530.258
       242.000         206.000
   2478620.54349   1925626.33246  23413194.492    23413193.811    23413203.259
       227.000         174.000
 01 11 12 16 30 30.0000000  0  6G22G20G 1G29G25G11
  -5590886.53049  -4336406.50647  21793145.878    21793145.212    21793155.744
       234.000         194.000
  -3812899.50749  -2960750.82547  20682830.329    20682829.685    20682836.982
       235.000         206.000
  -4193298.81549  -3256054.78647  22124178.242    22124177.708    22124186.324
       239.000         198.000
   1469424.65649   1141588.37446  23022020.629    23022020.053    23022030.706
       225.000         180.000
   1669494.26149   1297307.00047  22012957.071    22012956.584    22012964.547
       242.000         206.000
   2532961.20949   1967969.46546  23423535.408    23423534.668    23423544.209
       227.000         173.000
 01 11 12 16 31  0.0000000  0  6G22G20G 1G29G25G11
  -5688786.86549  -4412692.46547  21774516.036    21774515.377    21774525.858
       234.000         193.000
  -3875304.54049  -3009378.14947  20670955.108    20670954.422    20670961.734
       235.000         207.000
  -4271515.83049  -3317003.13647  22109294.030    22109293.513    22109302.171
       242.000         198.000
   1500372.74549   1165703.53646  23027910.079    23027909.470    23027920.147
       227.000         179.000
   1708782.39149   1327920.98247  22020433.487    22020432.972    22020440.976
       242.000         206.000
   2587456.41549   2010433.01846  23433905.589    23433904.871    23433914.581
       227.000         173.000
 01 11 12 16 31 30.0000000  0  6G22G20G 1G29G25G11
  -5786252.66549  -4488639.83147  21755968.876    21755968.218    21755978.664
       234.000         193.000
  -3937250.40449  -3057647.68047  20659167.250    20659166.547    20659173.865
       235.000         207.000
  -4349630.08549  -3377871.40147  22094429.382    22094428.879    22094437.572
       240.000         198.000
   1531405.72549   1189884.85346  23033815.705    23033815.024    23033825.753
       227.000         180.000
   1748287.50849   1358704.05347  22027951.174    22027950.659    22027958.697
       242.000         205.000
   2642100.52849   2053012.59446  23444304.227    23444303.445    23444313.292
       227.000         172.000
 01 11 12 16 32  0.0000000  0  6G22G20G 1G29G25G11
  -5883283.65949  -4564248.40247  21737504.498    21737503.819    21737514.221
       235.000         194.000
  -3998738.09949  -3105560.20147  20647466.544    20647465.855    20647473.187
       235.000         206.000
  -4427644.22249  -3438661.67447  22079583.813    22079583.285    22079592.013
       239.000         198.000
   1562521.11449   1214130.36946  23039736.981    23039736.262    23039747.030
       226.000         179.000
   1788004.74249   1389652.41447  22035509.242    22035508.713    22035516.796
       242.000         205.000
   2696887.71649   2095703.64946  23454729.943    23454729.249    23454739.184
       225.000         170.000
 01 11 12 16 32 30.0000000  0  6G22G20G 1G29G25G11
  -5979902.76849  -4639536.02047  21719118.509    21719117.814    21719128.147
       235.000         195.000
  -4059791.75649  -3153134.50547  20635848.449    20635847.754    20635855.083
       235.000         206.000
  -4505584.16849  -3499394.11247  22064752.282    22064751.801    22064760.568
       238.000         198.000
   1593693.01649   1238419.93646  23045668.968    23045668.269    23045679.058
       225.000         180.000
   1827906.23149   1420744.35347  22043102.365    22043101.824    22043109.938
       242.000         205.000
   2751789.26949   2138483.84646  23465177.558    23465176.820    23465186.804
       228.000         171.000
 01 11 12 16 33  0.0000000  0  6G22G20G 1G29G25G11
  -6076056.37449  -4714460.91447  21700821.134    21700820.417    21700830.695
       236.000         195.000
  -4120358.75349  -3200329.59347  20624322.957    20624322.264    20624329.581
       235.000         205.000
  -4583399.11249  -3560029.16047  22049944.538    22049944.094    22049952.942
       237.000         198.000
   1624972.55649   1262793.36846  23051621.460    23051620.747    23051631.585
       227.000         180.000
   1868040.27649   1452017.51247  22050739.721    22050739.186    22050747.332
       241.000         205.000
   2806852.81149   2181390.23546  23475655.964    23475655.232    23475665.300
       226.000         172.000
 01 11 12 16 33 30.0000000  0  6G22G20G 1G29G25G11
  -6171746.51949  -4789024.67447  21682611.905    21682611.180    21682621.445
       235.000         195.000
  -4180442.39249  -3247148.04747  20612889.459    20612888.765    20612896.071
       235.000         206.000
  -4661093.92749  -3620570.61647  22035159.740    22035159.282    22035168.136
       239.000         198.000
   1656354.67049   1287246.74346  23057593.477    23057592.734    23057603.634
       226.000         179.000
   1908400.27449   1483466.73647  22058420.064    22058419.538    22058427.710
       242.000         205.000
   2862070.61249   2224416.81246  23486163.608    23486162.947    23486173.146
       226.000         170.000
 01 11 12 16 34  0.0000000  0  6G22G20G 1G29G25G11
  -6266961.61349  -4863218.26047  21664493.015    21664492.320    21664502.616
       236.000         196.000
  -4240032.29849  -3293581.77047  20601549.876    20601549.201    20601556.469
       234.000         206.000
  -4738659.48149  -3681011.34347  22020399.537    22020399.057    22020407.939
       240.000         198.000
   1687848.21749   1311786.92846  23063586.608    23063585.922    23063596.896
       226.000         179.000
   1948993.05149   1515097.34947  22066144.714    22066144.193    22066152.395
       242.000         205.000
   2917448.21149   2267567.96746  23496701.853    23496701.128    23496711.354
       225.000         171.000
 01 11 12 16 34 30.0000000  0  6G22G20G 1G29G25G11
  -6361714.41649  -4937051.63647  21646462.144    21646461.456    21646471.743
       236.000         196.000
  -4299142.30249  -3339641.55147  20590301.643    20590300.965    20590308.216
       235.000         206.000
  -4816111.61349  -3741363.67047  22005660.824    22005660.402    22005669.284
       240.000         198.000
   1719437.55049   1336401.74446  23069597.946    23069597.335    23069608.392
       226.000         181.000
   1989800.67649   1546895.37047  22073910.250    22073909.732    22073917.960
       242.000         205.000
   2972966.83249   2310828.96346  23507266.841    23507266.105    23507276.429
       225.000         170.000
 01 11 12 16 35  0.0000000  0  6G22G20G 1G29G25G11
  -6455983.94449  -5010508.43547  21628523.279    21628522.560    21628532.821
       237.000         195.000
  -4357752.64049  -3385311.97447  20579148.479    20579147.799    20579155.039
       234.000         206.000
  -4893432.29349  -3801613.60747  21990947.224    21990946.794    21990955.645
       239.000         198.000
   1751140.97649   1361105.47146  23075631.077    23075630.471    23075641.573
       227.000         179.000
   2030839.16549   1578873.29447  22081719.724    22081719.209    22081727.451
       242.000         205.000
   3028641.51749   2354211.56146  23517861.469    23517860.786    23517871.225
       227.000         171.000
 01 11 12 16 35 30.0000000  0  6G22G20G 1G29G25G11
  -6549767.24149  -5083586.34747  21610676.967    21610676.204    21610686.408
       236.000         196.000
  -4415861.47349  -3430591.61447  20568090.765    20568090.092    20568097.290
       235.000         206.000
  -4970621.16349  -3861760.81347  21976258.699    21976258.254    21976267.094
       237.000         197.000
   1782958.82649   1385898.35546  23081686.017    23081685.399    23081696.543
       226.000         178.000
   2072106.81749   1611029.78347  22089572.817    22089572.298    22089580.551
       242.000         205.000
   3084469.76149   2397713.85046  23528485.502    23528484.756    23528495.225
       226.000         169.000
 01 11 12 16 36  0.0000000  0  6G22G20G 1G29G25G11
  -6643066.62049  -5156287.18347  21592922.699    21592921.939    21592932.090
       238.000         196.000
  -4473472.48049  -3475483.33847  20557127.773    20557127.095    20557134.297
       234.000         205.000
  -5047683.28849  -3921809.26247  21961594.315    21961593.843    21961602.643
       237.000         197.000
   1814886.05149   1410776.47146  23087761.736    23087761.096    23087772.309
       225.000         179.000
   2113596.35649   1643359.17247  22097468.087    22097467.601    22097475.871
       242.000         205.000
   3140443.23149   2441329.29146  23539137.049    23539136.295    23539146.828
       225.000         170.000
 01 11 12 16 36 30.0000000  0  6G22G20G 1G29G25G11
  -6735893.11049  -5228619.53447  21575258.424    21575257.654    21575267.774
       238.000         196.000
  -4530597.60749  -3519996.45447  20546257.234    20546256.576    20546263.764
       234.000         205.000
  -5124632.27249  -3981769.55447  21946951.427    21946950.959    21946959.729
       238.000         197.000
   1846908.98849   1435729.16646  23093855.687    23093855.039    23093866.312
       226.000         178.000
   2155292.14349   1675849.26447  22105402.642    22105402.149    22105410.435
       241.000         205.000
   3196545.01749   2485044.69846  23549813.178    23549812.349    23549822.940
       227.000         172.000
 01 11 12 16 37  0.0000000  0  6G22G20G 1G29G25G11
  -6828227.74449  -5300568.62047  21557687.795    21557686.970    21557697.066
       237.000         197.000
  -4587218.99149  -3564117.03747  20535482.625    20535481.933    20535489.086
       233.000         205.000
  -5201451.87049  -4041628.99047  21932333.170    21932332.690    21932341.459
       238.000         197.000
   1879043.86049   1460769.07546  23099971.036    23099970.276    23099981.613
       225.000         178.000
   2197208.07149   1708510.89747  22113379.073    22113378.581    22113386.900
       242.000         204.000
   3252788.42049   2528870.47346  23560516.228    23560515.361    23560525.948
       224.000         169.000
 01 11 12 16 37 30.0000000  0  6G22G20G 1G29G25G11
  -6920066.70649  -5372131.46747  21540211.439    21540210.607    21540220.701
       238.000         197.000
  -4643334.07149  -3607843.09747  20524804.304    20524803.625    20524810.771
       234.000         205.000
  -5278140.98749  -4101386.79647  21917739.769    21917739.266    21917748.023
       239.000         197.000
   1911291.87849   1485897.14446  23106107.827    23106107.064    23106118.430
       225.000         178.000
   2239342.84349   1741343.04747  22121397.137    22121396.649    22121405.006
       241.000         204.000
   3309171.37949   2572804.97846  23571245.689    23571244.853    23571255.460
       225.000         170.000
 01 11 12 16 38  0.0000000  0  6G22G20G 1G29G25G11
  -7011408.66549  -5443307.03147  21522829.647    21522828.823    21522838.884
       237.000         197.000
  -4698942.83449  -3651174.62547  20514222.359    20514221.656    20514228.795
       233.000         206.000
  -5354700.90949  -4161043.91847  21903170.938    21903170.429    21903179.152
       239.000         197.000
   1943651.67549   1511112.31946  23112265.856    23112265.112    23112276.517
       225.000         178.000
   2281693.61349   1774343.50447  22129456.291    22129455.832    22129464.225
       241.000         204.000
   3365689.60749   2616844.88646  23582001.046    23582000.168    23582010.830
       224.000         171.000
 01 11 12 16 38 30.0000000  0  6G22G20G 1G29G25G11
  -7102252.44349  -5514094.40447  21505542.652    21505541.843    21505551.910
       237.000         197.000
  -4754044.93549  -3694111.34747  20503736.794    20503736.111    20503743.241
       233.000         205.000
  -5431133.02049  -4220601.43447  21888626.483    21888625.915    21888634.607
       240.000         197.000
   1976121.81049   1536413.48546  23118444.868    23118444.164    23118455.606
       224.000         177.000
   2324256.95649   1807509.59647  22137555.940    22137555.466    22137563.883
       241.000         204.000
   3422338.69449   2660986.73646  23592781.203    23592780.298    23592791.063
       224.000         168.000
 01 11 12 16 39  0.0000000  0  6G22G20G 1G29G25G11
  -7192582.14949  -5584481.20247  21488353.476    21488352.676    21488362.757
       237.000         198.000
  -4808625.84549  -3736641.94747  20493350.401    20493349.733    20493356.873
       233.000         205.000
  -5507424.37149  -4280049.23647  21874108.680    21874108.189    21874116.846
       239.000         198.000
   2008715.61349   1561810.99646  23124647.412    23124646.739    23124658.235
       225.000         177.000
   2367043.73449   1840849.79047  22145698.087    22145697.621    22145706.073
       240.000         204.000
   3479128.59149   2705238.36446  23603588.255    23603587.278    23603598.018
       224.000         170.000
 01 11 12 16 39 30.0000000  0  6G22G20G 1G29G25G11
  -7282403.14149  -5654471.60147  21471261.093    21471260.309    21471270.416
       238.000         198.000
  -4862692.06949  -3778771.49547  20483061.950    20483061.293    20483068.437
       233.000         205.000
  -5583582.55449  -4339393.29047  21859616.264    21859615.791    21859624.427
       240.000         198.000
   2041425.03649   1587298.60446  23130872.015    23130871.319    23130882.870
       225.000         177.000
   2410043.47649   1874355.92647  22153880.730    22153880.287    22153888.802
       240.000         203.000
   3536047.91149   2749590.80846  23614419.838    23614418.886    23614429.676
       220.000         170.000
 01 11 12 16 40  0.0000000  0  6G22G20G 1G29G25G11
  -7371717.85549  -5724067.49447  21454265.045    21454264.294    21454274.426
       238.000         199.000
  -4916246.96449  -3820502.60247  20472870.803    20472870.137    20472877.297
       233.000         205.000
  -5659612.51449  -4398637.44247  21845148.315    21845147.794    21845156.415
       240.000         198.000
   2074245.12849   1612872.44046  23137117.639    23137116.947    23137128.587
       226.000         176.000
   2453249.43249   1908022.74847  22162102.637    22162102.192    22162110.775
       240.000         203.000
   3593088.94249   2794038.07546  23625274.491    23625273.590    23625284.525
       223.000         169.000
 01 11 12 16 40 30.0000000  0  6G22G20G 1G29G25G11
  -7460534.81849  -5793275.52047  21437363.774    21437362.996    21437373.141
       238.000         199.000
  -4969300.51749  -3861843.05647  20462775.047    20462774.408    20462781.572
       233.000         205.000
  -5735525.69749  -4457790.58147  21830702.464    21830701.994    21830710.613
       236.000         198.000
   2107164.86749   1638523.95246  23143382.258    23143381.562    23143393.246
       224.000         177.000
   2496648.47149   1941840.01647  22170361.311    22170360.850    22170369.480
       239.000         203.000
   3650237.33449   2838569.01946  23636149.813    23636148.807    23636159.771
       227.000         168.000
 01 11 12 16 41  0.0000000  0  6G22G20G 1G29G25G11
  -7548843.38849  -5862087.40247  21420559.193    21420558.437    21420568.614
       238.000         199.000
  -5021842.93349  -3902785.22647  20452776.565    20452775.939    20452783.095
       233.000         205.000
  -5811313.65249  -4516846.14147  21816280.497    21816280.031    21816288.646
       240.000         198.000
   2140192.16649   1664259.26046  23149667.359    23149666.647    23149678.372
       224.000         176.000
   2540246.86149   1975812.61847  22178657.885    22178657.442    22178666.132
       240.000         202.000
   3707498.06549   2883187.49446  23647046.332    23647045.375    23647056.389
       222.000         168.000
 01 11 12 16 41 30.0000000  0  6G22G20G 1G29G25G11
  -7636640.86549  -5930501.02047  21403851.865    21403851.116    21403861.352
       238.000         199.000
  -5073872.85249  -3943328.04447  20442875.589    20442874.988    20442882.156
       233.000         205.000
  -5886976.25449  -4575804.03247  21801882.361    21801881.934    21801890.556
       238.000         198.000
   2173327.56449   1690078.80146  23155973.016    23155972.289    23155984.076
       224.000         175.000
   2584042.25049   2009938.73247  22186991.965    22186991.529    22187000.267
       240.000         202.000
   3764868.42749   2927891.37546  23657963.601    23657962.773    23657973.941
       225.000         171.000
 01 11 12 16 42  0.0000000  0  6G22G20G 1G29G25G11
  -7723925.07349  -5998514.68647  21387242.211    21387241.475    21387251.753
       237.000         199.000
  -5125389.24849  -3983470.72447  20433072.365    20433071.780    20433078.926
       233.000         205.000
  -5962513.90449  -4634664.54147  21787507.946    21787507.588    21787516.248
       241.000         199.000
   2206570.73149   1715982.32246  23162299.142    23162298.445    23162310.273
       223.000         176.000
   2628032.40549   2044216.60847  22195363.146    22195362.688    22195371.472
       240.000         202.000
   3822344.70349   2972677.80846  23668901.225    23668900.368    23668911.611
       224.000         171.000
 01 11 12 16 42 30.0000000  0  6G22G20G 1G29G25G11
  -7810686.07849  -6066120.65947  21370732.156    21370731.404    21370741.714
       237.000         199.000
  -5176383.17349  -4023206.28647  20423368.574    20423367.990    20423375.132
       233.000         205.000
  -6037918.97649  -4693421.77447  21773158.861    21773158.476    21773167.175
       238.000         199.000
   2239928.96649   1741975.53246  23168647.221    23168646.512    23168658.379
       224.000         175.000
   2672222.97149   2078650.65147  22203772.484    22203771.990    22203780.819
       240.000         202.000
   3879931.48849   3017550.33946  23679859.805    23679858.953    23679870.286
       224.000         168.000
 01 11 12 16 43  0.0000000  0  6G22G20G 1G29G25G11
  -7896928.80949  -6133322.78247  21354320.675    21354319.932    21354330.277
       237.000         199.000
  -5226860.66149  -4062539.42147  20413763.073    20413762.464    20413769.611
       232.000         204.000
  -6113198.87949  -4752081.47047  21758833.582    21758833.199    21758841.930
       240.000         200.000
   2273394.80749   1768052.55046  23175015.727    23175015.024    23175026.978
       223.000         175.000
   2716604.25549   2113233.30847  22212218.082    22212217.592    22212226.448
       240.000         202.000
   3937618.42149   3062500.90946  23690837.546    23690836.636    23690848.059
       225.000         171.000
 01 11 12 16 43 30.0000000  0  6G22G20G 1G29G25G11
  -7982658.29549  -6200124.97347  21338006.837    21338006.128    21338016.510
       237.000         199.000
  -5276828.10649  -4101475.12647  20404254.607    20404253.987    20404261.155
       232.000         205.000
  -6188361.28849  -4810649.60047  21744530.661    21744530.279    21744539.048
       241.000         200.000
   2306960.69149   1794207.53046  23181403.218    23181402.580    23181414.619
       223.000         174.000
   2761166.06549   2147956.63747  22220698.029    22220697.545    22220706.433
       239.000         201.000
   3995394.49249   3107520.91546  23701832.288    23701831.331    23701842.825
       226.000         170.000
 01 11 12 16 44  0.0000000  0  6G22G20G 1G29G25G11
  -8067864.03449  -6266519.05347  21321792.621    21321791.971    21321802.385
       236.000         199.000
  -5326275.88049  -4140005.89447  20394845.016    20394844.410    20394851.582
       232.000         205.000
  -6263397.81449  -4869119.64647  21730251.730    21730251.304    21730260.109
       238.000         201.000
   2340635.17949   1820447.15646  23187811.418    23187810.803    23187822.913
       223.000         175.000
   2805915.06149   2182825.81647  22229213.596    22229213.105    22229222.030
       239.000         201.000
   4053265.02249   3152614.54446  23712844.890    23712843.953    23712855.481
       223.000         167.000
 01 11 12 16 44 30.0000000  0  6G22G20G 1G29G25G11
  -8152546.05149  -6332505.03947  21305678.082    21305677.484    21305687.928
       236.000         199.000
  -5375205.36649  -4178132.79947  20385534.037    20385533.457    20385540.641
       232.000         205.000
  -6338310.72849  -4927493.38147  21715996.262    21715995.852    21716004.680
       239.000         201.000
   2374415.41749   1846769.17246  23194239.782    23194239.140    23194251.341
       224.000         175.000
   2850846.93749   2217837.50847  22237763.964    22237763.474    22237772.412
       239.000         201.000
   4111224.34249   3197777.35246  23723874.352    23723873.479    23723885.047
       224.000         169.000
 01 11 12 16 45  0.0000000  0  6G22G20G 1G29G25G11
  -8236713.57649  -6398090.12447  21289661.523    21289660.915    21289671.350
       237.000         199.000
  -5423626.80749  -4215863.83447  20376319.745    20376319.180    20376326.343
       232.000         204.000
  -6413111.61749  -4985779.81347  21701762.098    21701761.728    21701770.571
       240.000         201.000
   2408290.10049   1873164.78446  23200686.032    23200685.449    23200697.737
       220.000         174.000
   2895947.36049   2252980.53747  22246346.364    22246345.895    22246354.880
       239.000         200.000
   4169257.68149   3242997.82146  23734917.877    23734917.042    23734928.735
       222.000         169.000
 01 11 12 16 45 30.0000000  0  6G22G20G 1G29G25G11
  -8320345.67949  -6463257.99447  21273746.814    21273746.235    21273756.648
       238.000         199.000
  -5471520.47549  -4253183.61147  20367205.881    20367205.334    20367212.506
       231.000         204.000
  -6487782.02849  -5043964.55947  21687552.813    21687552.430    21687561.264
       240.000         201.000
   2442277.64149   1899648.34246  23207153.841    23207153.258    23207165.591
       223.000         174.000
   2941233.03749   2288267.91247  22254964.002    22254963.566    22254972.590
       238.000         200.000
   4227380.51249   3288288.02746  23745978.433    23745977.655    23745989.448
       223.000         169.000
 01 11 12 16 46  0.0000000  0  6G22G20G 1G29G25G11
  -8403365.55949  -6527948.80647  21257948.635    21257948.075    21257958.449
       238.000         198.000
  -5518810.58049  -4290033.08347  20358206.893    20358206.340    20358213.513
       232.000         204.000
  -6562247.26949  -5101989.44047  21673382.553    21673382.190    21673391.007
       241.000         201.000
   2476452.47749   1926277.85346  23213657.312    23213656.690    23213669.112
       222.000         175.000
   2986776.88649   2323756.47147  22263630.782    22263630.363    22263639.447
       239.000         199.000
   4285664.36649   3333703.72046  23757069.770    23757068.962    23757080.759
       225.000         168.000
 01 11 12 16 46 30.0000000  0  6G22G20G 1G29G25G11
  -8485773.62349  -6592162.86847  21242266.860    21242266.322    21242276.687
       237.000         199.000
  -5565498.74149  -4326413.50847  20349322.442    20349321.880    20349329.075
       231.000         204.000
  -6636509.97149  -5159856.48247  21659250.838    21659250.478    21659259.283
       240.000         201.000
   2510812.00949   1953051.27146  23220195.904    23220195.252    23220207.748
       222.000         175.000
   3032573.56349   2359442.03147  22272345.666    22272345.281    22272354.415
       238.000         199.000
   4344103.45149   3379240.35146  23768190.582    23768189.750    23768201.651
       223.000         170.000
 01 11 12 16 47  0.0000000  0  6G22G20G 1G29G25G11
  -8567696.71249  -6655999.03147  21226677.401    21226676.852    21226687.240
       238.000         200.000
  -5611712.72049  -4362424.45047  20340528.209    20340527.680    20340534.886
       231.000         204.000
  -6710699.28749  -5217666.35247  21645133.060    21645132.737    21645141.529
       241.000         200.000
   2545226.88749   1979867.81646  23226745.017    23226744.365    23226756.929
       221.000         174.000
   3078491.61749   2395222.16147  22281083.691    22281083.300    22281092.471
       238.000         199.000
   4402565.49049   3424794.89146  23779315.846    23779314.946    23779326.872
       225.000         168.000
 01 11 12 16 47 30.0000000  0  6G22G20G 1G29G25G11
  -8649106.65049  -6719435.32347  21211185.617    21211185.042    21211195.419
       238.000         200.000
  -5657425.73349  -4398045.02247  20331829.304    20331828.785    20331836.016
       231.000         203.000
  -6784789.35349  -5275398.89947  21631034.226    21631033.884    21631042.652
       242.000         201.000
   2579723.04549   2006747.69146  23233309.539    23233308.924    23233321.581
       222.000         174.000
   3124555.33349   2431115.80947  22289849.421    22289849.027    22289858.251
       237.000         198.000
   4461073.15549   3470384.99646  23790449.758    23790448.849    23790460.786
       224.000         166.000
 01 11 12 16 48  0.0000000  0  6G22G20G 1G29G25G11
  -8729973.75649  -6782448.63747  21195797.111    21195796.549    21195806.909
       239.000         201.000
  -5702609.16549  -4433252.94347  20323231.203    20323230.678    20323237.945
       231.000         204.000
  -6858752.78049  -5333032.73547  21616959.411    21616959.106    21616967.897
       240.000         201.000
   2614328.04749   2033712.35946  23239894.767    23239894.199    23239906.943
       223.000         173.000
   3170790.22649   2467142.82247  22298647.712    22298647.338    22298656.591
       238.000         199.000
   4519650.77149   3516029.55546  23801596.944    23801596.053    23801607.965
       222.000         165.000
 01 11 12 16 48 30.0000000  0  6G22G20G 1G29G25G11
  -8810291.18349  -6845033.61947  21180513.239    21180512.666    21180523.013
       239.000         201.000
  -5747257.16049  -4468043.63847  20314735.004    20314734.474    20314741.765
       231.000         204.000
  -6932584.58849  -5390564.02447  21602909.672    21602909.382    21602918.210
       241.000         201.000
   2649046.49049   2060765.43346  23246501.704    23246501.085    23246513.873
       225.000         171.000
   3217198.56649   2503305.00047  22307479.032    22307478.669    22307487.978
       238.000         199.000
   4578299.98749   3561729.92346  23812757.695    23812756.854    23812768.873
       224.000         166.000
 01 11 12 16 49  0.0000000  0  6G22G20G 1G29G25G11
  -8890080.91849  -6907207.40947  21165329.756    21165329.173    21165339.548
       239.000         202.000
  -5791392.72249  -4502435.04247  20306336.311    20306335.786    20306343.092
       232.000         204.000
  -7006308.81749  -5448011.49047  21588880.407    21588880.114    21588888.988
       239.000         201.000
   2683854.25449   2087888.11946  23253125.609    23253124.984    23253137.780
       223.000         172.000
   3263754.59649   2539582.25147  22316338.498    22316338.112    22316347.451
       237.000         199.000
   4636993.74649   3607465.00346  23823926.995    23823926.155    23823938.151
       221.000         163.000
 01 11 12 16 49 30.0000000  0  7G22G20G 1G29G25G11G13
  -8969331.49549  -6968961.07447  21150248.877    21150248.291    21150258.668
       239.000         202.000
  -5835005.54549  -4536419.12047  20298037.131    20298036.578    20298043.894
       231.000         203.000
  -7079916.44849  -5505368.11347  21574873.336    21574873.056    21574881.954
       241.000         201.000
   2718760.46549   2115087.48746  23259768.267    23259767.612    23259780.459
       222.000         173.000
   3310465.21149   2575979.96047  22325227.361    22325226.970    22325236.344
       238.000         198.000
   4695737.98749   3653239.44446  23835105.784    23835104.974    23835117.059
       222.000         163.000
   -184240.63955                  24125331.481
       223.000         140.000
 01 11 12 16 50  0.0000000  0  7G22G20G 1G29G25G11G13
  -9048053.12149  -7030302.56047  21135268.637    21135268.047    21135278.437
       239.000         202.000
  -5878107.04949  -4570004.76747  20289835.247    20289834.683    20289841.994
       229.000         204.000
  -7153419.37849  -5562643.13247  21560886.183    21560885.917    21560894.838
       241.000         201.000
   2753752.87649   2142354.01346  23266427.253    23266426.635    23266439.515
       220.000         171.000
   3357315.85049   2612486.77947  22334142.882    22334142.474    22334151.881
       238.000         198.000
   4754517.26049   3699041.15546  23846291.291    23846290.534    23846302.653
       221.000         167.000
   -364105.88749   -265689.35545  24105440.998    24105441.034    24105452.560
       227.000         158.000
 01 11 12 16 50 30.0000000  0  7G22G20G 1G29G25G11G13
  -9126230.49049  -7091219.95047  21120391.986    21120391.391    21120401.765
       239.000         202.000
  -5920683.01749  -4603180.90747  20281733.343    20281732.789    20281740.104
       230.000         204.000
  -7226804.35249  -5619826.25547  21546921.476    21546921.232    21546930.179
       240.000         202.000
   2788844.40449   2169697.79646  23273105.139    23273104.515    23273117.446
       221.000         170.000
   3404317.81949   2649111.52047  22343087.211    22343086.792    22343096.225
       237.000         198.000
   4813341.62649   3744878.00046  23857485.410    23857484.640    23857496.857
       221.000         163.000
   -468616.40159   -347126.14956  24085553.370    24085553.929    24085564.533
       229.000         164.000
 01 11 12 16 51  0.0000000  0  7G22G20G 1G29G25G11G13
  -9203864.17049  -7151713.68247  21105618.759    21105618.177    21105628.564
       239.000         202.000
  -5962734.95449  -4635948.70847  20273731.200    20273730.603    20273737.939
       231.000         203.000
  -7300073.99349  -5676919.49347  21532978.726    21532978.491    21532987.457
       239.000         202.000
   2824032.59249   2197116.88746  23279801.442    23279800.792    23279813.793
       221.000         170.000
   3451466.54949   2685850.62047  22352059.424    22352059.026    22352068.502
       237.000         197.000
   4872205.57549   3790745.69245  23868687.054    23868686.279    23868698.560
       220.000         161.000
   -573114.01249   -428552.87746  24065668.203    24065668.688    24065679.290
       231.000         167.000
 01 11 12 16 51 30.0000000  0  7G22G20G 1G29G25G11G13
  -9280950.90649  -7211781.22347  21090949.633    21090949.045    21090959.435
       240.000         203.000
  -6004260.99649  -4668306.72047  20265829.099    20265828.508    20265835.843
       231.000         203.000
  -7373226.97149  -5733921.83447  21519058.180    21519057.949    21519066.936
       239.000         202.000
   2859318.19449   2224611.87046  23286516.242    23286515.626    23286528.653
       225.000         170.000
   3498761.09449   2722703.34347  22361059.399    22361058.992    22361068.519
       237.000         197.000
   4931106.98249   3836642.57845  23879895.872    23879895.102    23879907.342
       222.000         162.000
   -677597.73549   -509968.79446  24045785.650    24045786.104    24045796.663
       225.000         163.000
 01 11 12 16 52  0.0000000  0  7G22G20G 1G29G25G11G13
  -9357500.94149  -7271430.55347  21076382.652    21076382.037    21076392.437
       239.000         203.000
  -6045272.21749  -4700263.57047  20258024.957    20258024.374    20258031.716
       231.000         203.000
  -7446275.41149  -5790842.71347  21505157.562    21505157.306    21505166.309
       240.000         202.000
   2894689.58649   2252173.68546  23293247.382    23293246.756    23293259.855
       222.000         170.000
   3546186.93549   2759658.38347  22370084.359    22370083.955    22370093.531
       237.000         197.000
   4990030.51049   3882556.69145  23891108.915    23891108.081    23891120.442
       220.000         160.000
   -782080.01949   -591383.55845  24025903.381    24025903.731    24025914.225
       218.000         152.000
 01 11 12 16 52 29.9990000  0  7G22G20G 1G29G25G11G13
  -9433498.74449  -7330649.57647  21061920.750    21061920.143    21061930.504
       240.000         203.000
  -6085755.44149  -4731808.99447  20250321.287    20250320.706    20250328.067
       230.000         203.000
  -7519206.09349  -5847671.82747  21491279.333    21491279.067    21491288.078
       241.000         202.000
   2930156.00749   2279809.56546  23299996.662    23299996.004    23300009.141
       223.000         170.000
   3593751.83249   2796721.77647  22379135.795    22379135.386    22379144.993
       236.000         196.000
   5048982.18549   3928492.72345  23902327.242    23902326.435    23902338.874
       221.000         159.000
   -886546.58949   -672786.06945  24006024.056    24006024.424    24006034.907
       214.000         147.000
 01 11 12 16 52 59.9990000  0  7G22G20G 1G29G25G11G13
  -9508956.78049  -7389448.00747  21047561.547    21047560.938    21047571.300
       240.000         204.000
  -6125721.80649  -4762951.67047  20242715.984    20242715.406    20242722.771
       230.000         204.000
  -7592033.07949  -5904420.14547  21477420.860    21477420.567    21477429.571
       240.000         202.000
   2965710.63549   2307514.17046  23306762.722    23306762.057    23306775.250
       223.000         171.000
   3641446.99849   2833886.67847  22388212.036    22388211.610    22388221.256
       237.000         197.000
   5107953.41449   3974443.99445  23913549.330    23913548.498    23913561.007
       220.000         157.000
   -991013.49449   -754188.87045  23986144.656    23986145.046    23986155.510
       220.000         155.000
 01 11 12 16 53 29.9990000  0  7G22G20G 1G29G25G11G13
  -9583866.53449  -7447819.21147  21033306.674    21033306.069    21033316.422
       240.000         204.000
  -6165165.03949  -4793686.70247  20235210.249    20235209.662    20235217.033
       230.000         203.000
  -7664749.87549  -5961082.60047  21463583.334    21463583.031    21463592.037
       241.000         202.000
   3001356.09449   2335289.54846  23313546.058    23313545.401    23313558.682
       223.000         171.000
   3689273.25249   2871153.72547  22397313.230    22397312.783    22397322.459
       236.000         196.000
   5166943.17249   4020409.73645  23924774.950    23924774.134    23924786.673
       216.000         154.000
  -1095473.85449   -835586.58045  23966266.532    23966266.901    23966277.345
       218.000         157.000
 01 11 12 16 53 59.9990000  0  7G22G20G 1G29G25G11G13
  -9658223.79049  -7505759.89747  21019156.922    21019156.345    21019166.673
       240.000         204.000
  -6204081.95049  -4824011.61147  20227804.657    20227804.064    20227811.448
       230.000         203.000
  -7737353.94349  -6017657.21847  21449767.256    21449766.957    21449775.967
       242.000         202.000
   3037094.75149   2363137.55846  23320347.145    23320346.459    23320359.793
       221.000         171.000
   3737230.50649   2908522.85247  22406439.341    22406438.881    22406448.586
       237.000         196.000
   5225950.48349   4066389.10745  23936003.862    23936003.076    23936015.711
       218.000         158.000
  -1199925.34449   -916977.33345  23946390.062    23946390.450    23946400.924
       220.000         159.000
 01 11 12 16 54 29.9990000  0  7G22G20G 1G29G25G11G13
  -9732026.24749  -7563268.27647  21005112.767    21005112.197    21005122.526
       240.000         204.000
  -6242471.35749  -4853925.47847  20220499.437    20220498.848    20220506.248
       230.000         203.000
  -7809844.90049  -6074143.69347  21435972.698    21435972.397    21435981.419
       240.000         202.000
   3072927.00649   2391058.49046  23327166.104    23327165.366    23327178.716
       221.000         170.000
   3785317.28849   2945992.90847  22415590.067    22415589.621    22415599.363
       236.000         195.000
   5284972.80049   4112380.18645  23947235.674    23947234.888    23947247.606
       219.000         156.000
  -1304367.34949   -998360.78046  23926515.383    23926515.810    23926526.299
       219.000         163.000
 01 11 12 16 54 59.9990000  0  7G22G20G 1G29G25G11G13
  -9805255.08149  -7620329.68447  20991177.789    20991177.210    20991187.501
       241.000         205.000
  -6280315.55649  -4883414.50647  20213297.980    20213297.378    20213304.792
       230.000         203.000
  -7882205.63449  -6130528.70647  21422202.918    21422202.622    21422211.656
       241.000         202.000
   3108869.55649   2419065.36546  23334006.031    23334005.214    23334018.637
       218.000         169.000
   3833548.50149   2983575.51147  22424768.297    22424767.854    22424777.624
       237.000         196.000
   5344024.07549   4158393.84145  23958473.074    23958472.204    23958484.964
       216.000         153.000
  -1408783.07949  -1079723.67445  23906645.726    23906646.172    23906656.675
       216.000         161.000
 01 11 12 16 55 29.9990000  0  7G22G20G 1G29G25G11G13
  -9877931.71449  -7676960.81247  20977347.901    20977347.302    20977357.570
       240.000         205.000
  -6317637.15049  -4912496.30647  20206195.961    20206195.361    20206202.770
       230.000         203.000
  -7954459.58149  -6186830.50847  21408453.484    21408453.166    21408462.202
       241.000         202.000
   3144898.83949   2447139.83246  23340862.372    23340861.590    23340875.122
       220.000         168.000
   3881898.49349   3021250.66547  22433969.146    22433968.675    22433978.486
       237.000         195.000
   5403077.70649   4204409.33045  23969710.852    23969709.957    23969722.807
       214.000         154.000
  -1513196.21949  -1161084.56545  23886776.611    23886777.042    23886787.556
       214.000         159.000
 01 11 12 16 55 59.9990000  0  7G22G20G 1G29G25G11G13
  -9950051.28049  -7733157.86647  20963623.999    20963623.396    20963633.639
       240.000         205.000
  -6354431.91749  -4941167.59347  20199194.172    20199193.572    20199201.002
       230.000         203.000
  -8026603.21849  -6243046.36647  21394725.029    21394724.704    21394733.734
       239.000         202.000
   3181018.24449   2475284.51446  23347735.866    23347735.112    23347748.702
       215.000         167.000
   3930368.36849   3059019.22647  22443192.791    22443192.321    22443202.173
       237.000         195.000
   5462133.94549   4250426.82645  23980949.154    23980948.220    23980961.174
       216.000         156.000
  -1617603.66549  -1242440.98845  23866908.555    23866908.913    23866919.534
       215.000         161.000
 01 11 12 16 56 29.9990000  0  7G22G20G 1G29G25G11G13
 -10021615.66349  -7788922.32247  20950005.754    20950005.137    20950015.359
       241.000         205.000
  -6390703.19249  -4969430.96047  20192292.033    20192291.427    20192298.865
       230.000         203.000
  -8098640.12949  -6299179.05447  21381016.933    21381016.556    21381025.588
       240.000         202.000
   3217223.92149   2503496.45446  23354625.857    23354625.048    23354638.712
       218.000         168.000
   3978953.01949   3096877.22647  22452438.295    22452437.821    22452447.690
       236.000         195.000
   5521185.70349   4296440.84645  23992186.490    23992185.612    23992198.640
       211.000         153.000
  -1722009.01049  -1323795.85845  23847040.866    23847041.243    23847051.897
       218.000         162.000
 01 11 12 16 56 59.9990000  0  7G22G20G 1G29G25G11G13
 -10092610.89649  -7844243.28847  20936495.858    20936495.201    20936505.405
       241.000         205.000
  -6426437.94149  -4997276.25947  20185491.974    20185491.375    20185498.809
       230.000         203.000
  -8170558.11649  -6355219.06047  21367331.376    21367331.037    21367340.082
       241.000         202.000
   3253527.91549   2531784.97546  23361534.503    23361533.647    23361547.390
       222.000         167.000
   4027662.24649   3134832.28347  22461707.534    22461707.028    22461716.923
       237.000         194.000
   5580242.37249   4342458.65845  24003424.800    24003423.915    24003437.057
       214.000         152.000
  -1826400.17349  -1405139.69046  23827175.957    23827176.291    23827186.958
       221.000         164.000
 01 11 12 16 57 29.9990000  0  7G22G20G 1G29G25G11G13
 -10163030.54649  -7899115.74947  20923095.422    20923094.771    20923104.973
       241.000         205.000
  -6461630.63149  -5024699.16347  20178795.052    20178794.461    20178801.906
       230.000         203.000
  -8242352.48849  -6411162.76747  21353669.408    21353669.043    21353678.078
       242.000         202.000
   3289934.94349   2560153.79246  23368462.677    23368461.902    23368475.750
       215.000         167.000
   4076498.52249   3172886.35047  22471000.908    22471000.414    22471010.328
       237.000         195.000
   5639305.37349   4388481.44245  24014664.404    24014663.485    24014676.651
       216.000         156.000
  -1930772.70049  -1486468.97545  23807314.606    23807314.876    23807325.538
       220.000         162.000
 01 11 12 16 57 59.9990000  0  7G22G20G 1G29G25G11G13
 -10232870.38549  -7953536.41447  20909805.351    20909804.685    20909814.890
       240.000         205.000
  -6496278.41349  -5051697.47047  20172201.844    20172201.253    20172208.684
       230.000         203.000
  -8314020.71649  -6467008.18947  21340031.443    21340031.051    21340040.098
       240.000         203.000
   3326447.00149   2588604.41146  23375410.795    23375410.088    23375424.061
       220.000         166.000
   4125462.66149   3211040.04047  22480318.604    22480318.112    22480328.060
       236.000         194.000
   5698374.01449   4434508.58845  24025905.155    24025904.177    24025917.399
       217.000         156.000
  -2035124.44349  -1567782.01345  23787457.140    23787457.390    23787468.127
       216.000         162.000
 01 11 12 16 58 29.9990000  0  7G22G20G 1G29G25G11G13
 -10302119.96949  -8007497.14547  20896627.586    20896626.941    20896637.121
       241.000         205.000
  -6530371.73949  -5078263.73247  20165714.126    20165713.530    20165720.982
       230.000         203.000
  -8385553.60749  -6522748.14847  21326419.224    21326418.830    21326427.867
       241.000         203.000
   3363073.26449   2617144.06846  23382380.802    23382380.096    23382394.117
       220.000         167.000
   4174561.27549   3249298.51147  22489661.887    22489661.405    22489671.383
       237.000         194.000
   5757454.22949   4480544.74645  24037147.968    24037147.016    24037160.357
       217.000         155.000
  -2139446.19949  -1649071.70546  23767605.354    23767605.605    23767616.385
       217.000         164.000
 01 11 12 16 58 59.9990000  0  7G22G20G 1G29G25G11G13
 -10370790.64849  -8061006.78747  20883560.012    20883559.354    20883569.522
       241.000         205.000
  -6563922.91849  -5104407.53847  20159329.595    20159328.993    20159336.438
       230.000         203.000
  -8456964.22549  -6578392.82247  21312830.255    21312829.873    21312838.916
       241.000         203.000
   3399800.33249   2645762.25446  23389370.006    23389369.211    23389383.363
       218.000         167.000
   4223779.28149   3287650.00847  22499027.924    22499027.418    22499037.455
       237.000         194.000
   5816529.91749   4526577.41045  24048389.978    24048389.068    24048402.488
       218.000         157.000
  -2243751.24949  -1730348.39345  23747756.759    23747757.030    23747767.840
       219.000         162.000
 01 11 12 16 59 29.9990000  0  7G22G20G 1G29G25G11G13
 -10438869.29849  -8114055.10747  20870605.136    20870604.421    20870614.588
       240.000         206.000
  -6596919.90649  -5130119.50647  20153050.500    20153049.900    20153057.362
       230.000         203.000
  -8528241.06749  -6633933.25747  21299266.746    21299266.369    21299275.413
       243.000         203.000
   3436639.66249   2674467.91046  23396380.497    23396379.721    23396393.948
       217.000         166.000
   4273126.25149   3326101.99747  22508418.468    22508417.976    22508428.046
       237.000         193.000
   5875609.33449   4572612.96545  24059632.785    24059631.800    24059645.255
       218.000         160.000
  -2348028.53049  -1811603.43545  23727913.492    23727913.709    23727924.577
       220.000         162.000
 01 11 12 16 59 59.9990000  0  7G22G20G 1G29G25G11G13
 -10506346.23849  -8166634.56747  20857764.685    20857763.989    20857774.144
       241.000         206.000
  -6629354.08249  -5155392.92547  20146878.498    20146877.898    20146885.385
       230.000         203.000
  -8599375.76949  -6689362.93347  21285730.271    21285729.904    21285738.967
       241.000         203.000
   3473599.16949   2703267.22546  23403413.866    23403413.110    23403427.390
       220.000         167.000
   4322608.32249   3364659.25747  22517834.706    22517834.245    22517844.348
       237.000         193.000
   5934697.63349   4618655.39845  24070877.058    24070876.187    24070889.738
       221.000         159.000
  -2452269.41849  -1892830.13145  23708077.156    23708077.342    23708088.236
       220.000         161.000
 01 11 12 17  0 29.9990000  0  7G22G20G 1G29G25G11G13
 -10573234.10249  -8218755.00847  20845036.349    20845035.663    20845045.800
       241.000         206.000
  -6661239.14349  -5180238.46147  20140810.953    20140810.389    20140817.904
       229.000         202.000
  -8670382.43849  -6744692.83047  21272218.130    21272217.802    21272226.876
       241.000         202.000
   3510664.69949   2732149.14646  23410467.483    23410466.673    23410481.057
       220.000         167.000
   4372209.30949   3403309.18347  22527273.613    22527273.122    22527283.288
       236.000         193.000
   5993777.64649   4664691.38145  24082119.924    24082118.986    24082132.659
       219.000         161.000
  -2556488.34749  -1974039.71346  23688244.964    23688245.159    23688256.047
       223.000         165.000
 01 11 12 17  0 59.9990000  0  7G22G20G 1G29G25G11G13
 -10639521.64649  -8270407.66147  20832422.254    20832421.569    20832431.721
       240.000         206.000
  -6692564.72849  -5204648.03647  20134849.888    20134849.345    20134856.874
       229.000         202.000
  -8741251.14749  -6799915.24547  21258732.295    21258731.958    21258741.030
       243.000         203.000
   3547845.84849   2761121.16546  23417543.114    23417542.245    23417556.725
       219.000         167.000
   4421936.76549   3442057.65547  22536736.570    22536736.094    22536746.305
       236.000         193.000
   6052855.65949   4710725.84745  24093362.416    24093361.448    24093375.196
       221.000         161.000
  -2660675.80249  -2055224.76146  23668418.790    23668418.999    23668429.869
       224.000         167.000
 01 11 12 17  1 29.9990000  0  7G22G20G 1G29G25G11G13
 -10705200.80649  -8321586.24847  20819923.927    20819923.249    20819933.398
       241.000         206.000
  -6723323.90949  -5228616.26447  20128996.608    20128996.066    20129003.637
       229.000         203.000
  -8811975.23749  -6855024.96347  21245273.954    21245273.639    21245282.715
       243.000         203.000
   3585148.89049   2790188.18246  23424641.890    23424641.043    23424655.557
       221.000         167.000
   4471795.66249   3480908.54647  22546224.511    22546224.066    22546234.334
       236.000         193.000
   6111935.43349   4756761.66645  24104605.214    24104604.248    24104618.047
       219.000         159.000
  -2764825.27449  -2136380.18946  23648599.815    23648600.024    23648610.869
       224.000         164.000
 01 11 12 17  1 59.9990000  0  7G22G20G 1G29G25G11G13
 -10770279.77349  -8372297.15047  20807539.823    20807539.145    20807549.289
       240.000         206.000
  -6753525.74449  -5252150.19947  20123249.395    20123248.871    20123256.462
       229.000         203.000
  -8882564.34949  -6910029.49647  21231841.307    21231840.988    21231850.075
       242.000         203.000
   3622563.96549   2819342.49446  23431762.034    23431761.139    23431775.717
       217.000         166.000
   4521773.67149   3519852.25047  22555735.130    22555734.693    22555745.018
       236.000         193.000
   6171004.21349   4802788.89646  24115845.863    24115844.923    24115858.889
       220.000         163.000
  -2868946.72749  -2217513.78646  23628786.154    23628786.380    23628797.270
       225.000         165.000
 01 11 12 17  2 29.9990000  0  7G22G20G 1G29G25G11G13
 -10834750.60549  -8422534.18147  20795271.421    20795270.758    20795280.898
       240.000         206.000
  -6783163.57149  -5275244.64847  20117609.538    20117609.011    20117616.609
       229.000         203.000
  -8953011.86149  -6964923.67947  21218435.599    21218435.298    21218444.386
       243.000         203.000
   3660097.27949   2848588.93646  23438904.670    23438903.738    23438918.364
       217.000         164.000
   4571875.30049   3558892.28747  22565269.323    22565268.851    22565279.230
       235.000         193.000
   6230065.19049   4848810.07746  24127085.159    24127084.124    24127098.189
       220.000         163.000
  -2973033.54849  -2298620.42146  23608979.108    23608979.345    23608990.181
       225.000         164.000
 01 11 12 17  2 59.9990000  0  7G22G20G 1G29G25G11G13
 -10898608.78749  -8472293.81847  20783119.607    20783118.950    20783129.098
       240.000         206.000
  -6812233.53849  -5297896.61447  20112077.752    20112077.208    20112084.819
       229.000         202.000
  -9023314.31849  -7019704.83347  21205057.509    21205057.203    21205066.308
       242.000         203.000
   3697752.32349   2877930.20846  23446070.290    23446069.461    23446084.161
       219.000         163.000
   4622102.16149   3598029.90247  22574827.334    22574826.852    22574837.272
       235.000         193.000
   6289118.68149   4894825.40245  24138322.889    24138321.938    24138336.077
       218.000         159.000
  -3077082.57049  -2379697.57746  23589179.269    23589179.509    23589190.286
       225.000         163.000
 01 11 12 17  3 29.9990000  0  7G22G20G 1G29G25G11G13
 -10961846.14949  -8521569.69847  20771085.952    20771085.309    20771095.444
       241.000         206.000
  -6840728.77749  -5320100.73647  20106655.280    20106654.765    20106662.388
       229.000         202.000
  -9093465.09949  -7074367.79247  21191708.281    21191707.981    21191717.100
       242.000         203.000
   3735535.42149   2907371.28945  23453260.429    23453259.615    23453274.303
       218.000         162.000
   4672458.68849   3637268.55347  22584410.018    22584409.530    22584419.996
       235.000         192.000
   6348168.22049   4940837.65145  24149559.833    24149558.939    24149573.150
       217.000         158.000
  -3181087.50149  -2460740.38145  23569387.825    23569388.053    23569398.804
       224.000         162.000
 01 11 12 17  3 59.9990000  0  7G22G20G 1G29G25G11G13
 -11024454.45749  -8570355.40347  20759172.008    20759171.361    20759181.489
       240.000         206.000
  -6868641.88449  -5341851.24847  20101343.626    20101343.097    20101350.728
       229.000         202.000
  -9163457.12449  -7128907.04747  21178389.276    21178388.969    21178398.092
       243.000         203.000
   3773453.38249   2936917.44545  23460476.254    23460475.359    23460490.169
       215.000         161.000
   4722950.01249   3676612.24447  22594018.357    22594017.853    22594028.375
       235.000         192.000
   6407217.61149   4986849.78645  24160796.886    24160795.937    24160810.259
       219.000         161.000
  -3285041.12549  -2541743.23645  23549606.134    23549606.404    23549617.032
       225.000         160.000
 01 11 12 17  4 29.9990000  0  7G22G20G 1G29G25G11G13
 -11086452.43449  -8618665.52047  20747374.204    20747373.542    20747383.666
       241.000         206.000
  -6895992.64649  -5363163.57147  20096138.970    20096138.436    20096146.091
       229.000         202.000
  -9233310.26849  -7183338.07547  21165096.670    21165096.362    21165105.520
       243.000         204.000
   3811485.71949   2966552.70646  23467713.755    23467712.924    23467727.779
       220.000         163.000
   4773553.72849   3716043.50447  22603648.065    22603647.565    22603658.146
       234.000         191.000
   6466243.93149   5032843.92945  24172029.527    24172028.567    24172043.008
       218.000         159.000
  -3388963.68549  -2622721.83545  23529830.335    23529830.621    23529841.189
       223.000         156.000
 01 11 12 17  4 59.9990000  0  7G22G20G 1G29G25G11G13
 -11147815.24649  -8666480.69847  20735697.278    20735696.607    20735706.724
       241.000         206.000
  -6922757.23249  -5384019.13147  20091045.851    20091045.326    20091053.009
       229.000         202.000
  -9303000.70249  -7237642.32447  21151835.084    21151834.733    21151843.886
       243.000         203.000
   3849656.13249   2996295.59546  23474977.569    23474976.796    23474991.698
       220.000         163.000
   4824291.68849   3755579.36947  22613303.334    22613302.829    22613313.472
       235.000         192.000
   6525267.53649   5078835.94845  24183261.648    24183260.653    24183275.223
       214.000         155.000
  -3492831.70349  -2703657.95745  23510064.952    23510065.188    23510075.752
       222.000         158.000
 01 11 12 17  5 29.9990000  0  7G22G20G 1G29G25G11G13
 -11208547.37749  -8713804.42547  20724140.349    20724139.664    20724149.781
       241.000         206.000
  -6948941.07049  -5404422.16747  20086063.288    20086062.738    20086070.433
       229.000         203.000
  -9372534.19249  -7291824.27247  21138603.304    21138602.968    21138612.128
       242.000         204.000
   3887958.63549   3026141.41246  23482266.674    23482265.774    23482280.788
       218.000         165.000
   4875156.04749   3795213.72747  22622982.677    22622982.148    22622992.840
       234.000         191.000
   6584279.86249   5124819.19345  24194491.543    24194490.573    24194505.270
       215.000         153.000
  -3596651.35349  -2784556.37545  23490308.691    23490308.942    23490319.543
       221.000         155.000
 01 11 12 17  5 59.9990000  0  7G22G20G 1G29G25G11G13
 -11268641.98449  -8760631.37647  20712704.707    20712704.051    20712714.173
       241.000         206.000
  -6974538.18749  -5424368.01747  20081192.357    20081191.795    20081199.509
       229.000         203.000
  -9441904.90449  -7345879.38147  21125402.506    21125402.175    21125411.351
       243.000         203.000
   3926398.54449   3056094.27046  23489581.746    23489580.867    23489596.017
       215.000         164.000
   4926150.67649   3834949.58947  22632686.775    22632686.249    22632696.992
       234.000         191.000
   6643283.27049   5170795.51045  24205719.883    24205718.842    24205733.611
       213.000         150.000
  -3700416.57449  -2865412.42045  23470562.845    23470563.073    23470573.617
       222.000         156.000
 01 11 12 17  6 29.9990000  0  7G22G20G 1G29G25G11G13
 -11328103.07149  -8806964.67747  20701389.613    20701388.985    20701399.096
       241.000         206.000
  -6999553.71149  -5443860.67847  20076432.111    20076431.542    20076439.269
       229.000         203.000
  -9511117.86349  -7399811.56047  21112231.695    21112231.393    21112240.591
       242.000         204.000
   3964970.40649   3086149.98346  23496921.971    23496921.075    23496936.282
       216.000         164.000
   4977268.06449   3874781.10047  22642414.225    22642413.714    22642424.506
       234.000         191.000
   6702269.24249   5216758.18345  24216944.701    24216943.718    24216958.625
       214.000         151.000
  -3804132.73249  -2946230.23645  23450826.309    23450826.556    23450837.070
       222.000         156.000
 01 11 12 17  6 59.9990000  0  7G22G20G 1G29G25G11G13
 -11386931.73949  -8852805.17647  20690194.874    20690194.246    20690204.354
       241.000         206.000
  -7023989.60549  -5462901.67847  20071782.136    20071781.575    20071789.315
       229.000         203.000
  -9580175.04649  -7453622.36647  21099090.592    21099090.267    21099099.465
       241.000         204.000
   4003671.96549   3116306.78046  23504286.931    23504285.966    23504301.155
       217.000         165.000
   5028503.88049   3914704.87947  22652164.213    22652163.698    22652174.572
       234.000         191.000
   6761232.69649   5262703.31145  24228165.357    24228164.391    24228179.384
       212.000         148.000
  -3907802.47849  -3027011.86745  23431098.583    23431098.813    23431109.393
       220.000         159.000
 01 11 12 17  7 29.9990000  0  7G22G20G 1G29G25G11G13
 -11445132.42249  -8898156.34147  20679119.685    20679119.035    20679129.141
       241.000         207.000
  -7047851.30349  -5481495.25647  20067241.422    20067240.876    20067248.625
       229.000         203.000
  -9649082.06349  -7507316.15647  21085978.030    21085977.708    21085986.925
       241.000         204.000
   4042497.23149   3146559.94746  23511675.441    23511674.410    23511689.645
       218.000         165.000
   5079850.77349   3954715.21047  22661935.367    22661934.842    22661945.767
       235.000         191.000
   6820165.06249   5308624.19545  24239380.148    24239379.170    24239394.217
       214.000         147.000
  -4011431.29749  -3107761.63745  23411378.750    23411378.914    23411389.438
       221.000         154.000
 01 11 12 17  7 59.9990000  0  7G22G20G 1G29G25G11G13
 -11502702.33449  -8943015.99047  20668164.501    20668163.843    20668173.926
       241.000         207.000
  -7071137.04549  -5499640.03847  20062810.311    20062809.774    20062817.545
       229.000         203.000
  -9717837.21549  -7560891.60747  21072894.363    21072894.042    21072903.281
       242.000         204.000
   4081447.86749   3176910.77145  23519087.622    23519086.683    23519102.034
       214.000         162.000
   5131308.68549   3994812.04947  22671727.668    22671727.114    22671738.084
       234.000         189.000
   6879064.78349   5354519.70045  24250588.761    24250587.726    24250602.842
       212.000         143.000
  -4115017.42149  -3188478.12645  23391666.962    23391667.121    23391677.655
       223.000         157.000
 01 11 12 17  8 29.9990000  0  7G22G20G 1G29G25G11G13
 -11559623.81649  -8987370.37247  20657332.672    20657332.048    20657342.125
       241.000         207.000
  -7093830.05449  -5517322.94847  20058491.998    20058491.454    20058499.253
       229.000         203.000
  -9786423.71649  -7614335.65247  21059842.805    21059842.487    21059851.734
       242.000         204.000
   4120540.19449   3207371.97845  23526526.965    23526525.979    23526541.487
       219.000         160.000
   5182891.79349   4035006.44747  22681543.720    22681543.201    22681554.227
       232.000         188.000
   6937945.57449   5400400.41345  24261793.638    24261792.597    24261807.903
       211.000         143.000
  -4218544.51149  -3269148.58645  23371966.387    23371966.569    23371977.085
       223.000         160.000
 01 11 12 17  8 59.9990000  0  7G22G20G 1G29G25G11G13
 -11615895.40649  -9031218.34447  20646624.523    20646623.919    20646633.991
       241.000         207.000
  -7115929.93749  -5534543.68747  20054286.564    20054286.014    20054293.829
       229.000         203.000
  -9854840.95049  -7667647.80547  21046823.452    21046823.135    21046832.382
       241.000         204.000
   4159774.46349   3237943.78045  23533993.177    23533992.232    23534007.937
       219.000         161.000
   5234598.91549   4075297.46447  22691383.418    22691382.907    22691393.950
       234.000         189.000
   6996804.78749   5446264.29745  24272994.567    24272993.397    24273008.904
       212.000         144.000
  -4322012.14149  -3349772.71445  23352277.153    23352277.359    23352287.852
       222.000         158.000
 01 11 12 17  9 29.9990000  0  7G22G20G 1G29G25G11G13
 -11671533.75549  -9074572.88047  20636036.856    20636036.268    20636046.372
       241.000         207.000
  -7137453.90949  -5551315.66447  20050190.716    20050190.168    20050198.003
       230.000         203.000
  -9923106.12449  -7720841.46047  21033833.002    21033832.718    21033841.962
       242.000         204.000
   4199132.81849   3268612.30446  23541482.974    23541482.124    23541497.932
       221.000         163.000
   5286410.41649   4115669.82447  22701243.022    22701242.470    22701253.560
       234.000         188.000
   7055621.86149   5492095.34545  24284187.380    24284186.220    24284201.779
       212.000         145.000
  -4425437.89949  -3430364.22246  23332595.850    23332596.059    23332606.580
       223.000         163.000
 01 11 12 17  9 59.9990000  0  7G22G20G 1G29G25G11G13
 -11726517.73449  -9117417.52247  20625573.719    20625573.149    20625583.267
       241.000         207.000
  -7158382.02349  -5567623.34247  20046208.258    20046207.700    20046215.553
       229.000         203.000
  -9991199.11949  -7773900.95547  21020875.339    21020875.056    21020884.313
       242.000         204.000
   4238635.19149   3299393.09346  23549000.256    23548999.423    23549015.211
       219.000         164.000
   5338344.42649   4156137.64247  22711125.939    22711125.376    22711136.473
       232.000         188.000
   7114413.69449   5537906.72145  24295375.404    24295374.240    24295389.849
       211.000         140.000
  -4528801.70749  -3510907.51745  23312926.348    23312926.614    23312937.039
       219.000         157.000
 01 11 12 17 10 29.9990000  0  7G22G20G 1G29G25G11G13
 -11780860.57849  -9159762.58147  20615232.623    20615232.047    20615242.144
       241.000         207.000
  -7178728.47049  -5583477.76947  20042336.497    20042335.931    20042343.801
       230.000         202.000
 -10059134.01949  -7826837.26247  21007947.799    21007947.496    21007956.726
       242.000         204.000
   4278266.85749   3330274.60945  23556542.130    23556541.315    23556557.099
       220.000         161.000
   5390384.76349   4196688.30647  22721029.089    22721028.500    22721039.626
       234.000         188.000
   7173163.12449   5583685.07845  24306555.322    24306554.211    24306569.853
       207.000         140.000
  -4632117.89649  -3591413.61746  23293265.895    23293266.171    23293276.684
       225.000         165.000
 01 11 12 17 10 59.9990000  0  7G22G20G 1G29G25G11G13
 -11834555.79449  -9201603.00347  20605014.745    20605014.171    20605024.268
       241.000         207.000
  -7198487.66749  -5598874.60447  20038576.473    20038575.906    20038583.791
       230.000         203.000
 -10126905.16249  -7879645.96547  20995051.349    20995051.082    20995060.324
       242.000         204.000
   4318033.30149   3361261.12345  23564109.746    23564108.859    23564124.697
       216.000         160.000
   5442535.10749   4237324.69446  22730953.176    22730952.569    22730963.722
       233.000         187.000
   7231872.59949   5629432.25245  24317727.632    24317726.622    24317742.242
       211.000         144.000
  -4735381.06649  -3671878.47046  23273615.604    23273615.850    23273626.380
       220.000         167.000
 01 11 12 17 11 29.9990000  0  7G22G20G 1G29G25G11G13
 -11887592.42149  -9242930.24147  20594922.201    20594921.631    20594931.733
       241.000         208.000
  -7217649.46149  -5613805.93447  20034930.149    20034929.573    20034937.466
       229.000         203.000
 -10194502.00949  -7932318.85047  20982188.108    20982187.850    20982197.081
       242.000         204.000
   4357944.85949   3392360.70046  23571704.926    23571704.062    23571719.970
       218.000         164.000
   5494803.74149   4278053.25447  22740899.746    22740899.152    22740910.333
       234.000         188.000
   7290549.42549   5675153.98445  24328893.863    24328892.793    24328908.553
       215.000         149.000
  -4838580.79149  -3752293.87246  23253977.400    23253977.634    23253988.189
       227.000         172.000
 01 11 12 17 11 59.9990000  0  7G22G20G 1G29G25G11G13
 -11939962.03949  -9283737.73647  20584956.585    20584956.021    20584966.113
       242.000         208.000
  -7236206.48449  -5628266.01447  20031398.892    20031398.335    20031406.238
       229.000         203.000
 -10261916.83249  -7984849.90847  20969359.540    20969359.249    20969368.488
       241.000         205.000
   4398008.32349   3423578.68945  23579329.053    23579328.154    23579344.073
       219.000         162.000
   5547196.32149   4318878.40846  22750869.957    22750869.302    22750880.564
       233.000         187.000
   7349197.93649   5720853.64745  24340054.685    24340053.608    24340069.400
       210.000         147.000
  -4941709.83649  -3832654.14946  23234352.570    23234352.804    23234363.461
       225.000         170.000
 01 11 12 17 12 29.9990000  0  7G22G20G 1G29G25G11G13
 -11991683.26949  -9324040.00147  20575114.398    20575113.810    20575123.885
       242.000         208.000
  -7254178.28649  -5642270.08547  20027979.011    20027978.451    20027986.372
       229.000         203.000
 -10329168.96549  -8037254.17947  20956561.891    20956561.609    20956570.837
       242.000         205.000
   4438203.96849   3454899.64545  23586978.302    23586977.368    23586993.308
       213.000         157.000
   5599691.23649   4359783.29446  22760859.618    22760858.951    22760870.253
       234.000         187.000
   7407795.87649   5766513.88945  24351205.851    24351204.722    24351220.623
       210.000         144.000
  -5044787.51749  -3912974.47546  23214737.691    23214737.836    23214748.458
       224.000         168.000
 01 11 12 17 12 59.9990000  0  7G22G20G 1G29G25G11G13
 -12042749.78549  -9363832.10047  20565396.800    20565396.166    20565406.236
       241.000         208.000
  -7271559.24249  -5655813.75247  20024671.594    20024671.007    20024678.943
       229.000         202.000
 -10396252.75249  -8089527.27347  20943796.313    20943796.017    20943805.228
       242.000         204.000
   4478537.37949   3486327.89745  23594653.769    23594652.816    23594668.917
       217.000         154.000
   5652292.44949   4400771.01746  22770869.497    22770868.823    22770880.181
       233.000         186.000
   7466345.66449   5812136.62345  24362347.894    24362346.643    24362362.637
       213.000         145.000
  -5147808.56849  -3993250.61046  23195133.406    23195133.578    23195144.220
       229.000         177.000
 01 11 12 17 13 29.9990000  0  7G22G20G 1G29G25G11G13
 -12093150.38449  -9403105.31147  20555805.901    20555805.268    20555815.326
       241.000         208.000
  -7288339.35849  -5668889.23747  20021478.485    20021477.905    20021485.843
       230.000         203.000
 -10463157.57349  -8141660.91647  20931064.787    20931064.483    20931073.683
       242.000         205.000
   4519018.65149   3517871.39045  23602357.340    23602356.420    23602372.746
       214.000         155.000
   5705008.19349   4441847.99146  22780901.156    22780900.489    22780911.896
       233.000         187.000
   7524854.79249   5857727.66845  24373482.250    24373480.916    24373497.003
       215.000         150.000
  -5250762.37849  -4073474.34646  23175541.905    23175542.117    23175552.860
       229.000         173.000
 01 11 12 17 13 59.9990000  0  7G22G20G 1G29G25G11G13
 -12142871.53549  -9441849.08247  20546344.291    20546343.656    20546353.710
       241.000         208.000
  -7304505.56849  -5681486.34847  20018402.234    20018401.628    20018409.583
       230.000         203.000
 -10529870.35549  -8193644.91847  20918369.792    20918369.480    20918378.669
       241.000         205.000
   4559660.28049   3549539.85845  23610091.342    23610090.500    23610106.931
       209.000         160.000
   5757849.60849   4483022.88446  22790956.725    22790956.062    22790967.524
       232.000         187.000
   7583333.05849   5903294.64145  24384610.729    24384609.347    24384625.553
       216.000         152.000
  -5353636.09149  -4153635.67746  23155965.720    23155965.932    23155976.722
       229.000         177.000
 01 11 12 17 14 29.9990000  0  7G22G20G 1G29G25G11G13
 -12191924.83549  -9480072.45447  20537009.788    20537009.142    20537019.183
       241.000         208.000
  -7320070.61349  -5693615.02347  20015440.335    20015439.748    20015447.720
       230.000         203.000
 -10596403.36149  -8245488.83847  20905708.999    20905708.691    20905717.872
       242.000         204.000
   4600449.78349   3581323.57545  23617853.507    23617852.698    23617869.096
       214.000         158.000
   5810802.13749   4524284.37446  22801033.454    22801032.793    22801044.298
       232.000         186.000
   7641765.21849   5948825.67645  24395730.529    24395728.994    24395745.308
       213.000         151.000
  -5456442.19549  -4233744.33246  23136402.397    23136402.612    23136413.376
       229.000         176.000
 01 11 12 17 14 59.9990000  0  7G22G20G 1G29G25G11G13
 -12240307.59049  -9517773.32947  20527802.838    20527802.198    20527812.251
       241.000         208.000
  -7335032.86549  -5705273.98047  20012593.170    20012592.573    20012600.558
       231.000         203.000
 -10662754.34849  -8297190.91747  20893082.821    20893082.526    20893091.710
       241.000         205.000
   4641388.62349   3613223.59245  23625644.157    23625643.334    23625659.785
       217.000         157.000
   5863865.98849   4565632.61046  22811131.329    22811130.686    22811142.259
       230.000         186.000
   7700150.07549   5994319.82345  24406841.013    24406839.597    24406856.087
       213.000         150.000
  -5559178.92649  -4313798.89846  23116852.279    23116852.502    23116863.271
       231.000         178.000
 01 11 12 17 15 29.9990000  0  7G22G20G 1G29G25G11G13
 -12288029.47849  -9554959.23847  20518721.693    20518721.049    20518731.087
       241.000         208.000
  -7349402.67549  -5716471.29647  20009858.736    20009858.143    20009866.143
       231.000         203.000
 -10728933.35749  -8348758.99147  20880489.368    20880489.074    20880498.276
       241.000         205.000
   4682466.34149   3645231.83645  23633461.256    23633460.376    23633477.015
       211.000         158.000
   5917029.02849   4607058.11346  22821248.067    22821247.446    22821259.093
       232.000         186.000
   7758474.52449   6039766.95045  24417940.083    24417938.741    24417955.242
       214.000         151.000
  -5661856.15949  -4393807.08946  23097313.432    23097313.678    23097324.478
       230.000         173.000
 01 11 12 17 15 59.9990000  0  7G22G20G 1G29G25G11G13
 -12335079.77949  -9591621.83747  20509768.307    20509767.681    20509777.720
       241.000         208.000
  -7363170.09449  -5727199.22047  20007238.895    20007238.328    20007246.364
       231.000         203.000
 -10794929.95649  -8400184.91947  20867930.626    20867930.346    20867939.552
       241.000         205.000
   4723693.04549   3677356.19745  23641306.723    23641305.847    23641322.544
       210.000         161.000
   5970299.65949   4648567.46946  22831385.291    22831384.672    22831396.402
       231.000         187.000
   7816745.85249   6085172.67145  24429029.160    24429027.815    24429044.414
       215.000         150.000
  -5764463.74549  -4473761.00246  23077787.850    23077788.115    23077798.907
       228.000         176.000
 01 11 12 17 16 29.9990000  0  7G22G20G 1G29G25G11G13
 -12381451.13349  -9627755.38447  20500944.155    20500943.508    20500953.557
       242.000         209.000
  -7376328.75749  -5737452.78247  20004734.915    20004734.357    20004742.424
       231.000         204.000
 -10860737.28949  -8451463.36947  20855407.895    20855407.632    20855416.854
       242.000         205.000
   4765074.90249   3709601.49446  23649181.708    23649180.805    23649197.526
       211.000         163.000
   6023682.50649   4690164.26046  22841543.859    22841543.280    22841555.060
       230.000         186.000
   7874967.56049   6130539.70745  24440108.876    24440107.452    24440124.096
       206.000         149.000
  -5866995.38049  -4553655.75246  23058276.753    23058277.015    23058287.747
       226.000         173.000
 01 11 12 17 16 59.9990000  0  7G22G20G 1G29G25G11G13
 -12427145.97949  -9663361.78147  20492248.721    20492248.087    20492258.144
       242.000         209.000
  -7388881.95649  -5747234.55747  20002346.161    20002345.607    20002353.697
       231.000         204.000
 -10926358.05349  -8502596.44247  20842920.690    20842920.426    20842929.646
       241.000         205.000
   4806608.76149   3741965.19445  23657085.633    23657084.697    23657101.476
       209.000         156.000
   6077172.92749   4731844.87446  22851722.935    22851722.349    22851734.197
       230.000         185.000
   7933133.75849   6175863.45845  24451177.809    24451176.483    24451193.314
       211.000         150.000
  -5969453.80049  -4633493.45546  23038779.543    23038779.820    23038790.474
       226.000         171.000
 01 11 12 17 17 29.9990000  0  7G22G20G 1G29G25G11G13
 -12472163.77949  -9698440.60947  20483682.153    20483681.506    20483691.566
       242.000         209.000
  -7400829.84349  -5756544.65647  20000072.641    20000072.056    20000080.159
       231.000         204.000
 -10991791.88149  -8553583.85347  20830469.042    20830468.797    20830478.015
       241.000         205.000
   4848294.38349   3774447.05145  23665018.394    23665017.465    23665034.462
       213.000         158.000
   6130769.19349   4773607.96246  22861922.171    22861921.569    22861933.484
       231.000         185.000
   7991241.67749   6221141.80245  24462235.844    24462234.427    24462251.330
       212.000         151.000
  -6071838.84349  -4713273.96746  23019296.324    23019296.623    23019307.330
       228.000         170.000
 01 11 12 17 17 59.9990000  0  7G22G20G 1G29G25G11G13
 -12516509.81549  -9732995.98147  20475243.429    20475242.758    20475252.829
       242.000         209.000
  -7412178.64949  -5765387.94147  19997913.092    19997912.511    19997920.607
       232.000         204.000
 -11057044.26649  -8604429.87847  20818051.910    20818051.675    20818060.919
       242.000         205.000
   4890125.68849   3807042.53645  23672978.842    23672977.954    23672994.958
       215.000         162.000
   6184463.52749   4815447.46046  22872140.029    22872139.443    22872151.405
       229.000         185.000
   8049282.64649   6266367.97945  24473280.992    24473279.615    24473296.639
       210.000         149.000
  -6174156.29349  -4793001.78146  22999825.783    22999826.186    22999836.966
       228.000         170.000
 01 11 12 17 18 29.9990000  0  7G22G20G 1G29G25G11G13
 -12560170.06749  -9767016.96947  20466935.183    20466934.507    20466944.585
       242.000         209.000
  -7422915.27749  -5773754.20447  19995870.045    19995869.444    19995877.548
       232.000         204.000
 -11122101.35049  -8655123.72647  20805671.990    20805671.740    20805680.993
       242.000         205.000
   4932116.15249   3839762.04145  23680969.593    23680968.766    23680985.715
       210.000         155.000
   6238267.55549   4857372.43646  22882378.764    22882378.187    22882390.209
       229.000         184.000
   8107267.40149   6311550.37845  24484315.524    24484314.174    24484331.258
       210.000         148.000
  -6276392.48049  -4872666.31446  22980370.911    22980371.290    22980382.058
       229.000         170.000
 01 11 12 17 18 59.9990000  0  7G22G20G 1G29G25G11G13
 -12603147.79849  -9800506.12147  20458756.824    20458756.140    20458766.218
       241.000         209.000
  -7433043.63949  -5781646.48647  19993942.710    19993942.122    19993950.256
       231.000         204.000
 -11186966.74249  -8705668.20247  20793328.553    20793328.283    20793337.531
       241.000         205.000
   4974261.52249   3872602.17245  23688989.951    23688989.062    23689006.195
       216.000         157.000
   6292175.40449   4899378.30346  22892637.283    22892636.687    22892648.781
       230.000         183.000
   8165189.03849   6356683.57245  24495338.086    24495336.685    24495353.907
       208.000         146.000
  -6378551.35349  -4952270.56746  22960930.730    22960931.124    22960941.857
       227.000         168.000
 01 11 12 17 19 29.9990000  0  7G22G20G 1G29G25G11G13
 -12645451.40649  -9833469.97947  20450706.710    20450706.045    20450716.122
       241.000         209.000
  -7442572.90249  -5789071.93647  19992129.386    19992128.808    19992136.961
       232.000         204.000
 -11251648.91149  -8756069.91447  20781019.956    20781019.685    20781028.941
       242.000         205.000
   5016552.75049   3905556.02246  23697038.010    23697037.043    23697054.285
       221.000         165.000
   6346177.06949   4941457.27746  22902913.624    22902913.019    22902925.203
       224.000         183.000
   8223036.11949   6401758.64945  24506346.324    24506344.980    24506362.302
       209.000         146.000
  -6480641.31849  -5031821.18346  22941503.620    22941503.993    22941514.704
       225.000         166.000
 01 11 12 17 19 59.9980000  0  8G22G20G27G 1G29G25G11G13
 -12687055.36149  -9865888.65247  20442789.753    20442789.085    20442799.174
       242.000         209.000
  -7451479.80049  -5796012.43147  19990434.494    19990433.924    19990442.100
       231.000         204.000
   -349243.06159   -245945.89755  24516080.862    24516079.623    24516096.072
       212.000         145.000
 -11316121.88349  -8806308.61947  20768751.173    20768750.904    20768760.156
       242.000         206.000
   5059011.81449   3938640.67245  23705117.954    23705116.970    23705134.229
       217.000         162.000
   6400292.32149   4983624.73746  22913211.550    22913210.963    22913223.231
       228.000         182.000
   8280827.32349   6446790.17245  24517344.057    24517342.641    24517360.160
       211.000         149.000
  -6582635.43049  -5111297.10946  22922094.808    22922095.143    22922105.853
       228.000         168.000
 01 11 12 17 20 29.9980000  0  8G22G20G27G 1G29G25G11G13
 -12727965.29549  -9897766.52647  20435004.836    20435004.206    20435014.298
       242.000         209.000
  -7459768.51849  -5802471.22647  19988857.239    19988856.678    19988864.876
       232.000         204.000
   -459206.89349   -331631.86145  24495155.494    24495155.114    24495171.588
       213.000         149.000
 -11380392.82549  -8856389.89747  20756520.828    20756520.570    20756529.809
       242.000         206.000
   5101638.22949   3971855.65945  23713229.755    23713228.747    23713246.148
       215.000         159.000
   6454520.10449   5025879.87746  22923530.891    22923530.341    22923542.662
       231.000         183.000
   8338560.43449   6491776.42045  24528330.783    24528329.381    24528346.985
       211.000         149.000
  -6684543.60349  -5190706.06546  22902702.314    22902702.653    22902713.343
       229.000         165.000
 01 11 12 17 20 59.9980000  0  8G22G20G27G 1G29G25G11G13
 -12768194.45249  -9929113.92547  20427349.505    20427348.857    20427358.954
       242.000         209.000
  -7467453.86349  -5808459.86047  19987394.816    19987394.246    19987402.475
       232.000         204.000
   -569006.09859   -417189.55555  24474261.370    24474261.359    24474278.053
       207.000         152.000
 -11444474.25349  -8906323.51247  20744326.578    20744326.301    20744335.539
       242.000         206.000
   5144415.40349   4005188.15345  23721370.238    23721369.258    23721386.760
       214.000         160.000
   6508841.71949   5068208.15046  22933868.168    22933867.594    22933879.958
       229.000         182.000
   8396215.99749   6536702.25945  24539302.821    24539301.319    24539319.047
       207.000         144.000
  -6786377.24749  -5270056.92746  22883324.058    22883324.364    22883335.062
       227.000         166.000
 01 11 12 17 21 29.9980000  0  8G22G20G27G 1G29G25G11G13
 -12807731.63049  -9959922.11847  20419825.808    20419825.178    20419835.284
       242.000         209.000
  -7474525.68649  -5813970.42547  19986049.136    19986048.575    19986056.810
       232.000         204.000
   -678629.68349   -502610.36045  24453400.631    24453400.516    24453416.983
       206.000         151.000
 -11508354.88449  -8956100.64847  20732170.507    20732170.245    20732179.479
       242.000         206.000
   5187353.56949   4038646.15146  23729541.289    23729540.416    23729557.920
       219.000         165.000
   6563266.13849   5110616.52046  22944224.999    22944224.399    22944236.823
       227.000         182.000
   8453801.64449   6581573.59445  24550261.328    24550259.886    24550277.755
       204.000         141.000
  -6888125.45549  -5349341.27046  22863961.931    22863962.289    22863972.882
       226.000         170.000
 01 11 12 17 21 59.9980000  0  8G22G20G27G 1G29G25G11G13
 -12846577.16349  -9990191.37047  20412433.759    20412433.138    20412443.242
       242.000         209.000
  -7480984.96349  -5819003.68647  19984819.998    19984819.452    19984827.719
       232.000         205.000
   -788077.93649   -587894.55145  24432573.353    24432573.255    24432589.509
       210.000         153.000
 -11572034.71549  -9005721.32847  20720052.661    20720052.392    20720061.630
       242.000         206.000
   5230452.26949   4072229.20645  23737743.000    23737742.108    23737759.633
       220.000         156.000
   6617790.98949   5153103.13246  22954600.922    22954600.315    22954612.803
       229.000         182.000
   8511314.23049   6626387.98045  24561205.941    24561204.651    24561222.595
       206.000         140.000
  -6989788.69549  -5428559.41146  22844616.048    22844616.391    22844626.925
       226.000         169.000
 01 11 12 17 22 29.9980000  0  8G22G20G27G 1G29G25G11G13
 -12884741.70149 -10019929.98347  20405171.288    20405170.672    20405180.786
       242.000         209.000
  -7486843.22249  -5823568.61647  19983705.253    19983704.709    19983712.981
       233.000         205.000
   -897361.70649   -673050.61645  24411777.355    24411777.251    24411793.335
       207.000         155.000
 -11635524.60949  -9055194.00947  20707970.938    20707970.672    20707979.925
       241.000         206.000
   5273700.09849   4105928.33645  23745973.124    23745972.162    23745989.985
       213.000         154.000
   6672403.62249   5195658.14646  22964993.570    22964992.942    22965005.490
       229.000         182.000
   8568739.60349   6671134.44845  24572134.086    24572132.754    24572150.923
       207.000         139.000
  -7091377.72849  -5507719.66246  22825284.232    22825284.609    22825295.235
       228.000         168.000
 01 11 12 17 22 59.9980000  0  8G22G20G27G 1G29G25G11G13
 -12922215.99949 -10049130.74547  20398040.196    20398039.565    20398049.675
       242.000         210.000
  -7492091.97749  -5827658.60947  19982706.502    19982705.954    19982714.224
       232.000         205.000
  -1006471.72349   -758071.24545  24391014.289    24391014.231    24391030.315
       207.000         153.000
 -11698815.03849  -9104511.26747  20695927.194    20695926.934    20695936.182
       241.000         206.000
   5317105.77549   4139750.71945  23754233.425    23754232.368    23754250.024
       208.000         162.000
   6727111.72649   5238287.56246  22975404.424    22975403.760    22975416.361
       230.000         183.000
   8626084.32649   6715818.01345  24583046.949    24583045.506    24583063.725
       209.000         142.000
  -7192883.37949  -5586815.02246  22805968.304    22805968.702    22805979.265
       227.000         170.000
 01 11 12 17 23 29.9980000  0  8G22G20G27G 1G29G25G11G13
 -12959006.35449 -10077798.57247  20391039.232    20391038.600    20391048.721
       242.000         210.000
  -7496738.29449  -5831279.16947  19981822.372    19981821.833    19981830.118
       232.000         205.000
  -1115414.22649   -842961.30145  24370283.144    24370283.046    24370299.217
       214.000         157.000
 -11761912.24249  -9153677.95147  20683920.189    20683919.950    20683929.212
       241.000         206.000
   5360662.61249   4173690.70445  23762522.251    23762521.261    23762539.005
       219.000         143.000
   6781906.99049   5280984.89446  22985831.879    22985831.164    22985843.821
       227.000         182.000
   8683339.06349   6760431.48945  24593942.551    24593941.219    24593959.531
       205.000         141.000
  -7294311.95949  -5665850.29146  22786667.154    22786667.492    22786678.041
       228.000         172.000
 01 11 12 17 23 59.9980000  0  8G22G20G27G 1G29G25G11G13
 -12995095.70049 -10105920.16147  20384171.667    20384171.040    20384181.163
       242.000         210.000
  -7500765.99749  -5834417.69047  19981055.994    19981055.427    19981063.731
       233.000         205.000
  -1224172.15749   -927707.60645  24349587.149    24349587.083    24349603.220
       211.000         159.000
 -11824798.97549  -9202680.62947  20671953.281    20671953.026    20671962.289
       242.000         205.000
   5404387.29049   4207761.39946  23770842.961    23770841.982    23770860.130
       219.000         166.000
   6836804.41649   5323761.80646  22996278.756    22996278.042    22996290.726
       231.000         182.000
   8740518.07349   6804985.92045  24604823.725    24604822.360    24604840.913
       204.000         136.000
  -7395646.40949  -5744812.20746  22767383.872    22767384.207    22767394.767
       231.000         174.000
 01 11 12 17 24 29.9980000  0  8G22G20G27G 1G29G25G11G13
 -13030494.88349 -10133503.97047  20377435.465    20377434.822    20377444.942
       242.000         210.000
  -7504186.56249  -5837083.12347  19980405.134    19980404.568    19980412.883
       233.000         205.000
  -1332756.43749  -1012318.60745  24328924.209    24328924.163    24328940.257
       214.000         161.000
 -11887485.76549  -9251527.51447  20660024.417    20660024.152    20660033.419
       241.000         206.000
   5448268.44449   4241954.28445  23779193.354    23779192.493    23779210.524
       215.000         154.000
   6891791.49149   5366608.58446  23006742.699    23006741.978    23006754.677
       228.000         181.000
   8797607.34149   6849470.41645  24615687.827    24615686.514    24615705.186
       202.000         134.000
  -7496897.61449  -5823709.29446  22748116.396    22748116.735    22748127.261
       229.000         168.000
 01 11 12 17 24 59.9980000  0  8G22G20G27G 1G29G25G11G13
 -13065197.04349 -10160544.64747  20370831.913    20370831.246    20370841.370
       242.000         210.000
  -7506993.74549  -5839270.59447  19979870.988    19979870.424    19979878.750
       234.000         205.000
  -1441160.16749  -1096788.87645  24308295.501    24308295.532    24308311.690
       213.000         162.000
 -11949965.60349  -9300213.13247  20648134.936    20648134.666    20648143.938
       241.000         206.000
   5492312.46249   4276273.82645  23787575.117    23787574.140    23787592.412
       207.000         139.000
   6946873.08449   5409529.01746  23017224.649    23017223.912    23017236.626
       227.000         181.000
   8854610.75849   6893888.04845  24626535.705    24626534.336    24626553.257
       206.000         133.000
  -7598058.81249  -5902536.18346  22728866.038    22728866.418    22728876.974
       227.000         171.000
 01 11 12 17 25 29.9980000  0  8G22G20G27G 1G29G25G11G13
 -13099204.93549 -10187044.34447  20364360.426    20364359.777    20364369.905
       242.000         210.000
  -7509191.12049  -5840982.89247  19979452.885    19979452.315    19979460.668
       234.000         205.000
  -1549386.06849  -1181120.65246  24287700.771    24287700.785    24287716.933
       214.000         165.000
 -12012240.84149  -9348739.31547  20636284.396    20636284.098    20636293.391
       241.000         206.000
   5536516.36349   4310718.12845  23795987.216    23795986.181    23796004.395
       215.000         161.000
   7002044.78049   5452519.65146  23027723.736    23027722.958    23027735.726
       227.000         182.000
   8911522.81149   6938234.49145  24637366.213    24637364.798    24637383.800
       211.000         132.000
  -7699132.21649  -5981294.66546  22709632.491    22709632.812    22709643.408
       233.000         176.000
 01 11 12 17 25 59.9980000  0  8G22G20G27G 1G29G25G11G13
 -13132510.01849 -10212996.40047  20358022.685    20358022.056    20358032.182
       242.000         210.000
  -7510770.85949  -5842213.92247  19979152.313    19979151.758    19979160.100
       233.000         205.000
  -1657425.49149  -1265307.10946  24267141.421    24267141.485    24267157.593
       219.000         165.000
 -12074302.63149  -9397099.16347  20624474.427    20624474.149    20624483.458
       241.000         205.000
   5580888.51449   4345293.43045  23804431.068    23804430.038    23804448.331
       214.000         146.000
   7057313.31449   5495585.76146  23038241.244    23038240.426    23038253.258
       225.000         180.000
   8968349.51249   6982514.40545  24648180.438    24648179.045    24648198.239
       208.000         134.000
  -7800109.55849  -6059978.28946  22690417.121    22690417.461    22690428.052
       230.000         173.000
 01 11 12 17 26 29.9980000  0  8G22G20G27G 1G29G25G11G13
 -13165122.10549 -10238408.47047  20351816.852    20351816.206    20351826.326
       242.000         210.000
  -7511743.69949  -5842972.03847  19978967.244    19978966.680    19978975.026
       234.000         206.000
  -1765288.10649  -1349355.84846  24246615.731    24246615.832    24246631.954
       220.000         165.000
 -12136160.41449  -9445300.04547  20612703.289    20612703.015    20612712.337
       241.000         205.000
   5625418.33549   4379991.57045  23812905.246    23812904.101    23812922.574
       207.000         150.000
   7112666.90549   5538718.11646  23048774.838    23048774.073    23048786.962
       228.000         179.000
   9025077.98049   7026717.80145  24658976.026    24658974.585    24658993.918
       206.000         137.000
  -7901000.33149  -6138594.46646  22671218.298    22671218.586    22671229.163
       228.000         175.000
 01 11 12 17 26 59.9980000  0  8G22G20G27G 1G29G25G11G13
 -13197041.65849 -10263280.89647  20345742.812    20345742.148    20345752.260
       242.000         210.000
  -7512110.60249  -5843257.99947  19978897.489    19978896.905    19978905.261
       234.000         205.000
  -1872974.08649  -1433266.95746  24226123.749    24226123.816    24226139.909
       222.000         170.000
 -12197814.28249  -9493342.03147  20600970.959    20600970.696    20600980.022
       241.000         205.000
   5670105.31049   4414812.37945  23821409.461    23821408.123    23821426.381
       207.000         140.000
   7168103.66949   5581915.30946  23059324.303    23059323.548    23059336.517
       228.000         178.000
   9081705.08749   7070842.15945  24669752.168    24669750.811    24669770.286
       207.000         136.000
  -8001804.97849  -6217143.51446  22652035.763    22652036.084    22652046.689
       229.000         174.000
 01 11 12 17 27 29.9980000  0  8G22G20G27G 1G29G25G11G13
 -13228255.98949 -10287603.80447  20339802.940    20339802.282    20339812.398
       242.000         210.000
  -7511859.70349  -5843062.55647  19978945.319    19978944.718    19978953.062
       234.000         205.000
  -1980470.69349  -1517030.48746  24205667.829    24205667.877    24205683.903
       219.000         166.000
 -12259250.94049  -9541214.75947  20589279.985    20589279.717    20589289.033
       241.000         205.000
   5714961.92849   4449765.08245  23829945.557    23829944.307    23829962.949
       212.000         155.000
   7223634.85949   5625186.06846  23069891.713    23069890.983    23069904.028
       226.000         178.000
   9138240.86749   7114895.35445  24680511.046    24680509.634    24680529.301
       207.000         135.000
  -8102510.46049  -6295615.29146  22632872.152    22632872.470    22632883.073
       231.000         175.000
 01 11 12 17 27 59.9980000  0  8G22G20G27G 1G29G25G11G13
 -13258773.16949 -10311383.47447  20333995.772    20333995.087    20334005.188
       242.000         209.000
  -7510999.91749  -5842392.65547  19979108.974    19979108.384    19979116.730
       234.000         205.000
  -2087785.81849  -1600652.62446  24185246.393    24185246.429    24185262.452
       219.000         170.000
 -12320478.27249  -9588924.38047  20577628.839    20577628.565    20577637.890
       241.000         205.000
   5759979.78949   4484843.68745  23838512.313    23838511.101    23838529.690
       210.000         148.000
   7279250.67149   5668522.76346  23080475.208    23080474.506    23080487.644
       224.000         178.000
   9194674.59949   7158869.06945  24691250.569    24691249.088    24691268.817
       208.000         133.000
  -8203124.48649  -6374015.79346  22613725.942    22613726.246    22613736.880
       230.000         175.000
 01 11 12 17 28 29.9980000  0  8G22G20G27G 1G29G25G11G13
 -13288582.83449 -10334611.83447  20328323.223    20328322.535    20328332.624
       243.000         210.000
  -7509521.55449  -5841240.74747  19979390.334    19979389.734    19979398.120
       234.000         205.000
  -2194908.77149  -1684125.07546  24164861.537    24164861.583    24164877.477
       217.000         167.000
 -12381485.22349  -9636462.26347  20566019.624    20566019.336    20566028.674
       241.000         206.000
   5805169.04549   4520055.63645  23847111.871    23847110.625    23847129.534
       209.000         141.000
   7334959.93449   5711932.26146  23091076.554    23091075.840    23091089.035
       229.000         177.000
   9251013.90749   7202769.21345  24701972.122    24701970.632    24701990.357
       208.000         133.000
  -8303636.32349  -6452336.63446  22594599.128    22594599.448    22594610.136
       228.000         175.000
 01 11 12 17 28 59.9980000  0  8G22G20G27G 1G29G25G11G13
 -13317696.17549 -10357297.59147  20322783.171    20322782.478    20322792.576
       242.000         210.000
  -7507436.32549  -5839615.95547  19979787.191    19979786.581    19979794.991
       234.000         206.000
  -2301850.49549  -1767456.17546  24144511.118    24144511.174    24144527.199
       221.000         170.000
 -12442282.55649  -9683836.80847  20554450.280    20554450.007    20554459.346
       241.000         206.000
   5850518.37949   4555392.50645  23855741.848    23855740.561    23855759.484
       210.000         156.000
   7390750.27849   5755404.94946  23101693.352    23101692.588    23101705.879
       228.000         177.000
   9307245.09949   7246585.14344  24712673.115    24712671.406    24712691.314
       205.000         131.000
  -8404056.89449  -6530586.36446  22575489.670    22575490.018    22575500.761
       229.000         176.000
 01 11 12 17 29 29.9980000  0  8G22G20G27G 1G29G25G11G13
 -13346117.51049 -10379444.11047  20317374.802    20317374.108    20317384.216
       242.000         210.000
  -7504749.29649  -5837522.22347  19980298.556    19980297.958    19980306.386
       235.000         206.000
  -2408615.02849  -1850649.30546  24124194.462    24124194.507    24124210.495
       223.000         163.000
 -12502873.91249  -9731050.84447  20542920.122    20542919.864    20542929.201
       240.000         206.000
   5896023.44349   4590850.60545  23864401.246    23864400.076    23864419.146
       208.000         140.000
   7446615.65149   5798936.11246  23112324.360    23112323.610    23112337.005
       225.000         177.000
   9363361.52849   7290311.64445  24723352.216    24723350.607    24723370.606
       208.000         134.000
  -8504390.27249  -6608768.18846  22556396.851    22556397.214    22556407.949
       228.000         175.000
 01 11 12 17 29 59.9980000  0  8G22G20G27G 1G29G25G11G13
 -13373841.02349 -10401046.86747  20312099.191    20312098.524    20312108.650
       242.000         210.000
  -7501455.37049  -5834955.58747  19980925.405    19980924.825    19980933.260
       235.000         206.000
  -2515196.24049  -1933699.56045  24103912.693    24103912.732    24103928.699
       218.000         162.000
 -12563252.74049  -9778099.27047  20531430.388    20531430.159    20531439.510
       241.000         206.000
   5941689.59949   4626434.36445  23873091.506    23873090.418    23873109.424
       200.000         144.000
   7502560.23549   5842529.00946  23122970.472    23122969.711    23122983.191
       224.000         176.000
   9419366.11049   7333950.95245  24734009.992    24734008.416    24734028.401
       205.000         133.000
  -8604630.22949  -6686877.20046  22537321.780    22537322.160    22537332.900
       225.000         176.000
 01 11 12 17 30 29.9980000  0  8G22G20G27G 1G29G25G11G13
 -13400857.56249 -10422098.72847  20306958.104    20306957.454    20306967.598
       242.000         210.000
  -7497545.97049  -5831909.36347  19981669.372    19981668.804    19981677.264
       236.000         206.000
  -2621584.61349  -2016599.52546  24083667.602    24083667.625    24083683.630
       219.000         169.000
 -12623409.24449  -9824974.46147  20519982.964    20519982.747    20519992.124
       240.000         206.000
   5987526.08049   4662150.78745  23881814.314    23881813.029    23881832.168
       211.000         151.000
   7558591.95149   5886189.78646  23133633.140    23133632.395    23133645.948
       224.000         176.000
   9475265.90949   7377508.60545  24744647.828    24744646.332    24744666.293
       202.000         135.000
  -8704767.10649  -6764905.88146  22518266.224    22518266.670    22518277.466
       230.000         176.000
 01 11 12 17 30 59.9980000  0  8G22G20G27G 1G29G25G11G13
 -13427171.61449 -10442603.18847  20301950.712    20301950.076    20301960.229
       242.000         209.000
  -7493026.45749  -5828387.72647  19982529.441    19982528.880    19982537.355
       235.000         206.000
  -2727784.33649  -2099352.46146  24063458.447    24063458.444    24063474.469
       225.000         166.000
 -12683347.38549  -9871679.50347  20508577.103    20508576.897    20508586.267
       241.000         206.000
   6033528.53149   4697996.50745  23890568.475    23890567.262    23890586.480
       212.000         148.000
   7614705.33249   5929914.18246  23144311.361    23144310.608    23144324.251
       226.000         176.000
   9531053.79749   7420979.03345  24755264.460    24755262.802    24755283.018
       201.000         134.000
  -8804804.68349  -6842857.20846  22499229.762    22499230.184    22499240.931
       230.000         178.000
 01 11 12 17 31 29.9980000  0  8G22G20G27G 1G29G25G11G13
 -13452784.02349 -10462560.90347  20297076.835    20297076.219    20297086.370
       242.000         209.000
  -7487898.19949  -5824391.74347  19983505.353    19983504.807    19983513.288
       235.000         206.000
  -2833795.81549  -2181958.71046  24043285.106    24043285.061    24043301.115
       222.000         164.000
 -12743067.01449  -9918214.27247  20497212.813    20497212.636    20497221.989
       241.000         206.000
   6079695.64249   4733970.56145  23899353.974    23899352.874    23899372.230
       209.000         150.000
   7670898.23449   5973700.56346  23155004.700    23155003.994    23155017.715
       225.000         174.000
   9586726.70349   7464359.90145  24765859.028    24765857.383    24765877.936
       204.000         138.000
  -8904743.15949  -6920731.28446  22480212.014    22480212.471    22480223.286
       226.000         177.000
 01 11 12 17 31 59.9980000  0  8G22G20G27G 1G29G25G11G13
 -13477691.77149 -10481969.53247  20292337.097    20292336.459    20292346.605
       242.000         209.000
  -7482158.69149  -5819919.46347  19984597.591    19984597.039    19984605.543
       236.000         206.000
  -2939615.73549  -2264415.72045  24023148.140    24023148.158    24023164.139
       219.000         162.000
 -12802564.49949  -9964575.94247  20485890.819    20485890.643    20485900.001
       241.000         206.000
   6126030.83049   4770075.65545  23908171.684    23908170.452    23908189.738
       209.000         151.000
   7727172.03149   6017549.98246  23165713.498    23165712.753    23165726.583
       223.000         175.000
   9642285.13049   7507651.56045  24776431.941    24776430.347    24776450.935
       203.000         137.000
  -9004579.37449  -6998525.66946  22461213.762    22461214.245    22461225.088
       230.000         179.000
 01 11 12 17 32 29.9980000  0  7G22G20G27G 1G29G25G13
 -13501897.40449 -10500831.05747  20287730.947    20287730.295    20287740.448
       242.000         210.000
  -7475811.32149  -5814973.52547  19985805.507    19985804.954    19985813.470
       236.000         206.000
  -3045246.29149  -2346725.14445  24003047.269    24003047.292    24003063.290
       221.000         162.000
 -12861841.51849 -10010765.82347  20474610.810    20474610.617    20474619.943
       241.000         206.000
   6172531.31849   4806309.39845  23917020.613    23917019.475    23917039.011
       206.000         149.000
   7783522.82749   6061459.37646  23176436.938    23176436.183    23176450.071
       228.000         175.000
  -9104314.82249  -7076241.54646  22442234.712    22442235.184    22442246.017
       226.000         176.000
 01 11 12 17 32 59.9980000  0  7G22G20G27G 1G29G25G13
 -13525391.17649 -10519137.89047  20283260.243    20283259.601    20283269.758
       243.000         210.000
  -7468846.72849  -5809546.63447  19987130.871    19987130.324    19987138.844
       236.000         207.000
  -3150677.21949  -2428879.00646  23982984.335    23982984.383    23983000.387
       221.000         165.000
 -12920887.47449 -10056775.65147  20463374.745    20463374.552    20463383.878
       241.000         206.000
   6219206.88449   4842679.79445  23925902.964    23925901.837    23925921.208
       210.000         154.000
   7839959.51849   6105435.72446  23187176.746    23187175.958    23187189.921
       221.000         175.000
  -9203939.37949  -7153871.04446  22423276.861    22423277.263    22423288.041
       230.000         176.000
 01 11 12 17 33 29.9980000  0  7G22G20G27G 1G29G25G13
 -13548179.83449 -10536895.28847  20278923.713    20278923.087    20278933.232
       243.000         210.000
  -7461272.47749  -5803644.69047  19988572.255    19988571.694    19988580.232
       237.000         207.000
  -3255914.70249  -2510882.16146  23962958.305    23962958.332    23962974.249
       220.000         166.000
 -12979708.22849 -10102610.00247  20452181.538    20452181.327    20452190.662
       241.000         206.000
   6266051.13149   4879181.31645  23934817.175    23934816.156    23934836.000
       213.000         152.000
   7896474.19449   6149472.81046  23197931.387    23197930.597    23197944.600
       227.000         175.000
  -9303459.04649  -7231418.74346  22404338.742    22404339.235    22404350.020
       227.000         172.000
 01 11 12 17 33 59.9980000  0  7G22G20G27G 1G29G25G13
 -13570263.89249 -10554103.64947  20274721.270    20274720.647    20274730.786
       242.000         210.000
  -7453089.96049  -5797268.76447  19990129.375    19990128.830    19990137.367
       237.000         206.000
  -3360958.98749  -2592734.69645  23942968.968    23942969.015    23942984.945
       218.000         159.000
 -13038303.38049 -10148268.55647  20441031.279    20441031.057    20441040.363
       241.000         206.000
   6313063.15449   4915813.96245  23943763.557    23943762.547    23943782.124
       204.000         151.000
   7953065.34149   6193569.50746  23208700.568    23208699.751    23208713.855
       224.000         175.000
  -9402873.42349  -7308884.50046  22385420.978    22385421.342    22385432.015
       232.000         178.000
 01 11 12 17 34 29.9980000  0  7G22G20G27G 1G29G25G13
 -13591636.77149 -10570757.85447  20270654.180    20270653.541    20270663.686
       243.000         210.000
  -7444292.75849  -5790413.86847  19991803.471    19991802.935    19991811.472
       237.000         207.000
  -3465802.82349  -2674431.10845  23923017.758    23923017.834    23923033.630
       217.000         155.000
 -13096665.32149 -10193745.38647  20429925.372    20429925.164    20429934.443
       241.000         206.000
   6360250.05449   4952582.52645  23952743.240    23952742.196    23952762.095
       214.000         162.000
   8009738.61649   6237730.19246  23219485.342    23219484.569    23219498.758
       225.000         175.000
  -9502175.39949  -7386262.60146  22366524.413    22366524.795    22366535.430
       227.000         176.000
 01 11 12 17 34 59.9980000  0  7G22G20G27G 1G29G25G13
 -13612294.66249 -10586854.92747  20266723.126    20266722.509    20266732.636
       242.000         210.000
  -7434877.86849  -5783077.65547  19993595.131    19993594.574    19993603.127
       236.000         207.000
  -3570441.79849  -2755967.85245  23903105.503    23903105.578    23903121.434
       215.000         156.000
 -13154789.22549 -10239036.73247  20418864.773    20418864.543    20418873.847
       241.000         206.000
   6407615.71649   4989490.63945  23961756.682    23961755.752    23961775.535
       210.000         148.000
   8066496.35049   6281956.69946  23230286.208    23230285.460    23230299.724
       224.000         173.000
  -9601360.05249  -7463549.28846  22347650.174    22347650.547    22347661.171
       230.000         179.000
 01 11 12 17 35 29.9980000  0  7G22G20G27G 1G29G25G13
 -13632250.62449 -10602405.05247  20262925.664    20262925.023    20262935.160
       242.000         210.000
  -7424858.95849  -5775270.77347  19995501.712    19995501.162    19995509.719
       237.000         206.000
  -3674888.47649  -2837354.75645  23883229.951    23883229.984    23883245.821
       219.000         161.000
 -13212687.27449 -10284152.09547  20407847.131    20407846.911    20407856.193
       241.000         206.000
   6455147.04249   5026527.68445  23970801.992    23970801.043    23970820.987
       208.000         160.000
   8123324.75249   6326238.25346  23241100.572    23241099.792    23241114.115
       226.000         173.000
  -9700439.71649  -7540754.15646  22328795.881    22328796.275    22328806.919
       228.000         177.000
 01 11 12 17 35 59.9980000  0  7G22G20G27G 1G29G25G13
 -13651494.44549 -10617400.27747  20259263.717    20259263.061    20259273.204
       242.000         210.000
  -7414226.37049  -5766985.70747  19997525.091    19997524.531    19997533.100
       237.000         206.000
  -3779132.07349  -2918583.39746  23863393.001    23863393.008    23863408.832
       217.000         163.000
 -13270348.16349 -10329082.66447  20396874.616    20396874.416    20396883.689
       241.000         206.000
   6502854.61649   5063702.14345  23979880.569    23979879.670    23979899.594
       220.000         154.000
   8180232.89649   6370581.94046  23251930.077    23251929.274    23251943.650
       228.000         173.000
  -9799403.46449  -7617868.73846  22309963.734    22309964.083    22309974.660
       235.000         180.000
 01 11 12 17 36 29.9980000  0  7G22G20G27G 1G29G25G13
 -13670036.76149 -10631848.87647  20255735.210    20255734.585    20255744.749
       242.000         210.000
  -7402991.50649  -5758231.33347  19999663.057    19999662.498    19999671.093
       237.000         207.000
  -3883182.61649  -2999661.55445  23843592.715    23843592.733    23843608.609
       218.000         160.000
 -13327781.35049 -10373835.80847  20385945.448    20385945.253    20385954.516
       241.000         206.000
   6550728.02249   5101005.77645  23988990.750    23988989.948    23989010.119
       205.000         152.000
   8237209.17549   6414978.71746  23262772.573    23262771.745    23262786.174
       226.000         173.000
  -9898261.01049  -7694900.53446  22291151.692    22291152.071    22291162.620
       228.000         177.000
 01 11 12 17 36 59.9980000  0  7G22G20G27G 1G29G25G13
 -13687882.11549 -10645754.39147  20252339.355    20252338.732    20252348.910
       242.000         210.000
  -7391159.29449  -5749011.49347  20001914.713    20001914.143    20001922.739
       237.000         206.000
  -3987044.01449  -3080592.40545  23823828.432    23823828.456    23823844.255
       218.000         157.000
 -13384990.28349 -10418414.20947  20375058.945    20375058.750    20375068.026
       241.000         206.000
   6598762.91649   5138435.28445  23998131.696    23998130.884    23998151.094
       217.000         149.000
   8294248.46249   6459424.59346  23273627.026    23273626.204    23273640.687
       223.000         172.000
  -9997015.52049  -7771852.10346  22272359.403    22272359.731    22272370.191
       235.000         180.000
 01 11 12 17 37 29.9980000  0  7G22G20G27G 1G29G25G13
 -13705017.06849 -10659106.35147  20249078.703    20249078.085    20249088.268
       242.000         210.000
  -7378716.66549  -5739316.00647  20004282.504    20004281.942    20004290.564
       237.000         206.000
  -4090702.08549  -3161364.81046  23804102.844    23804102.885    23804118.641
       218.000         163.000
 -13441960.20249 -10462806.37147  20364217.927    20364217.737    20364226.993
       241.000         206.000
   6646973.10649   5176001.32645  24007305.801    24007305.167    24007325.597
       203.000         152.000
   8351363.32649   6503929.34446  23284495.805    23284495.026    23284509.601
       224.000         171.000
 -10095653.01449  -7848712.44146  22253589.204    22253589.580    22253600.062
       233.000         178.000
 01 11 12 17 37 59.9980000  0  7G22G20G27G 1G29G25G13
 -13721453.37549 -10671913.91047  20245951.013    20245950.376    20245960.560
       242.000         210.000
  -7365676.16449  -5729154.64847  20006764.091    20006763.511    20006772.144
       237.000         206.000
  -4194167.99649  -3241987.44745  23784413.821    23784413.906    23784429.678
       215.000         161.000
 -13498701.80249 -10507020.62447  20353420.375    20353420.163    20353429.431
       241.000         206.000
   6695346.88749   5213694.88145  24016511.393    24016510.757    24016531.123
       216.000         149.000
   8408541.20549   6548483.20946  23295376.664    23295375.862    23295390.501
       223.000         171.000
 -10194183.89649  -7925489.72946  22234839.380    22234839.783    22234850.190
       228.000         176.000
 01 11 12 17 38 29.9980000  0  7G22G20G27G 1G29G25G13
 -13737186.89449 -10684173.84447  20242957.056    20242956.412    20242966.595
       243.000         210.000
  -7352034.34949  -5718524.73347  20009360.083    20009359.521    20009368.152
       237.000         206.000
  -4297436.96749  -3322456.64146  23764762.231    23764762.398    23764778.112
       216.000         165.000
 -13555209.85449 -10551052.89147  20342667.255    20342667.051    20342676.312
       240.000         206.000
   6743888.90149   5251519.54145  24025748.797    24025748.171    24025768.541
       212.000         149.000
   8465785.29149   6593088.65846  23306270.178    23306269.286    23306284.017
       219.000         170.000
 -10292603.39149  -8002180.25046  22216110.827    22216111.166    22216121.503
       230.000         179.000
 01 11 12 17 38 59.9980000  0  7G22G20G27G 1G29G25G13
 -13752202.54549 -10695874.40547  20240099.731    20240099.070    20240109.234
       243.000         210.000
  -7337776.48849  -5707414.77947  20012073.327    20012072.752    20012081.374
       238.000         206.000
  -4400493.09549  -3402759.97946  23745151.276    23745151.375    23745167.095
       218.000         166.000
 -13611467.81649 -10594890.28147  20331961.739    20331961.535    20331970.784
       241.000         206.000
   6792614.46249   5289487.21245  24035021.376    24035020.686    24035041.097
       211.000         153.000
   8523110.21849   6637757.07746  23317179.006    23317178.115    23317192.900
       223.000         170.000
 -10390895.01749  -8078771.08046  22197406.501    22197406.859    22197417.207
       231.000         182.000
 01 11 12 17 39 29.9980000  0  7G22G20G27G 1G29G25G13
 -13766522.32649 -10707032.71747  20237374.810    20237374.143    20237384.302
       243.000         210.000
  -7322925.17949  -5695842.39647  20014899.510    20014898.914    20014907.540
       238.000         206.000
  -4503357.64949  -3482914.03846  23725576.710    23725576.841    23725592.521
       219.000         164.000
 -13667496.42949 -10638548.96047  20321299.884    20321299.659    20321308.900
       240.000         206.000
   6841502.10249   5327581.19945  24044324.408    24044323.825    24044344.327
       212.000         144.000
   8580493.25249   6682470.79646  23328098.924    23328097.978    23328112.846
       222.000         171.000
 -10489079.58649  -8155278.50446  22178722.635    22178722.959    22178733.329
       230.000         179.000
 01 11 12 17 39 59.9980000  0  7G22G20G27G 1G29G25G13
 -13780138.43749 -10717642.71147  20234783.799    20234783.114    20234793.273
       242.000         210.000
  -7307473.26749  -5683802.01447  20017839.963    20017839.361    20017847.990
       238.000         206.000
  -4606021.98149  -3562912.11546  23706040.220    23706040.381    23706055.953
       217.000         166.000
 -13723286.36749 -10682021.65947  20310683.409    20310683.202    20310692.446
       240.000         206.000
   6890559.79749   5365807.68045  24053660.114    24053659.488    24053680.087
       209.000         153.000
   8637941.63649   6727235.40746  23339031.180    23339030.294    23339045.213
       223.000         170.000
 -10587148.09049  -8231695.53146  22160060.728    22160061.112    22160071.419
       232.000         177.000
 01 11 12 17 40 29.9980000  0  7G22G20G27G 1G29G25G13
 -13793039.40549 -10727695.44247  20232328.849    20232328.173    20232338.343
       242.000         210.000
  -7291409.56849  -5671284.91047  20020896.844    20020896.241    20020904.864
       238.000         205.000
  -4708473.83549  -3642744.58046  23686544.202    23686544.358    23686559.959
       220.000         170.000
 -13778824.76349 -10725298.36447  20300114.835    20300114.612    20300123.856
       240.000         206.000
   6939799.76849   5404176.11945  24063030.182    24063029.633    24063050.393
       208.000         137.000
   8695466.03549   6772059.26446  23349977.987    23349977.076    23349992.060
       221.000         171.000
 -10685087.76949  -8308012.12946  22141423.428    22141423.816    22141434.074
       232.000         181.000
 01 11 12 17 40 59.9980000  0  7G22G20G27G 1G29G25G13
 -13805230.21549 -10737194.79747  20230009.064    20230008.382    20230018.533
       242.000         210.000
  -7274739.96949  -5658295.67747  20024068.993    20024068.407    20024077.035
       238.000         205.000
  -4810717.50649  -3722414.85646  23667087.787    23667087.955    23667103.466
       220.000         168.000
 -13834115.27449 -10768381.90547  20289593.416    20289593.180    20289602.444
       240.000         206.000
   6989217.01849   5442682.85845  24072434.374    24072433.722    24072454.458
       212.000         150.000
   8753060.74249   6816937.88946  23360938.123    23360937.236    23360952.305
       223.000         170.000
 -10782902.55449  -8384231.41046  22122809.864    22122810.253    22122820.525
       233.000         181.000
 01 11 12 17 41 29.9980000  0  7G22G20G27G 1G29G25G13
 -13816716.79249 -10746145.40147  20227823.275    20227822.575    20227832.739
       242.000         210.000
  -7257470.56249  -5644839.06247  20027355.290    20027354.718    20027363.347
       238.000         206.000
  -4912758.03049  -3801926.82346  23647670.000    23647670.174    23647685.697
       219.000         171.000
 -13889162.34049 -10811275.75547  20279118.318    20279118.080    20279127.353
       241.000         206.000
   7038806.65549   5481323.74445  24081871.093    24081870.489    24081891.410
       205.000         141.000
   8810719.18149   6861866.17846  23371910.426    23371909.514    23371924.702
       222.000         170.000
 -10880596.85349  -8460356.81446  22104219.169    22104219.587    22104229.859
       231.000         180.000
 01 11 12 17 41 59.9980000  0  7G22G20G27G 1G29G25G13
 -13827494.00149 -10754543.24347  20225772.437    20225771.758    20225781.938
       242.000         210.000
  -7239596.77549  -5630911.50447  20030756.603    20030756.038    20030764.675
       238.000         205.000
  -5014589.26849  -3881275.70746  23628292.025    23628292.239    23628307.711
       220.000         168.000
 -13943959.31449 -10853974.72747  20268690.811    20268690.591    20268699.870
       240.000         207.000
   7088574.06749   5520103.26145  24091341.767    24091341.076    24091362.078
       204.000         134.000
   8868446.23149   6906847.90046  23382895.711    23382894.890    23382910.125
       224.000         171.000
 -10978164.40949  -8536383.44546  22085652.651    22085653.088    22085663.360
       232.000         180.000
 01 11 12 17 42 29.9980000  0  7G22G20G27G 1G29G25G13
 -13837574.86349 -10762398.47747  20223854.113    20223853.447    20223863.640
       242.000         209.000
  -7221132.23049  -5616523.61347  20034270.350    20034269.768    20034278.415
       238.000         205.000
  -5116223.30849  -3960470.92646  23608951.638    23608951.819    23608967.280
       222.000         174.000
 -13998517.88049 -10896487.92147  20258308.674    20258308.454    20258317.749
       240.000         206.000
   7138506.73649   5559011.51645  24100843.829    24100843.187    24100864.209
       200.000         139.000
   8926228.55049   6951872.72646  23393891.622    23393890.779    23393906.101
       220.000         170.000
 -11075616.56349  -8612320.19046  22067108.091    22067108.532    22067118.749
       234.000         180.000
 01 11 12 17 42 59.9980000  0  7G22G20G27G 1G29G25G13
 -13846961.77449 -10769712.96647  20222067.895    20222067.203    20222077.396
       242.000         210.000
  -7202079.71649  -5601677.57047  20037895.955    20037895.393    20037904.058
       238.000         205.000
  -5217661.63349  -4039513.62246  23589648.494    23589648.665    23589664.148
       224.000         172.000
 -14052838.89749 -10938816.01147  20247971.748    20247971.532    20247980.831
       240.000         206.000
   7188602.82149   5598047.04845  24110377.080    24110376.357    24110397.454
       206.000         140.000
   8984063.32749   6996938.38446  23404897.490    23404896.639    23404912.081
       221.000         170.000
 -11172954.74849  -8688168.09846  22048585.238    22048585.676    22048595.952
       232.000         181.000
 01 11 12 17 43 29.9980000  0  7G22G20G27G 1G29G25G13
 -13855648.64049 -10776481.96447  20220414.851    20220414.162    20220424.370
       242.000         210.000
  -7182433.75649  -5586369.09847  20041634.497    20041633.942    20041642.617
       238.000         205.000
  -5318897.36749  -4118398.46746  23570383.857    23570384.055    23570399.458
       221.000         171.000
 -14106914.58549 -10980952.93847  20237681.505    20237681.287    20237690.593
       240.000         206.000
   7238868.80849   5637215.08545  24119942.658    24119941.942    24119962.955
       201.000         133.000
   9041956.35749   7042049.46346  23415914.458    23415913.577    23415929.116
       222.000         171.000
 -11270171.28349  -8763921.20546  22030085.510    22030085.940    22030096.236
       234.000         181.000
 01 11 12 17 43 59.9980000  0  7G22G20G27G 1G29G25G13
 -13863634.74249 -10782704.92047  20218895.130    20218894.483    20218904.692
       242.000         209.000
  -7162193.91549  -5570597.86447  20045486.060    20045485.506    20045494.189
       238.000         205.000
  -5419928.50849  -4197123.87246  23551158.169    23551158.355    23551173.782
       222.000         173.000
 -14160742.45849 -11022896.76047  20227438.398    20227438.184    20227447.526
       240.000         206.000
   7289306.32149   5676516.68645  24129540.665    24129540.081    24129561.346
       205.000         136.000
   9099908.19049   7087206.35246  23426942.660    23426941.711    23426957.380
       224.000         170.000
 -11367263.48949  -8839577.47646  22011609.476    22011609.892    22011620.167
       235.000         182.000
 01 11 12 17 44 29.9980000  0  7G22G20G27G 1G29G25G13
 -13870911.38649 -10788375.05647  20217510.433    20217509.799    20217520.012
       242.000         210.000
  -7141352.09349  -5554357.55647  20049452.176    20049451.628    20049460.315
       238.000         205.000
  -5520745.53449  -4275682.47046  23531973.280    23531973.449    23531988.761
       224.000         172.000
 -14214312.24249 -11064639.46947  20217244.431    20217244.201    20217253.561
       240.000         206.000
   7339924.65849   5715959.18445  24139173.360    24139172.682    24139194.020
       206.000         137.000
   9157927.00249   7132415.42246  23437983.621    23437982.623    23437998.396
       224.000         170.000
 -11464221.39349  -8915129.05846  21993158.995    21993159.403    21993169.691
       229.000         182.000
 01 11 12 17 44 59.9980000  0  7G22G20G27G 1G29G25G13
 -13877499.95649 -10793509.03847  20216256.718    20216256.065    20216266.273
       242.000         209.000
  -7119930.03349  -5537665.11047  20053528.713    20053528.158    20053536.860
       239.000         205.000
  -5621368.80549  -4354090.02346  23512825.207    23512825.374    23512840.743
       224.000         174.000
 -14267643.70549 -11106196.47047  20207095.826    20207095.588    20207104.951
       240.000         206.000
   7390703.05849   5755526.42745  24148836.461    24148835.716    24148857.091
       204.000         133.000
   9215991.00049   7177659.71246  23449033.153    23449032.139    23449047.987
       222.000         170.000
 -11561065.12449  -8990591.66846  21974730.271    21974730.639    21974740.941
       232.000         184.000
 01 11 12 17 45 29.9980000  0  7G22G20G27G 1G29G25G13
 -13883391.68849 -10798100.04147  20215135.602    20215134.928    20215145.141
       242.000         209.000
  -7097919.47949  -5520514.10047  20057717.246    20057716.682    20057725.395
       239.000         205.000
  -5721788.51349  -4432339.00346  23493715.858    23493716.014    23493731.365
       223.000         172.000
 -14320726.22049 -11147559.48347  20196994.582    20196994.341    20197003.709
       240.000         205.000
   7441650.66049   5795225.51645  24158531.907    24158531.055    24158552.367
       211.000         138.000
   9274108.50849   7222945.70246  23460092.892    23460091.807    23460107.760
       220.000         169.000
 -11657784.15049  -9065957.10246  21956325.198    21956325.612    21956335.875
       234.000         183.000
 01 11 12 17 45 59.9980000  0  7G22G20G27G 1G29G25G13
 -13888582.94449 -10802145.22447  20214147.731    20214147.080    20214157.302
       242.000         209.000
  -7075317.24349  -5502902.03347  20062018.391    20062017.795    20062026.531
       238.000         205.000
  -5821999.89349  -4510425.65746  23474646.267    23474646.383    23474661.660
       224.000         174.000
 -14373554.19049 -11188724.14647  20186941.776    20186941.532    20186950.887
       240.000         205.000
   7492772.25049   5835060.24345  24168260.283    24168259.547    24168280.913
       199.000         134.000
   9332283.39949   7268276.38746  23471163.529    23471162.389    23471178.447
       219.000         169.000
 -11754372.78049  -9141220.93846  21937945.037    21937945.385    21937955.691
       234.000         184.000
 01 11 12 17 46 29.9980000  0  7G22G20G27G 1G29G25G13
 -13893083.31449 -10805652.06147  20213291.362    20213290.708    20213300.938
       242.000         209.000
  -7052133.29549  -5484836.69147  20066430.194    20066429.611    20066438.355
       239.000         205.000
  -5922011.61249  -4588356.73546  23455614.536    23455614.686    23455629.880
       222.000         168.000
 -14426135.64749 -11229696.72047  20176935.875    20176935.613    20176944.991
       240.000         205.000
   7544058.66049   5875023.30345  24178019.978    24178019.190    24178040.800
       208.000         139.000
   9390505.75649   7313644.05446  23482243.141    23482242.001    23482258.139
       220.000         169.000
 -11850839.46149  -9216389.72846  21919587.979    21919588.353    21919598.679
       233.000         184.000
 01 11 12 17 46 59.9980000  0  7G22G20G27G 1G29G25G13
 -13896884.05749 -10808613.74847  20212568.159    20212567.474    20212577.702
       242.000         209.000
  -7028359.40349  -5466311.64947  20070954.245    20070953.676    20070962.458
       239.000         205.000
  -6021813.72949  -4666124.46346  23436622.771    23436622.870    23436638.073
       221.000         171.000
 -14478460.07149 -11270469.00647  20166978.898    20166978.638    20166987.996
       240.000         205.000
   7595519.45849   5915122.29245  24187812.888    24187812.118    24187833.789
       209.000         140.000
   9448784.54549   7359055.69046  23493333.512    23493332.395    23493348.592
       220.000         168.000
 -11947173.58649  -9291455.25446  21901256.207    21901256.554    21901266.845
       233.000         182.000
 01 11 12 17 47 29.9980000  0  7G22G20G27G 1G29G25G13
 -13899998.40449 -10811040.58347  20211975.539    20211974.863    20211985.089
       242.000         209.000
  -7004009.10949  -5447337.46647  20075587.991    20075587.415    20075596.249
       238.000         205.000
  -6121418.21149  -4743738.23546  23417668.577    23417668.696    23417683.792
       221.000         168.000
 -14530538.73749 -11311049.79347  20157068.689    20157068.423    20157077.770
       240.000         206.000
   7647142.27449   5955347.56845  24197636.653    24197635.884    24197657.567
       209.000         140.000
   9507106.09149   7404500.64746  23504431.966    23504430.916    23504447.206
       219.000         169.000
 -12043386.46149  -9366426.26546  21882947.372    21882947.815    21882958.166
       232.000         183.000
 01 11 12 17 47 59.9980000  0  7G22G20G27G 1G29G25G13
 -13902418.45049 -10812926.40847  20211515.063    20211514.366    20211524.612
       241.000         209.000
  -6979075.03149  -5427908.38347  20080332.814    20080332.255    20080341.120
       238.000         205.000
  -6220816.30949  -4821191.16646  23398753.654    23398753.732    23398768.823
       220.000         169.000
 -14582361.92449 -11351431.50547  20147207.069    20147206.814    20147216.157
       240.000         206.000
   7698935.69349   5995705.73245  24207492.854    24207492.061    24207513.937
       209.000         144.000
   9565478.41949   7449985.21346  23515540.229    23515539.127    23515555.463
       219.000         168.000
 -12139468.55449  -9441295.39146  21864663.608    21864663.984    21864674.305
       235.000         185.000
 01 11 12 17 48 29.9980000  0  7G22G20G27G 1G29G25G13
 -13904154.24149 -10814279.04847  20211184.744    20211184.089    20211194.344
       242.000         209.000
  -6953567.76749  -5408032.66247  20085186.705    20085186.172    20085195.069
       238.000         205.000
  -6320016.79249  -4898490.14446  23379876.271    23379876.395    23379891.379
       217.000         164.000
 -14633937.68749 -11391620.42047  20137392.549    20137392.291    20137401.623
       239.000         206.000
   7750890.58549   6036189.73645  24217379.822    24217379.035    24217400.980
       212.000         148.000
   9623891.42649   7495501.40946  23526656.142    23526655.067    23526671.498
       224.000         167.000
 -12235428.26849  -9516069.17546  21846403.057    21846403.433    21846413.722
       231.000         184.000
 01 11 12 17 48 59.9980000  0  7G22G20G27G 1G29G25G13
 -13905207.86649 -10815100.12847  20210984.311    20210983.628    20210993.894
       241.000         209.000
  -6927489.78049  -5387712.22347  20090149.228    20090148.684    20090157.623
       238.000         205.000
  -6419020.61949  -4975635.84346  23361036.385    23361036.524    23361051.519
       222.000         170.000
 -14685266.13049 -11431616.61947  20127625.075    20127624.833    20127634.158
       240.000         206.000
   7803005.66549   6076798.58445  24227297.338    24227296.491    24227318.435
       211.000         146.000
   9682343.04649   7541047.72946  23537779.375    23537778.359    23537794.849
       218.000         166.000
 -12331265.67649  -9590747.60146  21828165.704    21828166.145    21828176.469
       232.000         183.000
 01 11 12 17 49 29.9970000  0  7G22G20G27G 1G29G25G13
 -13905572.86649 -10815384.61147  20210914.891    20210914.209    20210924.486
       241.000         209.000
  -6900835.70249  -5366942.88047  20095221.394    20095220.837    20095229.798
       239.000         205.000
  -6517816.64849  -5052619.66245  23342235.996    23342236.154    23342251.090
       218.000         162.000
 -14736336.97349 -11471412.09147  20117906.636    20117906.401    20117915.715
       240.000         206.000
   7855286.43149   6117536.58845  24237246.304    24237245.474    24237267.375
       212.000         146.000
   9740837.80949   7586627.64146  23548910.920    23548909.852    23548926.438
       221.000         165.000
 -12426969.16849  -9665321.69946  21809953.916    21809954.356    21809964.652
       237.000         184.000
 01 11 12 17 49 59.9970000  0  7G22G20G27G 1G29G25G13
 -13905233.94849 -10815120.58347  20210979.441    20210978.738    20210989.030
       242.000         209.000
  -6873588.97549  -5345711.73447  20100406.327    20100405.763    20100414.753
       239.000         205.000
  -6616395.01249  -5129433.84545  23323476.932    23323477.173    23323492.125
       217.000         161.000
 -14787136.47549 -11510996.13147  20108239.832    20108239.596    20108248.905
       240.000         206.000
   7907752.71249   6158419.13045  24247230.548    24247229.684    24247251.761
       212.000         151.000
   9799395.31349   7632256.47246  23560054.281    23560053.266    23560069.923
       221.000         164.000
 -12522528.05549  -9739783.13546  21791769.670    21791770.085    21791780.351
       233.000         185.000
 01 11 12 17 50 29.9970000  0  7G22G20G27G 1G29G25G13
 -13904208.04249 -10814321.24247  20211174.728    20211174.009    20211184.306
       242.000         209.000
  -6845767.72749  -5324032.91647  20105700.607    20105700.026    20105709.036
       239.000         205.000
  -6714767.99649  -5206088.08146  23304757.201    23304757.324    23304772.085
       221.000         166.000
 -14837677.86749 -11550379.04047  20098622.153    20098621.903    20098631.217
       240.000         206.000
   7960386.53949   6199432.19645  24257246.685    24257245.865    24257267.987
       211.000         151.000
   9857996.38449   7677919.24146  23571206.027    23571205.011    23571221.738
       221.000         164.000
 -12617954.10049  -9814141.06746  21773610.699    21773611.076    21773621.328
       233.000         185.000
 01 11 12 17 50 59.9970000  0  7G22G20G27G 1G29G25G13
 -13902499.75649 -10812990.16947  20211499.853    20211499.123    20211509.430
       242.000         209.000
  -6817377.05549  -5301910.38847  20111103.212    20111102.648    20111111.674
       239.000         205.000
  -6812938.93549  -5282584.78446  23286075.793    23286075.920    23286090.728
       222.000         166.000
 -14887963.64449 -11589562.76747  20089053.107    20089052.864    20089062.158
       240.000         206.000
   8013184.31749   6240573.02345  24267293.982    24267293.166    24267315.408
       209.000         149.000
   9916636.69049   7723612.57646  23582365.183    23582364.174    23582381.021
       220.000         163.000
 -12713249.80549  -9888397.38846  21755476.417    21755476.871    21755487.120
       233.000         184.000
 01 11 12 17 51 29.9970000  0  7G22G20G27G 1G29G25G13
 -13900102.94549 -10811122.57947  20211956.016    20211955.262    20211965.597
       242.000         209.000
  -6788411.12649  -5279339.60847  20116615.267    20116614.730    20116623.790
       239.000         205.000
  -6910900.49649  -5358918.37046  23267434.136    23267434.287    23267449.095
       219.000         164.000
 -14937985.47149 -11628540.81347  20079534.273    20079534.047    20079543.320
       240.000         206.000
   8066153.06649   6281847.10045  24277373.812    24277373.032    24277395.363
       211.000         150.000
   9975322.50749   7769341.40446  23593533.126    23593532.073    23593548.954
       220.000         164.000
 -12808406.89049  -9962545.74146  21737368.617    21737369.029    21737379.279
       232.000         184.000
 01 11 12 17 51 59.9970000  0  7G22G20G27G 1G29G25G13
 -13897017.05549 -10808718.04147  20212543.262    20212542.526    20212552.889
       242.000         209.000
  -6758869.73249  -5256320.41847  20122236.869    20122236.326    20122245.413
       239.000         205.000
  -7008650.50949  -5435087.12346  23248832.882    23248833.035    23248847.813
       221.000         163.000
 -14987740.53449 -11667310.99947  20070066.216    20070065.985    20070075.241
       240.000         205.000
   8119294.46549   6323255.76945  24287486.494    24287485.726    24287508.189
       211.000         151.000
  10034054.86149   7815106.45445  23604709.756    23604708.777    23604725.772
       219.000         161.000
 -12903423.04249 -10036584.25746  21719287.592    21719288.022    21719298.261
       234.000         185.000
 01 11 12 17 52 29.9970000  0  7G22G20G27G 1G29G25G13
 -13893251.69049 -10805784.04247  20213259.826    20213259.093    20213269.479
       242.000         209.000
  -6728762.75049  -5232860.51147  20127966.110    20127965.553    20127974.663
       240.000         205.000
  -7106197.42149  -5511097.64046  23230270.310    23230270.452    23230285.129
       222.000         170.000
 -15037236.41349 -11705879.21947  20060647.477    20060647.241    20060656.492
       240.000         205.000
   8172599.82649   6364792.15845  24297630.411    24297629.644    24297652.224
       211.000         151.000
  10092824.24549   7860900.38845  23615893.586    23615892.542    23615909.554
       217.000         160.000
 -12998305.58049 -10110518.67146  21701232.073    21701232.453    21701242.654
       235.000         185.000
 01 11 12 17 52 59.9970000  0  8G22G20G27G 1G29G25G 3G13
 -13888806.19549 -10802320.06647  20214105.827    20214105.093    20214115.483
       242.000         208.000
  -6698089.94549  -5208959.70247  20133803.026    20133802.446    20133811.594
       239.000         205.000
  -7203539.23649  -5586948.31846  23211746.683    23211746.855    23211761.476
       223.000         167.000
 -15086470.11549 -11744243.14547  20051278.626    20051278.399    20051287.616
       240.000         206.000
   8226070.89449   6406457.67345  24307805.940    24307805.083    24307827.750
       207.000         151.000
  10151631.93649   7906724.16245  23627084.610    23627083.549    23627100.721
       217.000         159.000
  -1889468.62859  -1213582.20955  24520397.355    24520396.472    24520419.663
       205.000         142.000
 -13093051.89549 -10184346.91446  21683202.406    21683202.799    21683212.995
       230.000         185.000
 01 11 12 17 53 29.9970000  0  8G22G20G27G 1G29G25G 3G13
 -13883681.07049 -10798326.51147  20215081.150    20215080.418    20215090.820
       242.000         208.000
  -6666852.24049  -5184618.71647  20139747.422    20139746.840    20139756.012
       239.000         205.000
  -7300675.09949  -5662638.51346  23193262.350    23193262.471    23193277.060
       223.000         169.000
 -15135439.99849 -11782401.50447  20041959.968    20041959.747    20041968.959
       240.000         206.000
   8279707.95249   6448252.55645  24318012.870    24318012.112    24318034.806
       202.000         147.000
  10210477.46549   7952577.40545  23638282.834    23638281.782    23638299.069
       218.000         160.000
  -1986750.48249  -1289386.44445  24501885.567    24501884.569    24501907.859
       207.000         145.000
 -13187660.08349 -10258067.52946  21665199.009    21665199.395    21665209.578
       233.000         185.000
 01 11 12 17 53 59.9970000  0  8G22G20G27G 1G29G25G 3G13
 -13877868.91149 -10793797.60447  20216187.249    20216186.486    20216196.889
       242.000         208.000
  -6635042.37349  -5159831.88547  20145800.705    20145800.118    20145809.320
       240.000         205.000
  -7397596.18349  -5738161.41546  23174818.814    23174818.967    23174833.425
       222.000         171.000
 -15184136.30249 -11820346.68047  20032693.390    20032693.158    20032702.370
       240.000         206.000
   8333519.75049   6490183.58145  24328253.101    24328252.341    24328275.222
       207.000         148.000
  10269368.83449   7998466.38345  23649489.817    23649488.751    23649506.113
       214.000         159.000
  -2083996.84849  -1365162.94545  24483380.474    24483379.475    24483402.733
       210.000         144.000
 -13282120.51149 -10331673.03746  21647223.818    21647224.161    21647234.299
       234.000         185.000
 01 11 12 17 54 29.9970000  0  7G22G20G27G 1G25G 3G13
 -13871392.00749 -10788750.71547  20217419.780    20217419.046    20217429.453
       241.000         208.000
  -6602683.12349  -5134616.96347  20151958.541    20151957.948    20151967.164
       240.000         206.000
  -7494323.38049  -5813533.14946  23156412.135    23156412.291    23156426.805
       225.000         172.000
 -15232579.12149 -11858094.34547  20023475.054    20023474.808    20023484.004
       240.000         206.000
  10328284.16949   8044374.01445  23660701.257    23660700.240    23660717.733
       217.000         160.000
  -2181226.37749  -1440926.25845  24464878.533    24464877.528    24464900.774
       209.000         142.000
 -13376453.31849 -10405179.07646  21629272.853    21629273.177    21629283.305
       233.000         184.000
 01 11 12 17 54 59.9970000  0  7G22G20G27G 1G25G 3G13
 -13864237.66249 -10783175.95647  20218781.248    20218780.507    20218790.926
       241.000         208.000
  -6569762.15849  -5108964.34547  20158223.264    20158222.660    20158231.898
       240.000         206.000
  -7590842.40149  -5888742.70646  23138045.200    23138045.325    23138059.762
       228.000         177.000
 -15280753.49249 -11895632.83147  20014307.820    20014307.562    20014316.740
       240.000         206.000
  10387236.51249   8090310.50445  23671919.815    23671918.791    23671936.429
       219.000         160.000
  -2278422.20949  -1516663.19445  24446382.874    24446381.968    24446405.225
       207.000         140.000
 -13470643.56149 -10478574.02346  21611348.982    21611349.336    21611359.439
       231.000         184.000
 01 11 12 17 55 29.9970000  0  7G22G20G27G 1G25G 3G13
 -13856410.49249 -10777076.92047  20220270.762    20220270.012    20220280.432
       241.000         208.000
  -6536284.39749  -5082877.85847  20164593.939    20164593.329    20164602.591
       240.000         206.000
  -7687156.40149  -5963792.54446  23119717.301    23119717.333    23119731.700
       227.000         174.000
 -15328661.55749 -11932963.80947  20005191.225    20005190.968    20005200.157
       240.000         206.000
  10446221.56549   8136272.47645  23683144.619    23683143.555    23683161.356
       215.000         159.000
  -2375584.76549  -1592374.10545  24427893.464    24427892.609    24427915.948
       206.000         142.000
 -13564693.44349 -10551859.59746  21593451.857    21593452.213    21593462.286
       233.000         184.000
 01 11 12 17 55 59.9970000  0  7G22G20G27G 1G25G 3G13
 -13847907.09449 -10770450.96147  20221888.914    20221888.198    20221898.614
       241.000         208.000
  -6502246.68049  -5056355.04747  20171071.149    20171070.552    20171079.852
       240.000         206.000
  -7783260.52649  -6038678.80746  23101429.227    23101429.261    23101443.676
       224.000         175.000
 -15376297.31849 -11970082.59747  19996126.438    19996126.189    19996135.384
       240.000         206.000
  10505243.59049   8182263.26445  23694376.322    23694375.319    23694393.278
       215.000         159.000
  -2472706.39249  -1668053.03945  24409411.888    24409411.095    24409434.423
       211.000         148.000
 -13658597.22749 -10625031.33446  21575582.496    21575582.867    21575592.941
       232.000         184.000
 01 11 12 17 56 29.9970000  0  7G22G20G27G 1G25G 3G13
 -13838736.70249 -10763305.26547  20223634.025    20223633.304    20223643.734
       241.000         207.000
  -6467658.39849  -5029403.22547  20177653.119    20177652.543    20177661.877
       240.000         206.000
  -7879162.57449  -6113407.63146  23083179.688    23083179.689    23083194.044
       226.000         181.000
 -15423667.66849 -12006994.57247  19987112.163    19987111.925    19987121.142
       240.000         206.000
  10564293.85249   8228276.04645  23705613.462    23705612.464    23705630.572
       218.000         160.000
  -2569792.10349  -1743703.96845  24390937.075    24390936.357    24390959.712
       209.000         147.000
 -13752361.59749 -10698094.40646  21557739.595    21557740.050    21557750.116
       233.000         184.000
 01 11 12 17 56 59.9970000  0  7G22G20G27G 1G25G 3G13
 -13828902.27049 -10755642.13847  20225505.532    20225504.791    20225515.223
       241.000         207.000
  -6432523.06549  -5002025.12647  20184339.219    20184338.637    20184348.004
       240.000         206.000
  -7974863.94549  -6187980.07446  23064968.295    23064968.285    23064982.609
       226.000         179.000
 -15470773.13049 -12043700.14447  19978148.300    19978148.068    19978157.297
       240.000         207.000
  10623369.72249   8274308.77945  23716855.491    23716854.518    23716872.760
       216.000         159.000
  -2666841.23649  -1819326.34645  24372469.190    24372468.560    24372491.916
       211.000         144.000
 -13845987.57349 -10771049.66846  21539923.144    21539923.592    21539933.644
       233.000         184.000
 01 11 12 17 57 29.9970000  0  7G22G20G27G 1G25G 3G13
 -13818399.41549 -10747458.16947  20227504.195    20227503.460    20227513.899
       242.000         207.000
  -6396836.48849  -4974217.49547  20191130.212    20191129.626    20191139.025
       240.000         206.000
  -8070358.54249  -6262391.37246  23046796.128    23046796.181    23046810.555
       228.000         179.000
 -15517606.72449 -12080193.87147  19969236.194    19969235.949    19969245.175
       240.000         207.000
  10682476.38749   8320365.50545  23728103.432    23728102.442    23728120.739
       216.000         161.000
  -2763844.79549  -1894913.23445  24354009.920    24354009.369    24354032.824
       209.000         139.000
 -13939467.87549 -10843891.41946  21522134.416    21522134.832    21522144.899
       234.000         186.000
 01 11 12 17 57 59.9970000  0  7G22G20G27G 1G25G 3G13
 -13807243.64949 -10738765.43747  20229627.112    20229626.375    20229636.833
       241.000         207.000
  -6360614.33449  -4945992.53147  20198023.142    20198022.542    20198031.967
       240.000         207.000
  -8165660.29249  -6336652.43646  23028660.753    23028660.799    23028675.144
       228.000         183.000
 -15564181.64749 -12116486.04147  19960373.296    19960373.060    19960382.283
       240.000         207.000
  10741599.08849   8366434.71846  23739354.412    23739353.428    23739371.792
       218.000         163.000
  -2860813.98349  -1970473.31845  24335557.106    24335556.685    24335580.178
       205.000         136.000
 -14032815.74249 -10916629.94946  21504370.810    21504371.262    21504381.343
       233.000         185.000
 01 11 12 17 58 29.9970000  0  7G22G20G27G 1G25G 3G13
 -13795409.90049 -10729544.40847  20231879.046    20231878.313    20231888.783
       241.000         207.000
  -6323831.97649  -4917331.04247  20205022.678    20205022.065    20205031.512
       241.000         206.000
  -8260742.47849  -6410742.38646  23010567.181    23010567.235    23010581.562
       228.000         182.000
 -15610470.23749 -12152555.08947  19951564.891    19951564.647    19951573.892
       240.000         207.000
  10800763.31449   8412536.29046  23750613.366    23750612.341    23750630.775
       216.000         163.000
  -2957719.51649  -2045983.76745  24317116.392    24317116.123    24317139.548
       208.000         139.000
 -14126003.54849 -10989243.77346  21486637.720    21486638.165    21486648.247
       235.000         186.000
 01 11 12 17 58 59.9970000  0  7G22G20G27G 1G25G 3G13
 -13782931.61349 -10719821.14847  20234253.607    20234252.890    20234263.384
       241.000         206.000
  -6286522.86849  -4888259.09947  20212122.434    20212121.818    20212131.281
       241.000         206.000
  -8355636.88949  -6484685.99646  22992509.365    22992509.365    22992523.757
       226.000         182.000
 -15656503.30149 -12188425.02647  19942805.098    19942804.859    19942814.118
       240.000         207.000
  10859936.99549   8458645.21646  23761874.055    23761873.048    23761891.571
       217.000         163.000
  -3054590.66849  -2121467.45745  24298682.252    24298682.053    24298705.517
       211.000         144.000
 -14219062.32649 -11061757.07146  21468929.235    21468929.644    21468939.700
       234.000         187.000
 01 11 12 17 59 29.9970000  0  7G22G20G27G 1G25G 3G13
 -13769775.55049 -10709569.74647  20236757.170    20236756.463    20236766.954
       241.000         207.000
  -6248654.24449  -4858751.17147  20219328.672    20219328.051    20219337.519
       241.000         206.000
  -8450308.86349  -6558456.31746  22974493.868    22974493.862    22974508.228
       227.000         184.000
 -15702245.01549 -12224067.93447  19934100.743    19934100.517    19934109.790
       240.000         208.000
  10919153.25049   8504787.33046  23773142.893    23773141.882    23773160.465
       219.000         163.000
  -3151389.78749  -2196894.98345  24280261.813    24280261.705    24280285.128
       208.000         144.000
 -14311956.29549 -11134141.93246  21451252.025    21451252.444    21451262.530
       235.000         187.000
 01 11 12 17 59 59.9970000  0  7G22G20G27G 1G25G 3G13
 -13755953.64249 -10698799.50547  20239387.443    20239386.733    20239397.229
       240.000         206.000
  -6210238.27949  -4828816.74147  20226639.059    20226638.432    20226647.922
       241.000         206.000
  -8544768.58249  -6632061.22346  22956518.707    22956518.712    22956533.062
       223.000         181.000
 -15747704.72449 -12259491.09447  19925450.042    19925449.832    19925459.123
       240.000         207.000
  10978401.55949   8550954.41545  23784417.729    23784416.789    23784435.451
       219.000         162.000
  -3248124.50949  -2272272.34345  24261853.568    24261853.514    24261876.899
       204.000         134.000
 -14404694.52349 -11206405.43747  21433604.482    21433604.917    21433615.004
       238.000         189.000
 01 11 12 18  0 29.9970000  0  7G22G20G27G 1G25G 3G13
 -13741471.63049 -10687514.89847  20242143.315    20242142.621    20242153.123
       240.000         206.000
  -6171280.86249  -4798460.40047  20234052.489    20234051.856    20234061.351
       241.000         206.000
  -8639020.21449  -6705503.97346  22938583.186    22938583.170    22938597.554
       227.000         182.000
 -15792885.57549 -12294696.96647  19916852.430    19916852.214    19916861.526
       240.000         208.000
  11037676.79049   8597142.48246  23795697.813    23795696.837    23795715.568
       217.000         163.000
  -3344795.76249  -2347600.33344  24243457.356    24243457.479    24243480.778
       205.000         123.000
 -14497280.22449 -11278550.08147  21415985.970    21415986.399    21415996.516
       237.000         189.000
 01 11 12 18  0 59.9970000  0  7G22G20G27G 1G25G 3G13
 -13726331.33749 -10675717.34647  20245024.502    20245023.780    20245034.298
       242.000         206.000
  -6131784.09849  -4767683.79347  20241568.536    20241567.912    20241577.424
       241.000         206.000
  -8733063.82449  -6778784.62746  22920687.220    22920687.217    22920701.617
       227.000         183.000
 -15837786.66749 -12329684.84247  19908308.060    19908307.836    19908317.155
       241.000         207.000
  11096977.94049   8643350.72746  23806982.752    23806981.794    23807000.609
       218.000         165.000
  -3441401.03449  -2422876.94345  24225073.776    24225073.936    24225097.189
       211.000         134.000
 -14589712.59849 -11350575.27047  21398396.700    21398397.082    21398407.193
       234.000         190.000
 01 11 12 18  1 29.9970000  0  7G22G20G27G 1G25G 3G13
 -13710539.17549 -10663411.84547  20248029.695    20248028.984    20248039.518
       241.000         206.000
  -6091754.74749  -4736492.18347  20249185.942    20249185.314    20249194.836
       241.000         205.000
  -8826904.14549  -6851906.89146  22902829.947    22902829.955    22902844.335
       224.000         183.000
 -15882411.69049 -12364457.59847  19899816.225    19899815.996    19899825.315
       240.000         208.000
  11156299.61249   8689574.96246  23818271.623    23818270.671    23818289.614
       216.000         163.000
  -3537942.35549  -2498103.68845  24206702.405    24206702.566    24206725.810
       209.000         139.000
 -14681995.16549 -11422483.73647  21380835.933    21380836.259    21380846.383
       236.000         190.000
 01 11 12 18  1 59.9970000  0  7G22G20G27G 1G25G 3G13
 -13694104.84349 -10650605.94747  20251157.143    20251156.390    20251166.944
       241.000         206.000
  -6051202.77749  -4704893.33647  20256902.785    20256902.157    20256911.701
       241.000         205.000
  -8920549.22249  -6924876.99746  22885009.840    22885009.841    22885024.234
       225.000         183.000
 -15926767.72649 -12399020.75347  19891375.575    19891375.350    19891384.666
       239.000         207.000
  11215632.85149   8735808.21746  23829562.726    23829561.734    23829580.765
       217.000         163.000
  -3634424.95049  -2573284.64845  24188342.168    24188342.387    24188365.511
       203.000         136.000
 -14774135.08449 -11494281.01147  21363302.207    21363302.585    21363312.723
       239.000         190.000
 01 11 12 18  2 29.9970000  0  7G22G20G27G 1G25G 3G13
 -13677017.85349 -10637291.48847  20254408.769    20254407.995    20254418.548
       241.000         206.000
  -6010117.59549  -4672879.00447  20264721.088    20264720.472    20264730.035
       241.000         205.000
  -9013986.65449  -6997685.30546  22867229.267    22867229.231    22867243.658
       224.000         180.000
 -15970841.22849 -12433363.75247  19882988.659    19882988.451    19882997.787
       240.000         208.000
  11274989.30249   8782059.55945  23840858.210    23840857.187    23840876.366
       214.000         161.000
  -3730833.78249  -2648408.10044  24169995.844    24169996.219    24170019.188
       202.000         124.000
 -14866118.79949 -11565956.57647  21345798.238    21345798.641    21345808.760
       239.000         191.000
 01 11 12 18  2 59.9970000  0  7G22G20G27G 1G25G 3G13
 -13659286.83149 -10623475.18447  20257782.934    20257782.164    20257792.727
       241.000         206.000
  -5968508.40349  -4640456.35547  20272639.108    20272638.505    20272648.077
       241.000         205.000
  -9107223.37749  -7070337.19946  22849486.848    22849486.834    22849501.258
       224.000         183.000
 -16014638.22949 -12467491.30447  19874654.369    19874654.151    19874663.513
       239.000         207.000
  11334361.12949   8828322.87545  23852156.583    23852155.588    23852174.868
       214.000         161.000
  -3827173.04349  -2723477.56244  24151662.946    24151663.388    24151685.875
       208.000         127.000
 -14957952.53749 -11637515.27747  21328322.801    21328323.222    21328333.359
       237.000         190.000
 01 11 12 18  3 29.9970000  0  7G22G20G27G 1G25G 3G13
 -13640903.30049 -10609150.43247  20261281.287    20261280.507    20261291.067
       241.000         206.000
  -5926366.82449  -4607618.86147  20280658.455    20280657.859    20280667.426
       241.000         204.000
  -9200248.92249  -7142824.55946  22831784.582    22831784.607    22831799.018
       223.000         181.000
 -16058147.27049 -12501394.46447  19866374.864    19866374.684    19866384.037
       239.000         207.000
  11393757.93849   8874605.68845  23863459.789    23863458.717    23863478.118
       216.000         160.000
  -3923429.42849  -2798482.35345  24133345.890    24133346.264    24133368.702
       211.000         140.000
 -15049624.61449 -11708948.03247  21310878.214    21310878.582    21310888.721
       239.000         190.000
 01 11 12 18  3 59.9970000  0  7G22G20G27G 1G25G 3G13
 -13621885.27349 -10594331.26347  20264900.371    20264899.577    20264910.138
       241.000         206.000
  -5883711.09949  -4574380.72947  20288775.624    20288775.032    20288784.617
       241.000         204.000
  -9293079.59149  -7215160.03146  22814119.370    22814119.414    22814133.861
       225.000         181.000
 -16101383.73149 -12535085.22047  19858147.239    19858147.049    19858156.443
       239.000         207.000
  11453162.42149   8920894.45345  23874764.397    23874763.319    23874782.896
       214.000         159.000
  -4019616.44249  -2873433.02845  24115041.963    24115042.269    24115064.820
       205.000         139.000
 -15141150.39449 -11780266.76147  21293461.407    21293461.780    21293471.896
       239.000         190.000
 01 11 12 18  4 29.9970000  0  7G22G20G27G 1G25G 3G13
 -13602224.97949 -10579011.63247  20268641.648    20268640.868    20268651.446
       241.000         206.000
  -5840533.51849  -4540735.96947  20296992.115    20296991.517    20297001.115
       240.000         203.000
  -9385705.77349  -7287336.19246  22796493.171    22796493.203    22796507.590
       223.000         179.000
 -16144336.83049 -12568555.17347  19849973.514    19849973.354    19849982.767
       239.000         208.000
  11512584.02249   8967196.56345  23886072.257    23886071.223    23886090.886
       212.000         156.000
  -4115721.67149  -2948320.01044  24096753.456    24096753.837    24096776.448
       204.000         130.000
 -15232519.22149 -11851463.20647  21276074.487    21276074.851    21276084.957
       238.000         190.000
 01 11 12 18  4 59.9970000  0  7G22G20G27G 1G25G 3G13
 -13581913.43049 -10563184.53147  20272506.873    20272506.100    20272516.670
       241.000         206.000
  -5796825.35749  -4506677.76647  20305309.591    20305308.983    20305318.571
       241.000         203.000
  -9478116.64649  -7359344.56246  22778907.921    22778907.944    22778922.314
       226.000         181.000
 -16186994.65949 -12601795.05347  19841855.993    19841855.835    19841865.278
       239.000         208.000
  11572032.52949   9013519.62345  23897385.286    23897384.252    23897404.002
       215.000         157.000
  -4211731.62849  -3023132.79045  24078483.153    24078483.517    24078506.134
       204.000         133.000
 -15323718.97349 -11922527.88847  21258719.659    21258720.086    21258730.169
       237.000         190.000
 01 11 12 18  5 29.9970000  0  7G22G20G27G 1G25G 3G13
 -13560970.75649 -10546865.64047  20276492.191    20276491.415    20276502.003
       241.000         206.000
  -5752606.95149  -4472221.96647  20313724.153    20313723.539    20313733.137
       241.000         203.000
  -9570330.54149  -7431199.42146  22761360.058    22761360.160    22761374.523
       225.000         180.000
 -16229374.63649 -12634818.42147  19833791.352    19833791.176    19833800.664
       239.000         207.000
  11631488.66049   9059848.63345  23908699.822    23908698.744    23908718.570
       212.000         155.000
  -4307661.71149  -3097883.38845  24060228.119    24060228.473    24060250.978
       207.000         133.000
 -15414767.12449 -11993474.45547  21241393.820    21241394.185    21241404.223
       234.000         190.000
 01 11 12 18  5 59.9970000  0  7G22G20G27G 1G25G 3G13
 -13539401.88749 -10530058.80647  20280596.620    20280595.882    20280606.496
       240.000         206.000
  -5707883.53649  -4437372.65747  20322234.796    20322234.196    20322243.793
       241.000         203.000
  -9662350.39849  -7502903.10346  22743849.155    22743849.296    22743863.591
       226.000         181.000
 -16271478.54849 -12667626.67247  19825779.240    19825779.079    19825788.594
       239.000         207.000
  11690949.17649   9106181.08445  23920015.143    23920014.066    23920033.955
       212.000         153.000
  -4403511.63149  -3172571.54845  24041988.350    24041988.689    24042011.095
       207.000         138.000
 -15505665.55149 -12064304.36547  21224096.417    21224096.768    21224106.770
       237.000         190.000
 01 11 12 18  6 29.9970000  0  7G22G20G27G 1G25G 3G13
 -13517196.45149 -10512755.95147  20284822.210    20284821.483    20284832.125
       240.000         206.000
  -5662644.97149  -4402121.93247  20330843.469    20330842.865    20330852.491
       240.000         202.000
  -9754164.06549  -7574446.07846  22726377.465    22726377.640    22726391.978
       227.000         181.000
 -16313293.27149 -12700209.57647  19817822.163    19817822.010    19817831.532
       238.000         207.000
  11750425.37749   9152525.71545  23931333.441    23931332.382    23931352.315
       211.000         152.000
  -4499266.43249  -3247185.51845  24023766.618    24023767.006    24023789.460
       205.000         139.000
 -15596400.94649 -12135007.22247  21206829.953    21206830.360    21206840.349
       240.000         190.000
 01 11 12 18  6 59.9970000  0  7G22G20G27G 1G25G 3G13
 -13494357.43449 -10494959.38847  20289168.388    20289167.658    20289178.338
       241.000         205.000
  -5616894.09449  -4366471.99947  20339549.647    20339549.038    20339558.677
       240.000         202.000
  -9845772.55749  -7645829.21046  22708944.930    22708945.063    22708959.316
       229.000         181.000
 -16354818.69049 -12732567.05147  19809920.150    19809919.973    19809929.526
       239.000         207.000
  11809915.44049   9198881.20545  23942654.328    23942653.273    23942673.286
       208.000         150.000
  -4594924.63149  -3321724.22845  24005563.256    24005563.648    24005586.123
       203.000         138.000
 -15686972.91949 -12205582.75147  21189594.646    21189595.056    21189605.014
       236.000         189.000
 01 11 12 18  7 29.9970000  0  7G22G20G27G 1G25G 3G13
 -13470886.03949 -10476670.06647  20293634.889    20293634.170    20293644.887
       240.000         206.000
  -5570632.37349  -4330424.01147  20348353.042    20348352.412    20348362.091
       240.000         203.000
  -9937175.11549  -7717051.84046  22691551.503    22691551.644    22691565.908
       225.000         177.000
 -16396052.89149 -12764697.59847  19802073.541    19802073.383    19802082.934
       239.000         207.000
  11869419.44749   9245247.55345  23953977.856    23953976.867    23953996.985
       214.000         152.000
  -4690482.71349  -3396184.92145  23987378.919    23987379.357    23987401.942
       205.000         140.000
 -15777379.71749 -12276029.57347  21172390.795    21172391.180    21172401.107
       234.000         190.000
 01 11 12 18  7 59.9970000  0  7G22G20G27G 1G25G 3G13
 -13446779.30249 -10457885.67247  20298222.291    20298221.585    20298232.329
       241.000         206.000
  -5523857.20449  -4293975.93647  20357254.101    20357253.498    20357263.202
       240.000         202.000
 -10028366.92449  -7788110.26346  22674198.206    22674198.360    22674212.570
       227.000         178.000
 -16436990.00449 -12796596.65347  19794283.460    19794283.303    19794292.855
       239.000         207.000
  11928941.54849   9291627.99445  23965304.865    23965303.862    23965324.095
       213.000         151.000
  -4785932.55349  -3470561.34545  23969215.376    23969215.769    23969238.252
       206.000         138.000
 -15867615.35349 -12346343.02347  21155219.492    21155219.866    21155229.763
       236.000         191.000
 01 11 12 18  8 29.9970000  0  7G22G20G27G 1G25G 3G13
 -13422035.37749 -10438604.77347  20302930.948    20302930.246    20302941.021
       240.000         206.000
  -5476566.70449  -4257126.30447  20366253.255    20366252.653    20366262.381
       240.000         202.000
 -10119344.21949  -7859001.53446  22656885.703    22656885.861    22656900.035
       226.000         180.000
 -16477625.07549 -12828260.35747  19786550.882    19786550.725    19786560.262
       240.000         207.000
  11988485.12149   9338025.16645  23976635.941    23976634.936    23976655.270
       211.000         148.000
  -4881267.60849  -3544848.33445  23951073.596    23951074.065    23951096.290
       205.000         135.000
 -15957674.95649 -12416519.29447  21138081.620    21138082.047    21138091.924
       239.000         191.000
 01 11 12 18  8 59.9970000  0  7G22G20G27G 1G25G 3G13
 -13396667.12449 -10418837.38747  20307758.422    20307757.719    20307768.527
       241.000         206.000
  -5428773.74749  -4219885.15647  20375348.041    20375347.420    20375357.194
       240.000         202.000
 -10210117.65649  -7929733.97246  22639612.083    22639612.190    22639626.294
       227.000         177.000
 -16517967.70349 -12859696.18347  19778873.959    19778873.776    19778883.323
       240.000         207.000
  12048038.50049   9384429.99145  23987968.900    23987967.882    23987988.348
       214.000         147.000
  -4976495.48049  -3619051.72745  23932952.243    23932952.639    23932974.952
       202.000         143.000
 -16047567.90849 -12486565.70747  21120975.498    21120975.944    21120985.805
       242.000         191.000
 01 11 12 18  9 29.9970000  0  7G22G20G27G 1G25G 3G13
 -13370684.63449 -10398591.37747  20312702.803    20312702.084    20312712.922
       240.000         206.000
  -5380488.94849  -4182260.75247  20384536.404    20384535.797    20384545.595
       240.000         202.000
 -10300695.56249  -8000314.01346  22622375.624    22622375.723    22622389.804
       231.000         179.000
 -16558024.98549 -12890909.65947  19771251.337    19771251.143    19771260.679
       240.000         206.000
  12107592.91549   9430835.65245  23999302.026    23999300.992    23999321.612
       213.000         148.000
  -5071621.68349  -3693175.88345  23914850.231    23914850.614    23914873.010
       207.000         143.000
 -16137301.16049 -12556487.71047  21103899.921    21103900.269    21103910.076
       240.000         192.000
 01 11 12 18  9 59.9970000  0  7G22G20G27G 1G25G 3G13
 -13344073.87049 -10377855.80047  20317766.752    20317766.013    20317776.874
       241.000         207.000
  -5331698.34049  -4144242.20247  20393821.046    20393820.426    20393830.262
       240.000         202.000
 -10391061.85049  -8070729.16346  22605179.394    22605179.500    22605193.557
       230.000         181.000
 -16597779.99449 -12921887.59247  19763686.245    19763686.043    19763695.549
       241.000         207.000
  12167163.80549   9477254.11545  24010638.223    24010637.273    24010658.015
       212.000         146.000
  -5166627.37549  -3767206.16745  23896771.172    23896771.478    23896793.986
       208.000         145.000
 -16226857.64949 -12626271.93847  21086857.806    21086858.201    21086867.992
       239.000         192.000
 01 11 12 18 10 29.9970000  0  7G22G20G27G 1G25G 3G13
 -13316849.75549 -10356642.29047  20322947.412    20322946.655    20322957.535
       241.000         206.000
  -5282416.68249  -4105841.02547  20403199.112    20403198.496    20403208.375
       240.000         202.000
 -10481229.17849  -8140989.31046  22588021.111    22588021.159    22588035.132
       230.000         182.000
 -16637244.21049 -12952638.94047  19756176.456    19756176.261    19756185.767
       240.000         206.000
  12226737.89349   9523675.08545  24021975.080    24021974.130    24021995.021
       214.000         148.000
  -5261521.96149  -3841149.90645  23878713.343    23878713.624    23878736.016
       209.000         145.000
 -16316248.90849 -12695927.44847  21069847.223    21069847.590    21069857.353
       240.000         193.000
 01 11 12 18 10 59.9970000  0  7G22G20G27G 1G25G 3G13
 -13289015.51449 -10334953.36347  20328244.139    20328243.398    20328254.310
       241.000         206.000
  -5232647.53249  -4067059.98447  20412669.954    20412669.327    20412679.247
       240.000         201.000
 -10571198.93949  -8211095.51546  22570900.351    22570900.426    22570914.266
       230.000         181.000
 -16676417.77649 -12983163.81347  19748721.966    19748721.795    19748731.279
       240.000         206.000
  12286313.03049   9570096.87245  24033312.168    24033311.264    24033332.237
       216.000         151.000
  -5356304.29049  -3915006.13045  23860676.739    23860677.018    23860699.260
       208.000         141.000
 -16405474.97849 -12765454.20147  21052867.998    21052868.421    21052878.144
       239.000         193.000
 01 11 12 18 11 29.9970000  0  7G22G20G27G 1G25G 3G13
 -13260558.26349 -10312778.97547  20333659.428    20333658.690    20333669.625
       240.000         206.000
  -5182378.17049  -4027889.16447  20422235.989    20422235.347    20422245.314
       240.000         201.000
 -10660956.24349  -8281036.13446  22553819.952    22553820.093    22553833.922
       232.000         179.000
 -16715284.69549 -13013449.73347  19741325.832    19741325.655    19741335.164
       240.000         206.000
  12345904.05649   9616531.05545  24044652.273    24044651.392    24044672.404
       216.000         153.000
  -5450956.10349  -3988760.66445  23842664.934    23842665.280    23842687.458
       207.000         144.000
 -16494519.44049 -12834839.44547  21035923.358    21035923.779    21035933.489
       238.000         193.000
 01 11 12 18 11 59.9970000  0  7G22G20G27G 1G25G 3G13
 -13231491.10249 -10290129.34747  20339190.795    20339190.052    20339201.013
       240.000         206.000
  -5131621.78749  -3988338.85947  20431894.661    20431894.045    20431904.048
       240.000         201.000
 -10750511.92449  -8350819.65146  22536777.954    22536778.124    22536791.957
       229.000         181.000
 -16753854.74849 -13043504.33747  19733986.212    19733986.028    19733995.529
       239.000         206.000
  12405499.32649   9662968.50945  24055993.156    24055992.297    24056013.386
       215.000         152.000
  -5545485.66449  -4062419.84945  23824676.445    23824676.790    23824699.003
       212.000         149.000
 -16583392.41949 -12904091.06047  21019011.324    21019011.781    21019021.472
       240.000         193.000
 01 11 12 18 12 29.9970000  0  7G22G20G27G 1G25G 3G13
 -13201821.18749 -10267010.03647  20344836.851    20344836.118    20344847.092
       240.000         206.000
  -5080385.48549  -3948414.58447  20441644.697    20441644.071    20441654.111
       240.000         201.000
 -10839871.27549  -8420450.20146  22519773.410    22519773.531    22519787.236
       228.000         180.000
 -16792131.80549 -13073330.63147  19726702.329    19726702.171    19726711.638
       240.000         206.000
  12465092.70449   9709404.48445  24067333.748    24067332.817    24067354.090
       215.000         155.000
  -5639895.06249  -4135985.48345  23806711.098    23806711.299    23806733.427
       216.000         154.000
 -16672097.61349 -12973211.94947  21002131.267    21002131.721    21002141.376
       240.000         194.000
 01 11 12 18 12 59.9970000  0  7G22G20G27G 1G25G 3G13
 -13171550.06049 -10243422.25147  20350597.353    20350596.590    20350607.589
       240.000         206.000
  -5028671.02249  -3908117.71947  20451485.750    20451485.109    20451495.152
       240.000         201.000
 -10929033.62549  -8489927.25746  22502806.258    22502806.423    22502820.059
       231.000         181.000
 -16830114.25949 -13102927.36347  19719474.539    19719474.356    19719483.813
       239.000         206.000
  12524684.53749   9755839.27245  24078674.059    24078673.077    24078694.444
       218.000         158.000
  -5734180.63149  -4209454.60145  23788769.079    23788769.300    23788791.374
       201.000         144.000
 -16760633.28149 -13042200.73047  20985283.466    20985283.915    20985293.551
       240.000         194.000
 01 11 12 18 13 29.9970000  0  7G22G20G27G 1G25G 3G13
 -13140676.24649 -10219364.83947  20356472.582    20356471.759    20356482.784
       241.000         206.000
  -4976477.07449  -3867447.23947  20461418.071    20461417.395    20461427.446
       240.000         201.000
 -11017995.47349  -8559248.06046  22485877.264    22485877.460    22485891.038
       229.000         182.000
 -16867797.32549 -13132290.81047  19712303.713    19712303.506    19712312.970
       240.000         206.000
  12584278.10749   9802275.42145  24090014.707    24090013.720    24090035.139
       217.000         156.000
  -5828335.99449  -4282822.11545  23770851.628    23770851.906    23770873.984
       211.000         141.000
 -16848994.19649 -13111053.35347  20968468.931    20968469.354    20968478.997
       240.000         194.000
 01 11 12 18 13 59.9970000  0  7G22G20G27G 1G25G 3G13
 -13109189.02049 -10194829.44747  20362464.511    20362463.659    20362474.699
       240.000         206.000
  -4923793.15749  -3826394.96247  20471443.611    20471442.919    20471452.970
       240.000         201.000
 -11106743.82549  -8628402.52346  22468988.979    22468989.115    22469002.623
       231.000         183.000
 -16905167.00249 -13161410.05247  19705192.539    19705192.317    19705201.761
       240.000         205.000
  12643885.49449   9848722.30345  24101357.932    24101356.934    24101378.490
       215.000         157.000
  -5922345.06549  -4356075.87045  23752962.141    23752962.471    23752984.366
       208.000         142.000
 -16937166.15249 -13179758.70247  20951690.305    20951690.743    20951700.388
       241.000         194.000
 01 11 12 18 14 29.9970000  0  7G22G20G27G 1G25G 3G13
 -13077096.01649 -10169822.02847  20368571.677    20368570.837    20368581.905
       240.000         206.000
  -4870626.88149  -3784966.82947  20481560.924    20481560.229    20481570.287
       240.000         201.000
 -11195284.27249  -8697394.97546  22452140.200    22452140.350    22452153.845
       231.000         183.000
 -16942227.67249 -13190288.51747  19698140.172    19698139.935    19698149.349
       240.000         206.000
  12703500.55249   9895175.19745  24112702.693    24112701.620    24112723.316
       215.000         157.000
  -6016210.62249  -4429217.49445  23735099.967    23735100.343    23735122.329
       212.000         157.000
 -17025153.86649 -13248320.51547  20934946.865    20934947.215    20934956.831
       239.000         194.000
 01 11 12 18 14 59.9970000  0  7G22G20G27G 1G25G 3G13
 -13044413.58249 -10144355.30647  20374791.005    20374790.180    20374801.260
       241.000         206.000
  -4816994.43249  -3743175.43647  20491766.958    20491766.241    20491776.333
       241.000         201.000
 -11283630.91949  -8766236.40346  22435328.342    22435328.472    22435341.969
       228.000         184.000
 -16978992.27949 -13218936.27547  19691144.152    19691143.893    19691153.279
       240.000         206.000
  12763108.71749   9941622.68045  24124046.100    24124044.974    24124066.800
       216.000         158.000
  -6109943.69849  -4502255.91145  23717263.037    23717263.437    23717285.580
       200.000         150.000
 -17112969.72749 -13316748.38747  20918236.001    20918236.395    20918246.001
       237.000         194.000
 01 11 12 18 15 29.9970000  0  7G22G20G27G 1G25G 3G13
 -13011135.24349 -10118424.25247  20381123.762    20381122.928    20381134.018
       240.000         205.000
  -4762889.61449  -3701015.97147  20502062.890    20502062.147    20502072.264
       240.000         201.000
 -11371775.18249  -8834920.16946  22418554.997    22418555.080    22418568.492
       227.000         183.000
 -17015451.02349 -13247345.71047  19684206.306    19684206.058    19684215.423
       240.000         206.000
  12822718.07949   9988071.14645  24135389.642    24135388.586    24135410.460
       214.000         156.000
  -6203532.75249  -4575182.02645  23699453.101    23699453.664    23699476.073
       208.000         132.000
 -17200603.89749 -13385034.68347  20901559.687    20901560.106    20901569.754
       240.000         195.000
 01 11 12 18 15 59.9970000  0  7G22G20G27G 1G25G 3G13
 -12977254.37549 -10092023.68247  20387571.190    20387570.330    20387581.445
       240.000         205.000
  -4708305.83449  -3658483.28647  20512449.961    20512449.203    20512459.333
       240.000         200.000
 -11459708.10249  -8903439.22746  22401821.835    22401821.909    22401835.330
       230.000         182.000
 -17051593.78349 -13275508.91947  19677328.613    19677328.345    19677337.700
       240.000         206.000
  12882337.25149  10034527.21345  24146735.178    24146734.078    24146756.052
       212.000         156.000
  -6296965.79349  -4647986.86345  23681673.568    23681673.935    23681695.932
       214.000         147.000
 -17288046.15549 -13453171.47547  20884919.977    20884920.361    20884930.004
       240.000         195.000
 01 11 12 18 16 29.9970000  0  7G22G20G27G 1G25G 3G13
 -12942793.27749 -10065170.98847  20394129.014    20394128.142    20394139.268
       239.000         205.000
  -4653265.46649  -3615594.82347  20522923.920    20522923.150    20522933.287
       240.000         200.000
 -11547449.76949  -8971809.26746  22385125.115    22385125.184    22385138.545
       229.000         184.000
 -17087439.52849 -13303440.68847  19670507.418    19670507.150    19670516.501
       240.000         206.000
  12941945.72549  10080974.97645  24158078.590    24158077.518    24158099.586
       214.000         158.000
  -6390259.98949  -4720683.25345  23663920.152    23663920.515    23663942.433
       202.000         144.000
 -17375315.29249 -13521173.35347  20868313.188    20868313.566    20868323.200
       239.000         195.000
 01 11 12 18 16 59.9970000  0  7G22G20G27G 1G25G 3G13
 -12907730.30549 -10037849.30447  20400801.376    20400800.490    20400811.631
       240.000         205.000
  -4597747.33149  -3572334.07447  20533488.781    20533488.010    20533498.160
       240.000         200.000
 -11634976.52449  -9040011.83546  22368469.270    22368469.315    22368482.669
       229.000         184.000
 -17122963.27249 -13331121.54847  19663747.506    19663747.232    19663756.557
       240.000         206.000
  13001566.47349  10127432.29245  24169424.351    24169423.295    24169445.446
       212.000         158.000
  -6483388.65849  -4793250.51645  23646197.780    23646198.306    23646220.537
       206.000         146.000
 -17462386.09249 -13589020.67747  20851744.118    20851744.516    20851754.133
       240.000         196.000
 01 11 12 18 17 29.9970000  0  7G22G20G27G 1G25G 3G13
 -12872078.88249 -10010069.08147  20407585.683    20407584.811    20407595.981
       239.000         204.000
  -4541764.58849  -3528711.29847  20544142.029    20544141.282    20544151.438
       241.000         200.000
 -11722299.51149  -9108055.63146  22351852.133    22351852.218    22351865.533
       230.000         183.000
 -17158174.97649 -13358559.26347  19657046.941    19657046.682    19657056.007
       240.000         206.000
  13061187.75049  10173890.02545  24180770.221    24180769.167    24180791.380
       216.000         156.000
  -6576359.85049  -4865695.23045  23628505.964    23628506.377    23628528.575
       212.000         147.000
 -17549268.39949 -13656721.10847  20835210.897    20835211.311    20835220.946
       241.000         195.000
 01 11 12 18 17 59.9970000  0  7G22G20G27G 1G25G 3G13
 -12835852.98549  -9981841.22147  20414479.313    20414478.457    20414489.637
       239.000         204.000
  -4485331.29049  -3484737.43547  20554881.039    20554880.285    20554890.470
       240.000         200.000
 -11809430.31549  -9175949.67446  22335271.603    22335271.692    22335285.020
       232.000         184.000
 -17193085.08749 -13385761.97447  19650403.769    19650403.535    19650412.853
       240.000         206.000
  13120797.69049  10220338.96845  24192113.934    24192112.886    24192135.226
       211.000         156.000
  -6669182.29949  -4938024.26744  23610842.296    23610842.687    23610864.426
       199.000         127.000
 -17635972.22949 -13724282.49647  20818711.674    20818712.078    20818721.717
       238.000         196.000
 01 11 12 18 18 29.9970000  0  7G22G20G27G 1G25G 3G13
 -12799067.96149  -9953177.67447  20421479.367    20421478.500    20421489.694
       239.000         203.000
  -4428462.83849  -3440424.49547  20565702.836    20565702.094    20565712.305
       240.000         199.000
 -11896381.99349  -9243704.14246  22318725.217    22318725.290    22318738.564
       229.000         185.000
 -17227705.48549 -13412738.92947  19643815.728    19643815.511    19643824.823
       240.000         206.000
  13180383.22549  10266768.80545  24203452.932    24203451.945    24203474.388
       212.000         156.000
  -6761866.20349  -5010245.01845  23593204.701    23593205.171    23593227.064
       206.000         144.000
 -17722509.40149 -13791714.03047  20802244.163    20802244.556    20802254.194
       237.000         196.000
 01 11 12 18 18 59.9970000  0  7G22G20G27G 1G25G 3G13
 -12761701.77749  -9924061.28147  20428589.995    20428589.122    20428600.335
       238.000         203.000
  -4371137.33949  -3395755.41547  20576611.604    20576610.866    20576621.113
       240.000         199.000
 -11983130.34149  -9311300.15546  22302217.500    22302217.542    22302230.805
       230.000         185.000
 -17262010.80849 -13439470.37747  19637287.660    19637287.446    19637296.744
       240.000         206.000
  13239967.87749  10313198.07045  24214791.714    24214790.827    24214813.397
       209.000         150.000
  -6854383.98549  -5082336.39245  23575598.943    23575599.425    23575621.459
       211.000         150.000
 -17808854.53349 -13858995.90947  20785813.154    20785813.572    20785823.202
       239.000         195.000
 01 11 12 18 19 29.9970000  0  7G22G20G27G 1G25G 3G13
 -12723762.93849  -9894498.66747  20435809.582    20435808.728    20435819.950
       239.000         203.000
  -4313363.31249  -3350736.83147  20587605.729    20587604.992    20587615.271
       240.000         199.000
 -12069681.67649  -9378742.66246  22285747.282    22285747.300    22285760.530
       230.000         187.000
 -17296006.03649 -13465960.19047  19630818.591    19630818.381    19630827.696
       239.000         205.000
  13299544.92549  10359621.32845  24226129.093    24226128.224    24226150.987
       207.000         149.000
  -6946739.02649  -5154301.06145  23558024.235    23558024.663    23558046.789
       206.000         137.000
 -17895012.08749 -13926131.62547  20769417.873    20769418.293    20769427.932
       241.000         196.000
 01 11 12 18 19 59.9970000  0  7G22G20G27G 1G25G 3G13
 -12685237.87949  -9864479.25847  20443140.750    20443139.903    20443151.115
       238.000         202.000
  -4255127.11849  -3305358.11347  20598687.818    20598687.085    20598697.374
       239.000         199.000
 -12156019.86149  -9446019.08647  22269317.680    22269317.637    22269330.828
       232.000         188.000
 -17329673.87049 -13492194.89547  19624411.867    19624411.634    19624420.946
       240.000         206.000
  13359129.64149  10406050.54945  24237468.039    24237467.127    24237489.975
       211.000         159.000
  -7038912.48349  -5226124.39544  23540483.683    23540484.260    23540506.100
       207.000         131.000
 -17980964.68849 -13993107.62147  20753061.623    20753062.029    20753071.666
       241.000         196.000
 01 11 12 18 20 29.9970000  0  7G22G20G27G 1G25G 3G13
 -12646145.48949  -9834017.77947  20450579.915    20450579.023    20450590.232
       239.000         202.000
  -4196447.84749  -3259634.14447  20609854.222    20609853.478    20609863.810
       239.000         199.000
 -12242161.80749  -9513142.58347  22252925.359    22252925.315    22252938.462
       233.000         188.000
 -17363029.81049 -13518186.56547  19618064.493    19618064.248    19618073.547
       240.000         206.000
  13418705.02049  10452472.52345  24248805.172    24248804.264    24248827.219
       210.000         155.000
  -7130917.62449  -5297816.37345  23522975.462    23522976.034    23522997.842
       211.000         151.000
 -18066727.80549 -14059935.96947  20736741.421    20736741.825    20736751.462
       239.000         197.000
 01 11 12 18 20 59.9970000  0  7G22G20G27G 1G25G 3G13
 -12606485.21749  -9803113.79547  20458127.098    20458126.209    20458137.423
       238.000         201.000
  -4137324.83449  -3213564.40347  20621105.066    20621104.314    20621114.681
       239.000         198.000
 -12328104.59749  -9580110.91247  22236571.017    22236570.926    22236583.990
       234.000         188.000
 -17396069.80349 -13543932.03847  19611777.239    19611776.977    19611786.278
       240.000         206.000
  13478274.01149  10498889.55045  24260141.045    24260140.177    24260163.259
       203.000         142.000
  -7222748.33349  -5369372.47945  23505500.652    23505501.160    23505522.904
       212.000         143.000
 -18152296.95049 -14126613.16647  20720458.101    20720458.519    20720468.178
       243.000         197.000
 01 11 12 18 21 29.9970000  0  7G22G20G27G 1G25G 3G13
 -12566263.41349  -9771772.25447  20465781.140    20465780.257    20465791.479
       239.000         202.000
  -4077764.62849  -3167153.99147  20632439.097    20632438.345    20632448.748
       239.000         199.000
 -12413852.09049  -9646927.03246  22220253.781    22220253.674    22220266.755
       229.000         187.000
 -17428796.64449 -13569433.49547  19605549.552    19605549.302    19605558.598
       240.000         206.000
  13537832.23948  10545298.16644  24271474.905    24271473.996    24271497.278
       191.000         122.000
  -7314406.02549  -5440794.03545  23488058.421    23488058.930    23488080.416
       207.000         132.000
 -18237674.51049 -14193141.08847  20704211.262    20704211.663    20704221.331
       239.000         197.000
 01 11 12 18 21 59.9970000  0  7G22G20G27G 1G25G 3G13
 -12525484.99949  -9739996.99447  20473541.101    20473540.233    20473551.459
       238.000         202.000
  -4017772.31749  -3120406.88847  20643855.333    20643854.602    20643865.056
       239.000         198.000
 -12499407.06149  -9713593.15847  22203973.012    22203973.006    22203986.112
       230.000         188.000
 -17461211.70749 -13594692.00947  19599381.208    19599380.950    19599390.246
       240.000         206.000
  13597376.44548  10591695.89044  24282806.175    24282805.416
       181.000         107.000
  -7405890.14249  -5512080.14245  23470649.590    23470649.957    23470671.385
       216.000         156.000
 -18322862.19349 -14259521.04547  20688000.516    20688000.952    20688010.613
       240.000         197.000
 01 11 12 18 22 29.9960000  0  7G22G20G27G 1G25G 3G13
 -12484160.72049  -9707796.38047  20481404.906    20481404.076    20481415.307
       239.000         201.000
  -3957359.06449  -3073331.76247  20655351.688    20655350.966    20655361.457
       239.000         198.000
 -12584773.48649  -9780112.34446  22187728.255    22187728.254    22187741.350
       228.000         187.000
 -17493319.69749 -13619711.23847  19593271.294    19593271.030    19593280.328
       240.000         207.000
                  10638075.58553  24294133.040
       169.000          91.000
  -7497201.31149  -5583231.49545  23453273.470    23453273.926    23453295.355
       207.000         144.000
 -18407861.75949 -14325754.43247  20671825.589    20671826.032    20671835.692
       240.000         197.000
 01 11 12 18 22 59.9960000  0  6G22G20G27G 1G 3G13
 -12442280.35449  -9675162.46047  20489374.545    20489373.730    20489384.979
       238.000         201.000
  -3896513.30549  -3025919.62747  20666930.343    20666929.629    20666940.168
       239.000         197.000
 -12669947.20549  -9846481.38347  22171520.149    22171520.157    22171533.249
       234.000         189.000
 -17525111.56549 -13644484.13347  19587221.535    19587221.271    19587230.566
       240.000         206.000
  -7588332.85749  -5654242.97545  23435931.561    23435931.900    23435953.177
       220.000         145.000
 -18492667.92449 -14391837.11647  20655687.484    20655687.914    20655697.567
       240.000         197.000
 01 11 12 18 23 29.9960000  0  6G22G20G27G 1G 3G13
 -12399857.26049  -9642105.63747  20497447.498    20497446.658    20497457.925
       238.000         201.000
  -3835249.15549  -2978181.46747  20678588.625    20678587.904    20678598.497
       238.000         197.000
 -12754934.97649  -9912705.52447  22155347.435    22155347.456    22155360.526
       231.000         189.000
 -17556594.61349 -13669016.38747  19581230.509    19581230.256    19581239.562
       240.000         206.000
  -7679288.21049  -5725117.20745  23418623.148    23418623.577    23418644.729
       206.000         149.000
 -18577286.03049 -14457773.26247  20639585.161    20639585.597    20639595.234
       241.000         197.000
 01 11 12 18 23 59.9960000  0  6G22G20G27G 1G 3G13
 -12356885.99949  -9608621.66847  20505624.780    20505623.910    20505635.192
       238.000         201.000
  -3773561.28349  -2930113.13247  20690327.522    20690326.809    20690337.456
       239.000         197.000
 -12839729.09149  -9978778.77147  22139211.615    22139211.589    22139224.682
       232.000         189.000
 -17587759.84749 -13693300.98747  19575299.998    19575299.746    19575309.031
       240.000         206.000
  -7770056.50649  -5795845.49145  23401350.411    23401350.776    23401371.961
       218.000         152.000
 -18661706.65249 -14523555.52147  20623520.403    20623520.842    20623530.467
       240.000         197.000
 01 11 12 18 24 29.9960000  0  6G22G20G27G 1G 3G13
 -12313373.76149  -9574716.16447  20513905.014    20513904.116    20513915.414
       238.000         201.000
  -3711457.00649  -2881720.33147  20702145.665    20702144.961    20702155.650
       238.000         196.000
 -12924334.37149 -10044704.85947  22123111.793    22123111.663    22123124.757
       233.000         190.000
 -17618610.85449 -13717340.73147  19569429.292    19569429.022    19569438.296
       240.000         207.000
  -7860639.55949  -5866429.71145  23384113.040    23384113.451    23384134.248
       209.000         143.000
 -18745933.30449 -14589186.63347  20607492.570    20607493.012    20607502.625
       240.000         197.000
 01 11 12 18 24 59.9960000  0  6G22G20G27G 1G 3G13
 -12269316.91749  -9540386.27647  20522288.843    20522287.953    20522299.285
       238.000         200.000
  -3648932.61549  -2833000.16047  20714043.781    20714043.054    20714053.792
       238.000         196.000
 -13008744.67849 -10110479.05447  22107048.959    22107048.865    22107061.883
       233.000         190.000
 -17649140.32649 -13741129.92347  19563619.747    19563619.486    19563628.756
       240.000         207.000
  -7951028.32149  -5936862.29345  23366912.443    23366912.829    23366933.637
       216.000         155.000
 -18829958.18649 -14654660.52947  20591503.154    20591503.568    20591513.167
       240.000         197.000
 01 11 12 18 25 29.9960000  0  6G22G20G27G 1G 3G13
 -12224724.28049  -9505638.89247  20530774.623    20530773.737    20530785.119
       237.000         201.000
  -3585997.01249  -2783959.57447  20726020.126    20726019.408    20726030.181
       238.000         196.000
 -13092966.35449 -10176106.25647  22091022.016    22091021.931    22091034.913
       231.000         188.000
 -17679353.35549 -13764672.53847  19557870.428    19557870.161    19557879.436
       240.000         206.000
  -8041226.01849  -6007146.12245  23349748.400    23349748.740    23349769.369
       212.000         148.000
 -18913786.17049 -14719980.98947  20575551.200    20575551.613    20575561.185
       241.000         197.000
 01 11 12 18 25 59.9960000  0  6G22G20G27G 1G 3G13
 -12179606.53049  -9470482.32247  20539360.322    20539359.436    20539370.876
       237.000         200.000
  -3522660.70949  -2734606.74447  20738072.733    20738072.000    20738082.826
       238.000         196.000
 -13177007.81249 -10241593.00647  22075029.286    22075029.327    22075042.293
       232.000         189.000
 -17709256.93649 -13787974.02547  19552179.965    19552179.701    19552188.989
       240.000         207.000
  -8131238.00449  -6077285.20345  23332619.479    23332619.799    23332640.374
       215.000         155.000
 -18997424.06649 -14785153.31847  20559635.392    20559635.827    20559645.364
       241.000         198.000
 01 11 12 18 26 29.9960000  0  6G22G20G27G 1G 3G13
 -12133957.54849  -9434911.80347  20548047.115    20548046.243    20548057.739
       237.000         200.000
  -3458917.68549  -2684936.99147  20750202.752    20750202.000    20750212.862
       238.000         195.000
 -13260860.53149 -10306932.71247  22059072.588    22059072.617    22059085.559
       233.000         189.000
 -17738841.31049 -13811026.78247  19546550.235    19546549.988    19546559.290
       240.000         207.000
  -8221052.38449  -6147270.21345  23315528.226    23315528.578    23315549.263
       212.000         156.000
 -19080861.59449 -14850169.54747  20543757.767    20543758.173    20543767.674
       240.000         197.000
 01 11 12 18 26 59.9960000  0  7G22G20G27G 1G 3G31G13
 -12087770.96049  -9398922.36547  20556836.210    20556835.342    20556846.896
       237.000         200.000
  -3394761.49549  -2634945.29147  20762411.352    20762410.613    20762421.534
       237.000         195.000
 -13344515.64949 -10372118.44847  22043153.420    22043153.507    22043166.412
       233.000         189.000
 -17768096.42149 -13833822.97147  19540983.171    19540982.939    19540992.256
       240.000         207.000
  -8310657.18949  -6217092.02045  23298476.842    23298477.219    23298497.743
       217.000         152.000
    -73172.04852                  24212087.084
       204.000          51.000
 -19164087.86449 -14915021.14847  20527920.307    20527920.712    20527930.177
       241.000         198.000
 01 11 12 18 27 29.9960000  0  7G22G20G27G 1G 3G31G13
 -12041059.72849  -9362524.11647  20565725.155    20565724.264    20565735.899
       236.000         200.000
  -3330205.17649  -2584641.79847  20774696.093    20774695.378    20774706.336
       238.000         195.000
 -13427983.58849 -10437158.31847  22027269.871    22027270.023    22027282.891
       235.000         190.000
 -17797031.47449 -13856369.76547  19535477.029    19535476.795    19535486.129
       240.000         207.000
  -8400059.64849  -6286756.04845  23281464.005    23281464.364    23281484.945
       214.000         158.000
   -158200.11345                  24191323.516                    24191347.571
       197.000         132.000
 -19247112.49749 -14979715.62547  20512121.223    20512121.614    20512131.052
       239.000         198.000
 01 11 12 18 27 59.9960000  0  7G22G20G27G 1G 3G31G13
 -11993823.59549  -9325716.85647  20574713.958    20574713.090    20574724.766
       236.000         200.000
  -3265248.40749  -2534026.27547  20787057.064    20787056.335    20787067.337
       237.000         195.000
 -13511261.67049 -10502050.25247  22011422.695    22011422.667    22011435.506
       232.000         190.000
 -17825642.46749 -13878664.04347  19530032.521    19530032.313    19530041.653
       240.000         207.000
  -8489254.12649  -6356258.01545  23264490.649    23264491.065    23264511.706
       218.000         154.000
   -335396.87949   -243304.96845  24170540.058    24170539.286    24170564.215
       202.000         137.000
 -19329930.84349 -15044249.33247  20496361.362    20496361.773    20496371.194
       241.000         198.000
 01 11 12 18 28 29.9960000  0  7G22G20G27G 1G 3G31G13
 -11946072.28349  -9288508.16047  20583800.797    20583799.950    20583811.671
       236.000         200.000
  -3199900.87149  -2483106.26147  20799492.375    20799491.658    20799502.701
       237.000         195.000
 -13594357.08749 -10566799.84047  21995610.014    21995610.070    21995622.885
       233.000         190.000
 -17853935.32349 -13900710.42647  19524648.576    19524648.365    19524657.697
       240.000         207.000
  -8578244.72849  -6425601.15745  23247556.142    23247556.584    23247577.040
       216.000         157.000
   -444718.75459   -328490.59855  24149736.879    24149737.280    24149760.331
       206.000         138.000
 -19412548.71949 -15108626.85147  20480639.655    20480640.087    20480649.480
       240.000         198.000
 01 11 12 18 28 59.9960000  0  7G22G20G27G 1G 3G31G13
 -11897804.01949  -9250896.64247  20592986.009    20592985.177    20592996.945
       236.000         200.000
  -3134160.84649  -2431880.40547  20812002.405    20812001.676    20812012.750
       237.000         195.000
 -13677265.39749 -10631403.62047  21979832.928    21979833.075    21979845.878
       231.000         189.000
 -17881904.47549 -13922504.57447  19519326.204    19519326.018    19519335.356
       240.000         207.000
  -8667023.95049  -6494779.52845  23230661.934    23230662.368    23230682.875
       216.000         159.000
   -554137.44249   -413751.65945  24128915.344    24128915.981    24128938.870
       207.000         137.000
 -19494960.03049 -15172843.40147  20464957.222    20464957.696    20464967.072
       241.000         198.000
 01 11 12 18 29 29.9960000  0  7G22G20G27G 1G 3G31G13
 -11849038.93449  -9212897.98647  20602265.772    20602264.957    20602276.761
       236.000         200.000
  -3068048.48549  -2380364.41847  20824583.280    20824582.539    20824593.656
       237.000         194.000
 -13760004.43449 -10695875.52047  21964088.173    21964088.297    21964101.076
       229.000         189.000
 -17909566.39749 -13944059.32947  19514062.311    19514062.123    19514071.487
       240.000         207.000
  -8755606.59749  -6563804.80345  23213805.076    23213805.456    23213825.861
       217.000         154.000
   -663667.73349   -499099.69044  24108072.367    24108072.668    24108095.734
       205.000         130.000
 -19577180.75849 -15236911.46447  20449311.100    20449311.579    20449320.922
       239.000         198.000
 01 11 12 18 29 59.9960000  0  7G22G20G27G 1G 3G31G13
 -11799759.53749  -9174498.57947  20611643.436    20611642.606    20611654.450
       236.000         200.000
  -3001546.22549  -2328544.61847  20837238.338    20837237.613    20837248.755
       237.000         194.000
 -13842554.24949 -10760199.97447  21948379.455    21948379.507    21948392.276
       234.000         189.000
 -17936899.95249 -13965358.22047  19508860.924    19508860.733    19508870.087
       240.000         207.000
  -8843969.58849  -6632658.83345  23196990.067    23196990.428    23197010.877
       214.000         158.000
   -773287.16349   -584517.08145  24087212.287    24087212.629    24087235.268
       203.000         135.000
 -19659189.47649 -15300814.32047  20433705.317    20433705.806    20433715.118
       240.000         198.000
 01 11 12 18 30 29.9960000  0  7G22G20G27G 1G 3G31G13
 -11749971.82449  -9135703.08547  20621117.807    20621116.977    20621128.862
       236.000         199.000
  -2934660.24349  -2276425.81047  20849966.433    20849965.703    20849976.872
       237.000         193.000
 -13924918.41849 -10824379.73847  21932705.979    21932706.050    21932718.811
       234.000         189.000
 -17963907.28649 -13986402.90947  19503721.597    19503721.415    19503730.770
       240.000         207.000
  -8932113.31649  -6701342.06245  23180216.652    23180217.046    23180237.517
       216.000         155.000
   -882996.07849   -670004.12845  24066335.294    24066335.480    24066358.298
       208.000         144.000
 -19740988.00349 -15364553.38647  20418139.531    20418140.026    20418149.313
       240.000         198.000
 01 11 12 18 30 59.9960000  0  7G22G20G27G 1G 3G31G13
 -11699684.52049  -9096518.31047  20630687.296    20630686.435    20630698.334
       236.000         200.000
  -2867399.29349  -2224014.82847  20862765.875    20862765.156    20862776.336
       237.000         194.000
 -14007102.79349 -10888419.41047  21917066.690    21917066.791    21917079.561
       232.000         189.000
 -17990593.40449 -14007197.30647  19498643.407    19498643.208    19498652.592
       240.000         207.000
  -9020040.79949  -6769856.74245  23163484.288    23163484.821    23163505.306
       209.000         155.000
   -992798.07249   -755563.70645  24045440.573    24045440.641    24045463.695
       207.000         143.000
 -19822580.87349 -15428132.20047  20402612.886    20402613.374    20402622.646
       241.000         199.000
 01 11 12 18 31 29.9960000  0  7G22G20G27G 1G 3G31G13
 -11648886.48249  -9056935.56847  20640353.899    20640353.050    20640365.007
       235.000         199.000
  -2799751.79349  -2171302.64247  20875638.854    20875638.152    20875649.362
       236.000         193.000
 -14089093.80149 -10952308.39247  21901464.236    21901464.343    21901477.087
       232.000         189.000
 -18016943.25049 -14027729.67847  19493629.183    19493629.008    19493638.398
       240.000         207.000
  -9107735.06849  -6838189.78745  23146796.579    23146797.038    23146817.417
       217.000         157.000
  -1102676.69149   -841183.02044  24024531.137    24024531.311    24024554.443
       202.000         128.000
 -19903952.65149 -15491538.73847  20387128.302    20387128.809    20387138.058
       240.000         199.000
 01 11 12 18 31 59.9960000  0  7G22G20G27G 1G 3G31G13
 -11597581.83349  -9016958.06647  20650116.919    20650116.089    20650128.085
       236.000         198.000
  -2731722.09249  -2118292.63447  20888584.578    20888583.868    20888595.105
       235.000         192.000
 -14170893.16849 -11016048.06147  21885898.320    21885898.378    21885911.116
       231.000         190.000
 -18042956.94049 -14048000.10847  19488678.937    19488678.777    19488688.173
       240.000         207.000
  -9195194.79349  -6906339.99845  23130153.225    23130153.791    23130174.191
       214.000         158.000
  -1212630.54449   -926860.96344  24003607.213    24003607.619    24003630.574
       204.000         124.000
 -19985103.25949 -15554772.94147  20371685.825    20371686.325    20371695.560
       241.000         199.000
 01 11 12 18 32 29.9960000  0  7G22G20G27G 1G 3G31G13
 -11545783.30049  -8976595.72147  20659973.969    20659973.110    20659985.143
       235.000         199.000
  -2663322.86749  -2064994.68447  20901600.648    20901599.921    20901611.181
       237.000         192.000
 -14252511.19349 -11079646.41347  21870366.909    21870366.912    21870379.634
       235.000         189.000
 -18068643.58149 -14068015.69547  19483790.944    19483790.793    19483800.185
       238.000         207.000
  -9282427.09749  -6974313.07045  23113553.445    23113553.946    23113574.300
       214.000         154.000
  -1322666.88249  -1012603.23045  23982667.912    23982668.247    23982691.073
       209.000         137.000
 -20066041.13749 -15617841.37547  20356283.832    20356284.331    20356293.572
       242.000         199.000
 01 11 12 18 32 59.9960000  0  7G22G20G27G 1G 3G31G13
 -11493490.41949  -8935848.17747  20669925.119    20669924.226    20669936.273
       236.000         199.000
  -2594553.58549  -2011408.38547  20914687.136    20914686.399    20914697.672
       236.000         193.000
 -14333944.72349 -11143101.00847  21854870.454    21854870.556    21854883.279
       230.000         190.000
 -18093998.86949 -14087773.08547  19478966.034    19478965.852    19478975.252
       239.000         207.000
  -9369425.95049  -7042104.21345  23096997.814    23096998.410    23097018.671
       219.000         162.000
  -1432779.94349  -1098405.22145  23961713.950    23961714.234    23961736.940
       197.000         133.000
 -20146761.76049 -15680740.52647  20340923.188    20340923.671    20340932.910
       242.000         200.000
 01 11 12 18 33 29.9960000  0  7G22G20G27G 1G 3G31G13
 -11440695.52249  -8894709.46247  20679971.789    20679970.874    20679982.954
       236.000         198.000
  -2525406.69049  -1957527.84747  20927845.495    20927844.737    20927856.030
       236.000         192.000
 -14415183.26849 -11206403.68947  21839411.387    21839411.314    21839423.999
       230.000         190.000
 -18119011.30149 -14107263.31747  19474206.365    19474206.173    19474215.562
       239.000         207.000
  -9456177.76649  -7109702.81345  23080489.420    23080490.015    23080510.303
       209.000         151.000
  -1542956.52049  -1184256.63244  23940747.486    23940747.943    23940770.866
       195.000         126.000
 -20227253.23749 -15743461.12947  20325606.124    20325606.612    20325615.869
       241.000         200.000
 01 11 12 18 33 59.9960000  0  7G22G20G27G 1G 3G31G13
 -11387402.75149  -8853182.79247  20690113.213    20690112.272    20690124.370
       236.000         199.000
  -2455886.20749  -1903356.20547  20941074.897    20941074.164    20941085.480
       236.000         191.000
 -14496228.78749 -11269555.94247  21823988.782    21823988.797    21824001.477
       233.000         190.000
 -18143681.32949 -14126486.74447  19469511.877    19469511.657    19469521.030
       239.000         207.000
  -9542681.05649  -7177107.88446  23064028.469    23064028.907    23064048.826
       220.000         164.000
  -1653195.29349  -1270156.64844  23919769.474    23919770.057    23919793.017
       202.000         128.000
 -20307515.17749 -15806002.87847  20310332.814    20310333.253    20310342.495
       241.000         200.000
 01 11 12 18 34 29.9960000  0  7G22G20G27G 1G 3G31G13
 -11333642.59449  -8811291.92447  20700343.573    20700342.616    20700354.728
       236.000         198.000
  -2386022.57949  -1848917.16547  20954369.635    20954368.883    20954380.240
       234.000         191.000
 -14577109.10449 -11332579.47847  21808597.789    21808597.734    21808610.380
       231.000         190.000
 -18168035.44249 -14145463.99947  19464877.489    19464877.253    19464886.600
       239.000         207.000
  -9628960.62749  -7244338.44145  23047609.824    23047610.247    23047630.358
       212.000         151.000
  -1763521.63949  -1356124.93844  23898774.900    23898775.547    23898798.412
       196.000         129.000
 -20387573.70449 -15868386.12347  20295098.155    20295098.604    20295107.826
       241.000         200.000
 01 11 12 18 34 59.9960000  0  7G22G20G27G 1G 3G31G13
 -11279392.50149  -8769019.28747  20710667.139    20710666.170    20710678.331
       235.000         197.000
  -2315793.22249  -1794193.15947  20967733.953    20967733.209    20967744.599
       235.000         191.000
 -14657799.09349 -11395454.69847  21793242.821    21793242.860    21793255.499
       230.000         190.000
 -18192047.32349 -14164174.58047  19460308.224    19460307.968    19460317.314
       239.000         207.000
  -9714987.97349  -7311372.69845  23031239.527    23031239.796    23031259.487
       214.000         159.000
  -1873907.09049  -1442139.20944  23877768.934    23877769.363    23877792.240
       202.000         118.000
 -20467401.93049 -15930589.90847  20279907.350    20279907.775    20279916.999
       241.000         200.000
 01 11 12 18 35 29.9960000  0  7G22G20G27G 1G 3G31G13
 -11224673.53849  -8726381.30447  20721079.956    20721078.958    20721091.137
       235.000         197.000
  -2245219.15749  -1739200.54547  20981163.863    20981163.139    20981174.549
       236.000         191.000
 -14738317.26949 -11458196.04547  21777920.667    21777920.694    21777933.319
       235.000         191.000
 -18215734.08549 -14182631.82747  19455800.816    19455800.549    19455809.889
       239.000         206.000
  -9800779.07549  -7378222.61845  23014913.688    23014914.064    23014934.000
       218.000         157.000
  -1984367.27949  -1528211.95844  23856748.958    23856749.603    23856771.952
       197.000         128.000
 -20547016.98449 -15992627.59247  20264757.098    20264757.509    20264766.752
       240.000         200.000
 01 11 12 18 35 59.9960000  0  7G22G20G27G 1G 3G31G13
 -11169473.29349  -8683368.28247  20731584.344    20731583.333    20731595.517
       235.000         197.000
  -2174288.12049  -1683929.77147  20994661.716    20994660.989    20994672.430
       237.000         191.000
 -14818648.73749 -11520791.92247  21762634.034    21762634.061    21762646.668
       233.000         191.000
 -18239079.60349 -14200823.16647  19451358.338    19451358.068    19451367.396
       239.000         207.000
  -9886315.53049  -7444874.29545  22998636.592    22998636.981    22998656.674
       207.000         156.000
  -2094884.54548  -1614328.93144  23835717.761    23835718.447    23835740.985
       194.000         130.000
 -20626402.00349 -16054486.01447  20249650.597    20249651.008    20249660.257
       242.000         201.000
 01 11 12 18 36 29.9960000  0  7G22G20G27G 1G 3G31G13
 -11113805.92749  -8639991.27647  20742177.621    20742176.598    20742188.799
       235.000         196.000
  -2103014.01049  -1628391.67347  21008224.898    21008224.124    21008235.583
       236.000         190.000
 -14898804.82049 -11583251.13547  21747380.873    21747380.791    21747393.383
       232.000         193.000
 -18262094.14149 -14218756.59547  19446978.832    19446978.576    19446987.896
       239.000         207.000
  -9971605.56349  -7511333.84745  22982406.352    22982406.693    22982426.494
       215.000         153.000
  -2205466.91049  -1700496.69045  23814674.536    23814674.996    23814697.700
       201.000         135.000
 -20705566.83249 -16116172.87247  20234586.003    20234586.420    20234595.667
       241.000         201.000
 01 11 12 18 36 59.9960000  0  7G22G20G27G 1G 3G31G13
 -11057663.80049  -8596244.32347  20752861.194    20752860.199    20752872.433
       234.000         196.000
  -2031389.36149  -1572580.42647  21021854.720    21021853.964    21021865.444
       236.000         190.000
 -14978775.43749 -11645565.83647  21732162.970    21732162.824    21732175.412
       232.000         192.000
 -18284766.17849 -14236423.14047  19442664.520    19442664.251    19442673.579
       239.000         207.000
 -10056635.94249  -7577591.13445  22966225.270    22966225.762    22966245.435
       214.000         159.000
  -2316101.38649  -1786705.22344  23793621.311    23793621.902    23793644.362
       199.000         124.000
 -20784499.51849 -16177678.82947  20219565.564    20219565.993    20219575.253
       241.000         201.000
 01 11 12 18 37 29.9960000  0  7G22G20G27G 1G 3G31G13
 -11001055.00249  -8552133.73047  20763633.595    20763632.614    20763644.875
       235.000         196.000
  -1959422.19349  -1516502.29747  21035549.775    21035549.001    21035560.497
       236.000         190.000
 -15058566.08049 -11707740.28847  21716979.182    21716979.111    21716991.683
       234.000         192.000
 -18307099.90349 -14253826.06147  19438414.560    19438414.311    19438423.625
       239.000         207.000
 -10141409.14749  -7643647.99645  22950093.409    22950093.847    22950113.622
       209.000         149.000
  -2426790.47649  -1872956.24044  23772557.621    23772558.152    23772580.586
       201.000         131.000
 -20863203.66449 -16239006.70547  20204588.650    20204589.073    20204598.319
       241.000         201.000
 01 11 12 18 37 59.9960000  0  7G22G20G27G 1G 3G31G13
 -10943981.80749  -8507661.26147  20774494.394    20774493.389    20774505.698
       234.000         195.000
  -1887114.53349  -1460158.85147  21049309.625    21049308.810    21049320.337
       236.000         190.000
 -15138176.25849 -11769774.10747  21701829.595    21701829.715    21701842.287
       235.000         193.000
 -18329093.73349 -14270964.13547  19434229.302    19434229.053    19434238.362
       239.000         207.000
 -10225921.76749  -7709501.86845  22934011.040    22934011.459    22934031.142
       215.000         158.000
  -2537530.76749  -1959247.14645  23751484.292    23751484.761    23751507.059
       198.000         137.000
 -20941676.91549 -16300154.65247  20189655.677    20189656.094    20189665.319
       241.000         201.000
 01 11 12 18 38 29.9960000  0  7G22G20G27G 1G 3G31G13
 -10886456.85249  -8462836.77247  20785441.174    20785440.141    20785452.478
       234.000         196.000
  -1814479.25249  -1403560.10347  21063131.796    21063130.966    21063142.528
       236.000         189.000
 -15217616.09549 -11831675.21447  21686712.742    21686712.748    21686725.310
       233.000         193.000
 -18350756.38549 -14287844.14047  19430107.052    19430106.808    19430116.120
       239.000         207.000
 -10310180.62749  -7775157.94745  22917976.872    22917977.343    22917997.070
       214.000         149.000
  -2648329.21449  -2045583.28545  23730399.849    23730400.215    23730422.576
       208.000         140.000
 -21019927.54649 -16361129.12747  20174765.050    20174765.472    20174774.693
       241.000         201.000
 01 11 12 18 38 59.9960000  0  7G22G20G27G 1G 3G31G13
 -10828474.36249  -8417655.76047  20796474.981    20796473.955    20796486.330
       234.000         195.000
  -1741510.34549  -1346701.39747  21077017.421    21077016.628    21077028.224
       236.000         189.000
 -15296877.11449 -11893436.98247  21671629.879    21671629.823    21671642.375
       232.000         193.000
 -18372078.12249 -14304458.50647  19426049.673    19426049.431    19426058.742
       239.000         207.000
 -10394174.30349  -7840607.44045  22901993.309    22901993.761    22902013.397
       213.000         159.000
  -2759174.47049  -2131955.92345  23709306.307    23709306.836    23709329.290
       201.000         142.000
 -21097945.80949 -16421922.54147  20159918.644    20159919.060    20159928.283
       241.000         201.000
 01 11 12 18 39 29.9960000  0  7G22G20G27G 1G 3G31G13
 -10770054.37949  -8372133.84847  20807592.046    20807591.021    20807603.452
       234.000         195.000
  -1668227.84249  -1289598.33647  21090962.746    21090961.953    21090973.589
       235.000         189.000
 -15375976.72449 -11955072.97147  21656577.542    21656577.600    21656590.140
       234.000         194.000
 -18393075.16549 -14320819.86247  19422054.079    19422053.847    19422063.165
       239.000         207.000
 -10477917.13149  -7905861.49345  22886057.542    22886057.902    22886077.390
       214.000         153.000
  -2870080.88649  -2218376.17045  23688201.504    23688201.852    23688224.281
       210.000         141.000
 -21175746.71649 -16482546.57447  20145113.579    20145114.014    20145123.220
       240.000         201.000
 01 11 12 18 39 59.9960000  0  7G22G20G27G 1G 3G31G13
 -10711190.88949  -8326266.35547  20818793.501    20818792.479    20818804.958
       234.000         195.000
  -1594625.56649  -1232246.09547  21104968.927    21104968.125    21104979.812
       235.000         188.000
 -15454906.22849 -12016576.41647  21641557.763    21641557.768    21641570.291
       234.000         194.000
 -18413737.52249 -14336920.43147  19418122.167    19418121.951    19418131.272
       239.000         207.000
 -10561397.31149  -7970910.77045  22870171.609    22870172.009    22870191.538
       220.000         161.000
  -2981037.21349  -2304835.45845  23667086.840    23667087.302    23667109.745
       201.000         142.000
 -21253320.15849 -16542993.36347  20130351.793    20130352.250    20130361.438
       240.000         201.000
 01 11 12 18 40 29.9960000  0  7G22G20G27G 1G 3G31G13
 -10651873.14849  -8280044.90547  20830081.354    20830080.383    20830092.915
       233.000         194.000
  -1520692.77149  -1174636.31247  21119038.022    21119037.197    21119048.929
       236.000         188.000
 -15533652.22949 -12077936.85847  21626572.796    21626572.842    21626585.370
       233.000         195.000
 -18434050.49049 -14352748.74547  19414256.767    19414256.531    19414265.864
       239.000         207.000
 -10644598.40249  -8035742.68245  22854338.846    22854339.281    22854358.505
       211.000         151.000
  -3092026.55849  -2391320.20845  23645966.117    23645966.555    23645989.068
       202.000         144.000
 -21330651.08249 -16603251.17547  20115636.174    20115636.632    20115645.816
       241.000         201.000
 01 11 12 18 40 59.9960000  0  7G22G20G27G 1G 3G31G13
 -10592099.92749  -8233468.53747  20841455.905    20841454.967    20841467.534
       233.000         194.000
  -1446428.23149  -1116768.02946  21133170.264    21133169.403    21133181.179
       235.000         187.000
 -15612210.84649 -12139151.29347  21611623.522    21611623.587    21611636.103
       235.000         196.000
 -18454009.04449 -14368300.89947  19410458.780    19410458.567    19410467.908
       239.000         206.000
 -10727512.95049  -8100351.26045  22838560.738    22838561.071    22838580.395
       216.000         160.000
  -3203042.13749  -2477825.57445  23624840.313    23624840.682    23624863.287
       213.000         152.000
 -21407733.49849 -16663315.35047  20100967.861    20100968.312    20100977.479
       241.000         201.000
 01 11 12 18 41 29.9960000  0  7G22G20G27G 1G 3G31G13
 -10531876.95549  -8186541.71847  20852916.091    20852915.139    20852927.743
       233.000         194.000
  -1371837.63849  -1058645.68347  21147364.524    21147363.660    21147375.467
       235.000         188.000
 -15690585.21949 -12200222.15747  21596709.477    21596709.396    21596721.903
       233.000         195.000
 -18473615.31849 -14383578.54347  19406727.843    19406727.626    19406736.977
       239.000         207.000
 -10810141.42749  -8164736.92745  22822836.924    22822837.240    22822856.495
       219.000         158.000
  -3314083.65949  -2564350.97445  23603709.737    23603710.069    23603732.666
       207.000         152.000
 -21484568.54149 -16723186.75747  20086346.607    20086347.065    20086356.214
       241.000         201.000
 01 11 12 18 41 59.9960000  0  7G22G20G27G 1G 3G31G13
 -10471207.66249  -8139267.11547  20864461.189    20864460.229    20864472.899
       232.000         193.000
  -1296924.51049  -1000272.00546  21161620.166    21161619.304    21161631.121
       235.000         187.000
 -15768776.07949 -12261150.02147  21581830.076    21581830.120    21581842.601
       234.000         195.000
 -18492868.64049 -14398581.15347  19403064.099    19403063.869    19403073.228
       239.000         207.000
 -10892481.31049  -8228897.63845  22807168.010    22807168.339    22807187.747
       214.000         157.000
  -3425149.25249  -2650895.28445  23582574.342    23582574.814    23582597.143
       205.000         144.000
 -21561155.57749 -16782864.92247  20071772.575    20071773.003    20071782.154
       240.000         202.000
 01 11 12 18 42 29.9960000  0  7G22G20G27G 1G 3G31G13
 -10410122.92549  -8091668.79647  20876085.344    20876084.389    20876097.102
       233.000         193.000
  -1221719.55249   -941670.93746  21175931.361    21175930.472    21175942.317
       235.000         186.000
 -15846811.68549 -12321956.90347  21566980.449    21566980.394    21566992.857
       234.000         194.000
 -18511795.82849 -14413329.63747  19399462.411    19399462.171    19399471.525
       239.000         207.000
 -10974557.94349  -8292853.35245  22791549.305    22791549.619    22791568.736
       213.000         153.000
  -3536263.84349  -2737477.54145  23561429.645    23561430.115    23561452.487
       210.000         145.000
 -21637520.89549 -16842370.31447  20057240.693    20057241.134    20057250.270
       241.000         202.000
 01 11 12 18 42 59.9960000  0  7G22G20G27G 1G 3G31G13
 -10348592.88149  -8043723.48547  20887794.232    20887793.287    20887806.036
       232.000         193.000
  -1146192.96749   -882819.23846  21190303.735    21190302.861    21190314.726
       235.000         186.000
 -15924659.38949 -12382617.38047  21552166.522    21552166.411    21552178.867
       236.000         195.000
 -18530363.18149 -14427797.73047  19395929.212    19395928.950    19395938.292
       239.000         207.000
 -11056335.63149  -8356575.96445  22775987.400    22775987.697    22776006.932
       222.000         161.000
  -3647391.83049  -2824070.41045  23540282.517    23540282.971    23540305.195
       213.000         152.000
 -21713630.06049 -16901676.11547  20042757.566    20042758.006    20042767.140
       240.000         202.000
 01 11 12 18 43 29.9960000  0  7G22G20G27G 1G 3G31G13
 -10286635.22049  -7995444.97947  20899584.493    20899583.566    20899596.353
       232.000         192.000
  -1070362.42749   -823730.70846  21204733.959    21204733.083    21204744.967
       234.000         185.000
 -16002334.40849 -12443143.30047  21537385.307    21537385.312    21537397.724
       237.000         195.000
 -18548584.53749 -14441996.21747  19392461.844    19392461.575    19392470.906
       239.000         207.000
 -11137826.25449  -8420074.93645  22760479.980    22760480.348    22760499.439
       219.000         160.000
  -3758545.40749  -2910683.18745  23519130.321    23519130.865    23519153.033
       204.000         145.000
 -21789496.09849 -16960792.46747  20028320.728    20028321.157    20028330.277
       241.000         202.000
 01 11 12 18 43 59.9960000  0  7G22G20G27G 1G 3G31G13
 -10224274.88649  -7946852.69647  20911451.414    20911450.467    20911463.308
       232.000         193.000
   -994252.61649   -764424.55346  21219217.361    21219216.468    21219228.343
       234.000         186.000
 -16079858.93349 -12503551.95447  21522632.827    21522632.843    21522645.234
       236.000         195.000
 -18566480.90749 -14455941.47347  19389056.292    19389056.033    19389065.363
       239.000         207.000
 -11219049.14249  -8483365.24445  22745023.732    22745024.100    22745043.138
       208.000         151.000
  -3869743.41749  -2997330.52145  23497969.779    23497970.320    23497992.492
       208.000         145.000
 -21865139.51549 -17019735.35047  20013926.231    20013926.660    20013935.776
       242.000         203.000
 01 11 12 18 44 29.9960000  0  7G22G20G27G 1G 3G31G13
 -10161540.58249  -7897969.00947  20923389.510    20923388.529    20923401.421
       232.000         193.000
   -917892.32749   -704923.21646  21233748.409    21233747.486    21233759.416
       234.000         186.000
 -16157258.95949 -12563863.59747  21507904.036    21507904.047    21507916.434
       235.000         196.000
 -18584076.97549 -14469652.72547  19385707.896    19385707.641    19385716.980
       239.000         207.000
 -11300027.23949  -8546464.84446  22729614.043    22729614.393    22729633.293
       217.000         163.000
  -3981008.83249  -3084030.50645  23476796.464    23476796.996    23476819.076
       208.000         148.000
 -21940584.53749 -17078523.64247  19999569.516    19999569.934    19999579.021
       241.000         202.000
 01 11 12 18 44 59.9960000  0  7G22G20G27G 1G 3G31G13
 -10098407.31649  -7848774.44347  20935403.525    20935402.522    20935415.473
       231.000         192.000
   -841256.40249   -645207.11046  21248331.884    21248330.979    21248342.932
       234.000         185.000
 -16234506.91449 -12624056.74947  21493204.288    21493204.217    21493216.560
       236.000         196.000
 -18601343.89949 -14483107.51047  19382422.147    19382421.882    19382431.226
       239.000         207.000
 -11380729.97249  -8609349.87545  22714256.808    22714257.026    22714275.811
       223.000         158.000
  -4092310.89449  -3170759.03345  23455616.105    23455616.635    23455638.648
       206.000         145.000
 -22015801.56249 -17137134.28047  19985256.188    19985256.580    19985265.656
       242.000         203.000
 01 11 12 18 45 29.9960000  0  7G22G20G27G 1G 3G31G13
 -10034889.30049  -7799280.08147  20947490.725    20947489.736    20947502.736
       233.000         192.000
   -764359.12149   -585287.35646  21262965.096    21262964.198    21262976.191
       234.000         185.000
 -16311614.33449 -12684140.38547  21478531.181    21478531.130    21478543.448
       234.000         195.000
 -18618292.02749 -14496313.88147  19379197.054    19379196.784    19379206.135
       239.000         207.000
 -11461165.84749  -8672026.83646  22698950.070    22698950.380    22698969.356
       221.000         163.000
  -4203658.09049  -3257522.73945  23434427.239    23434427.732    23434449.699
       210.000         151.000
 -22090800.19749 -17195574.74147  19970984.378    19970984.797    19970993.839
       241.000         203.000
 01 11 12 18 45 59.9960000  0  7G22G20G27G 1G 3G31G13
  -9970966.55649  -7749470.32247  20959655.015    20959653.958    20959667.012
       232.000         192.000
   -687180.43049   -525148.31646  21277651.858    21277650.957    21277662.991
       233.000         184.000
 -16388558.47849 -12744096.79947  21463889.188    21463889.108    21463901.381
       235.000         196.000
 -18634897.43849 -14509253.19547  19376037.170    19376036.906    19376046.258
       239.000         207.000
 -11541308.93749  -8734475.87945  22683699.174    22683699.571    22683718.159
       211.000         151.000
  -4315024.38949  -3344301.38445  23413234.705    23413235.188    23413257.068
       205.000         143.000
 -22165556.31849 -17253826.23647  19956758.732    19956759.148    19956768.169
       242.000         203.000
 01 11 12 18 46 29.9960000  0  7G22G20G27G 1G 3G31G13
  -9906631.93449  -7699339.63047  20971897.594    20971896.561    20971909.657
       232.000         191.000
   -609713.26949   -464784.49946  21292393.519    21292392.626    21292404.702
       232.000         185.000
 -16465329.69049 -12803918.46447  21449280.022    21449279.977    21449292.215
       236.000         196.000
 -18651149.12149 -14521916.88047  19372944.618    19372944.348    19372953.708
       239.000         207.000
 -11621146.38649  -8796686.61945  22668506.685    22668506.973    22668525.652
       218.000         161.000
  -4426396.73349  -3431084.78445  23392040.945    23392041.450    23392063.147
       204.000         140.000
 -22240057.76149 -17311879.28247  19942581.546    19942581.966    19942590.970
       241.000         203.000
 01 11 12 18 46 59.9960000  0  7G22G20G27G 1G 3G31G13
  -9841904.49349  -7648902.84247  20984214.911    20984213.919    20984227.054
       231.000         191.000
   -531976.33849   -404210.48246  21307186.483    21307185.619    21307197.745
       231.000         184.000
 -16541944.02549 -12863617.88347  21434700.750    21434700.717    21434712.918
       236.000         195.000
 -18667062.12849 -14534316.66147  19369916.518    19369916.235    19369925.598
       239.000         207.000
 -11700691.32049  -8858669.52046  22653369.503    22653369.849    22653388.318
       223.000         166.000
  -4537788.20449  -3517883.05145  23370843.610    23370844.137    23370865.699
       208.000         146.000
 -22314318.88649 -17369745.06547  19928450.102    19928450.524    19928459.506
       241.000         203.000
 01 11 12 18 47 29.9960000  0  7G22G20G27G 1G 3G31G13
  -9776787.65649  -7598162.62747  20996606.311    20996605.377    20996618.568
       232.000         191.000
   -453973.22249   -343429.05046  21322030.112    21322029.264    21322041.435
       232.000         183.000
 -16618402.39049 -12923195.78147  21420151.264    21420151.138    21420163.300
       236.000         195.000
 -18682636.25649 -14546452.38347  19366952.886    19366952.604    19366961.977
       239.000         207.000
 -11779941.64449  -8920422.79545  22638288.356    22638288.721    22638307.268
       220.000         158.000
  -4649196.68149  -3604694.56645  23349643.029    23349643.601    23349665.145
       207.000         146.000
 -22388338.93349 -17427422.99847  19914364.545    19914364.961    19914373.921
       242.000         203.000
 01 11 12 18 47 59.9960000  0  7G22G20G27G 1G 3G31G13
  -9711270.09749  -7547110.16447  21009074.016    21009073.078    21009086.330
       233.000         191.000
   -375692.49749   -282431.29046  21336926.614    21336925.737    21336937.964
       232.000         183.000
 -16694690.74749 -12982641.19947  21405633.997    21405633.901    21405646.030
       237.000         195.000
 -18697856.23849 -14558312.14747  19364056.639    19364056.365    19364065.747
       239.000         207.000
 -11858880.43449  -8981933.32345  22623266.650    22623267.053    22623285.604
       214.000         157.000
  -4760604.75449  -3691505.86744  23328442.501    23328443.136    23328464.413
       204.000         128.000
 -22462101.75249 -17484900.49947  19900327.913    19900328.340    19900337.285
       241.000         204.000
 01 11 12 18 48 29.9960000  0  8G22G20G27G 1G 3G31G 8G13
  -9645351.24149  -7495744.99847  21021618.073    21021617.151    21021630.453
       232.000         191.000
   -297133.49049   -221216.68846  21351876.063    21351875.165    21351887.445
       232.000         183.000
 -16770805.82349 -13041951.59647  21391149.850    21391149.664    21391161.736
       236.000         196.000
 -18712717.41849 -14569892.32747  19361228.673    19361228.400    19361237.804
       239.000         207.000
 -11937501.37949  -9043196.30045  22608305.508    22608305.862    22608324.233
       215.000         161.000
  -4872005.94249  -3778311.82145  23307243.265    23307243.876    23307264.938
       204.000         141.000
   -260646.77059   -186766.82455  23307931.901    23307932.090    23307950.569
       218.000         159.000
 -22535602.24449 -17542173.59947  19886341.224    19886341.654    19886350.577
       241.000         204.000
 01 11 12 18 48 59.9960000  0  8G22G20G27G 1G 3G31G 8G13
  -9579045.31749  -7444078.22047  21034235.819    21034234.885    21034248.243
       232.000         191.000
   -218310.43649   -159796.34446  21366875.710    21366874.828    21366887.162
       232.000         183.000
 -16846759.05549 -13101135.86547  21376696.379    21376696.184    21376708.237
       234.000         195.000
 -18727230.10549 -14581200.95347  19358467.011    19358466.754    19358476.176
       239.000         208.000
 -12015812.64849  -9104217.90045  22593403.168    22593403.566    22593421.922
       224.000         160.000
  -4983408.45449  -3865118.67045  23286043.797    23286044.362    23286065.586
       208.000         142.000
   -366443.64349   -269205.61855  23287799.437    23287798.945    23287817.554
       216.000         162.000
 -22608849.99949 -17599249.75647  19872402.603    19872403.049    19872411.957
       241.000         204.000
 01 11 12 18 49 29.9960000  0  8G22G20G27G 1G 3G31G 8G13
  -9512350.55749  -7392108.46047  21046927.561    21046926.596    21046940.025
       232.000         190.000
   -139221.55349    -98168.84946  21381925.988    21381925.093    21381937.495
       231.000         182.000
 -16922546.01749 -13160190.59647  21362274.497    21362274.344    21362286.387
       236.000         195.000
 -18741388.72649 -14592233.68447  19355772.731    19355772.481    19355781.920
       239.000         207.000
 -12093807.02549  -9164992.52146  22578561.080    22578561.501    22578580.011
       223.000         168.000
  -5094804.83649  -3951920.83245  23264845.539    23264846.098    23264867.346
       202.000         136.000
   -472119.29259   -351549.95845  23267689.928    23267689.179    23267708.376
       216.000         153.000
 -22681838.54649 -17656123.93147  19858513.319    19858513.786    19858522.657
       241.000         204.000
 01 11 12 18 49 59.9960000  0  8G22G20G27G 1G 3G31G 8G13
  -9445269.82649  -7339837.93847  21059692.776    21059691.772    21059705.250
       232.000         190.000
    -59869.64949    -36336.40746  21397026.294    21397025.413    21397037.846
       230.000         182.000
 -16998166.86749 -13219115.88047  21347884.244    21347884.140    21347896.138
       236.000         195.000
 -18755192.13149 -14602989.62247  19353146.033    19353145.794    19353155.258
       238.000         207.000
 -12171481.82449  -9225518.22045  22563779.852    22563780.322    22563798.638
       216.000         153.000
  -5206191.81949  -4038715.75745  23243648.979    23243649.640    23243670.568
       205.000         136.000
   -577673.39949   -433799.62945  23247603.497    23247602.887    23247621.983
       217.000         162.000
 -22754566.25249 -17712794.85347  19844673.683    19844674.139    19844683.019
       241.000         203.000
 01 11 12 18 50 29.9960000  0  8G22G20G27G 1G 3G31G 8G13
  -9377811.73949  -7287273.37947  21072529.750    21072528.767    21072542.278
       231.000         189.000
     19736.83849     25694.39846  21412175.087    21412174.194    21412186.661
       231.000         183.000
 -17073627.53849 -13277916.34047  21333524.341    21333524.409    21333536.380
       235.000         195.000
 -18768645.04649 -14613472.45047  19350586.033    19350585.809    19350595.299
       239.000         207.000
 -12248839.90749  -9285797.12746  22549059.107    22549059.530    22549077.818
       216.000         163.000
  -5317572.08249  -4125505.30545  23222453.831    23222454.426    23222475.404
       206.000         143.000
   -683111.34249   -515958.70245  23227539.169    23227538.607    23227557.709
       219.000         161.000
 -22827036.98849 -17769265.53447  19830882.943    19830883.397    19830892.269
       241.000         204.000
 01 11 12 18 50 59.9960000  0  8G22G20G27G 1G 3G31G 8G13
  -9309973.97949  -7234412.97347  21085438.966    21085437.988    21085451.542
       232.000         189.000
     99600.17249     87925.34846  21427372.753    21427371.856    21427384.345
       231.000         181.000
 -17148923.15949 -13336588.20547  21319196.089    21319196.088    21319208.019
       237.000         196.000
 -18781741.31649 -14623677.37047  19348093.932    19348093.695    19348103.208
       240.000         207.000
 -12325873.07949  -9345822.89646  22534400.052    22534400.456    22534418.503
       223.000         163.000
  -5428937.33649  -4212283.19045  23201261.577    23201262.211    23201283.025
       207.000         143.000
   -788427.87349   -598023.28245  23207497.925    23207497.434    23207516.580
       218.000         151.000
 -22899243.74749 -17825530.50847  19817142.442    19817142.885    19817151.750
       241.000         204.000
 01 11 12 18 51 29.9960000  0  8G22G20G27G 1G 3G31G 8G13
  -9241746.78149  -7181249.10947  21098422.310    21098421.322    21098434.930
       231.000         188.000
    179730.10249    150364.02846  21442621.119    21442620.227    21442632.763
       231.000         181.000
 -17224041.07349 -13395121.58847  21304901.627    21304901.598    21304913.495
       236.000         196.000
 -18794467.25749 -14633593.72347  19345672.306    19345672.064    19345681.582
       239.000         207.000
 -12402565.92849  -9405583.34346  22519805.627    22519806.060    22519824.397
       223.000         163.000
  -5540271.99649  -4299037.17845  23180075.087    23180075.668    23180096.409
       208.000         137.000
   -893609.75049   -679982.91545  23187482.352    23187481.921    23187500.897
       222.000         155.000
 -22971172.34649 -17881578.73947  19803454.854    19803455.302    19803464.175
       241.000         203.000
 01 11 12 18 51 59.9960000  0  8G22G20G27G 1G 3G31G 8G13
  -9173148.68549  -7127796.24547  21111476.224    21111475.258    21111488.889
       231.000         189.000
    260108.10749    212996.01646  21457916.722    21457915.806    21457928.408
       229.000         180.000
 -17298997.01849 -13453528.75047  21290637.951    21290637.921    21290649.787
       236.000         196.000
 -18806837.55749 -14643232.94447  19343318.354    19343318.107    19343327.635
       239.000         207.000
 -12478931.14449  -9465088.62245  22505273.593    22505274.086    22505292.229
       219.000         162.000
  -5651588.55749  -4385777.14745  23158892.175    23158892.646    23158913.312
       212.000         145.000
   -998672.29649   -761849.62546  23167489.512    23167489.106    23167508.095
       223.000         163.000
 -23042836.39549 -17937420.83047  19789817.620    19789818.066    19789826.942
       240.000         203.000
 01 11 12 18 52 29.9960000  0  8G22G20G27G 1G 3G31G 8G13
  -9104173.05249  -7074049.20047  21124602.046    21124601.029    21124614.692
       232.000         188.000
    340740.87349    275826.50646  21473260.764    21473259.877    21473272.522
       230.000         180.000
 -17373781.74249 -13511802.50647  21276406.804    21276406.832    21276418.653
       236.000         197.000
 -18818841.76549 -14652586.90147  19341034.042    19341033.793    19341043.358
       239.000         207.000
 -12554956.48149  -9524329.01445  22490806.542    22490806.940    22490825.045
       215.000         158.000
  -5762874.52849  -4472493.13945  23137715.099    23137715.506    23137736.192
       210.000         147.000
  -1103605.85549   -843615.73345  23147521.169    23147520.813    23147539.820
       221.000         155.000
 -23114225.06949 -17993048.33947  19776232.791    19776233.235    19776242.108
       242.000         203.000
 01 11 12 18 52 59.9960000  0  8G22G20G27G 1G 3G31G 8G13
  -9034840.96349  -7020024.38947  21137795.682    21137794.630    21137808.324
       232.000         188.000
    421607.65149    338839.34046  21488649.356    21488648.479    21488661.178
       229.000         179.000
 -17448413.55049 -13569957.09447  21262204.878    21262204.843    21262216.628
       237.000         196.000
 -18830496.92549 -14661668.86547  19338816.150    19338815.914    19338825.500
       238.000         207.000
 -12630657.29549  -9583316.54746  22476401.164    22476401.479    22476419.513
       218.000         166.000
  -5874144.54149  -4559196.71545  23116540.912    23116541.311    23116561.864
       213.000         142.000
  -1208428.10849   -925295.21545  23127573.965    23127573.668    23127592.583
       221.000         153.000
 -23185354.28949 -18048473.67247  19762697.343    19762697.774    19762706.654
       242.000         203.000
 01 11 12 18 53 29.9960000  0  8G22G20G27G 1G 3G31G 8G13
  -8965126.42049  -6965701.56947  21151062.061    21151061.013    21151074.740
       231.000         188.000
    502734.36749    402054.72646  21504087.449    21504086.541    21504099.289
       230.000         179.000
 -17522863.83749 -13627970.24247  21248037.378    21248037.380    21248049.135
       237.000         196.000
 -18841773.19449 -14670455.59147  19336670.373    19336670.127    19336679.722
       239.000         207.000
 -12706002.07149  -9642026.63046  22462063.338    22462063.685    22462081.691
       225.000         167.000
  -5985366.69649  -4645863.02145  23095376.095    23095376.354    23095396.681
       214.000         146.000
  -1313110.14549  -1006865.43445  23107653.455    23107653.244    23107672.068
       221.000         160.000
 -23256193.61649 -18103673.11047  19749217.035    19749217.466    19749226.349
       242.000         203.000
 01 11 12 18 53 59.9960000  0  8G22G20G27G 1G 3G31G 8G13
  -8895053.99649  -6911099.87847  21164396.517    21164395.488    21164409.280
       231.000         188.000
    584096.26249    465453.35946  21519570.261    21519569.344    21519582.167
       229.000         178.000
 -17597154.34549 -13685858.88847  21233900.245    21233900.313    21233912.053
       240.000         197.000
 -18852691.31749 -14678963.24247  19334592.737    19334592.495    19334602.113
       239.000         207.000
 -12781009.65949  -9700473.89646  22447789.599    22447790.035    22447808.232
       222.000         163.000
  -6096559.77949  -4732506.60745  23074216.452    23074216.801    23074237.084
       211.000         148.000
  -1417673.10349  -1088342.78645  23087755.549    23087755.441    23087774.280
       220.000         156.000
 -23326762.91149 -18158662.13047  19735788.126    19735788.561    19735797.430
       242.000         203.000
 01 11 12 18 54 29.9960000  0  8G22G20G27G 1G 3G31G 8G13
  -8824611.85449  -6856210.11347  21177801.408    21177800.340    21177814.160
       231.000         188.000
    665705.32849    529044.59746  21535100.089    21535099.188    21535112.082
       229.000         179.000
 -17671270.79249 -13743611.90247  21219796.382    21219796.382    21219808.101
       236.000         197.000
 -18863235.76449 -14687179.71647  19332586.214    19332585.969    19332595.609
       239.000         207.000
 -12855662.69449  -9758644.96345  22433583.498    22433583.934    22433602.107
       215.000         160.000
  -6207706.05149  -4819113.70845  23053065.772    23053066.159    23053086.378
       212.000         148.000
  -1522102.06549  -1169715.79945  23067883.218    23067883.150    23067901.921
       223.000         152.000
 -23397045.87149 -18213428.03647  19722413.680    19722414.131    19722422.985
       241.000         203.000
 01 11 12 18 54 59.9960000  0  8G22G20G27G 1G 3G31G 8G13
  -8753821.14849  -6801048.73447  21191272.584    21191271.524    21191285.385
       231.000         188.000
    747540.48149    592811.99546  21550672.984    21550672.069    21550685.038
       228.000         179.000
 -17745231.26649 -13801243.37247  21205722.101    21205722.121    21205733.840
       238.000         197.000
 -18873423.62149 -14695118.32447  19330647.515    19330647.298    19330656.957
       239.000         207.000
 -12929976.32649  -9816551.63245  22419442.342    22419442.563    22419460.462
       216.000         162.000
  -6318820.34349  -4905695.96945  23031921.274    23031921.649    23031941.662
       214.000         151.000
  -1626414.67049  -1250998.20245  23048033.025    23048032.962    23048051.618
       220.000         153.000
 -23467058.64749 -18267983.40847  19709090.643    19709091.110    19709099.968
       242.000         203.000
 01 11 12 18 55 29.9960000  0  8G22G20G27G 1G 3G31G 8G13
  -8682673.32249  -6745609.07947  21204811.729    21204810.680    21204824.571
       231.000         188.000
    829610.37849    656762.30446  21566290.524    21566289.619    21566302.654
       229.000         178.000
 -17819024.68949 -13858744.68047  21191679.666    21191679.654    21191691.359
       239.000         198.000
 -18883242.62549 -14702769.52047  19328779.011    19328778.824    19328788.487
       239.000         207.000
 -13003936.61749  -9874182.83446  22405367.957    22405368.227    22405386.291
       222.000         166.000
  -6429888.32249  -4992242.04645  23010785.361    23010785.797    23010805.907
       212.000         150.000
  -1730599.57549  -1332181.01845  23028207.095    23028207.095    23028225.675
       220.000         152.000
 -23536787.98749 -18322317.92447  19695821.546    19695822.038    19695830.888
       241.000         203.000
 01 11 12 18 55 59.9960000  0  8G22G20G27G 1G 3G31G 8G13
  -8611190.06549  -6689908.05247  21218414.710    21218413.648    21218427.595
       231.000         188.000
    911893.18949    720878.52446  21581948.621    21581947.684    21581960.788
       228.000         177.000
 -17892670.09749 -13916130.63947  21177665.275    21177665.358    21177677.065
       236.000         198.000
 -18892710.61749 -14710147.19147  19326977.352    19326977.141    19326986.817
       239.000         207.000
 -13077559.68949  -9931551.32246  22391357.739    22391358.054    22391376.034
       223.000         171.000
  -6540925.52349  -5078764.25345  22989655.401    22989655.899    22989675.926
       212.000         149.000
  -1834675.25449  -1413278.71845  23008401.947    23008401.977    23008420.450
       221.000         150.000
 -23606251.47649 -18376445.28547  19682603.053    19682603.543    19682612.392
       241.000         204.000
 01 11 12 18 56 29.9960000  0  8G22G20G27G 1G 3G31G 8G13
  -8539363.66449  -6633939.64047  21232083.016    21232081.940    21232095.909
       230.000         188.000
    994396.66249    785166.68846  21597648.692    21597647.765    21597660.940
       227.000         177.000
 -17966156.84649 -13973392.98747  21163681.048    21163681.253    21163692.942
       237.000         198.000
 -18901816.03349 -14717242.34047  19325244.655    19325244.460    19325254.135
       239.000         207.000
 -13150832.10749  -9988646.56545  22377414.304    22377414.654    22377432.606
       221.000         162.000
  -6651918.06749  -5165251.64045  22968533.967    22968534.535    22968554.377
       211.000         154.000
  -1938630.75349  -1494282.75045  22988619.693    22988619.740    22988638.215
       216.000         155.000
 -23675436.44349 -18430355.61847  19669437.552    19669438.060    19669446.889
       242.000         204.000
 01 11 12 18 56 59.9960000  0  8G22G20G27G 1G 3G31G 8G13
  -8467190.99049  -6577701.41246  21245817.197    21245816.110    21245830.124
       228.000         187.000
   1077124.35149    849629.57346  21613391.428    21613390.490    21613403.736
       228.000         177.000
 -18039479.14649 -14030527.19247  21149728.346    21149728.452    21149740.113
       239.000         199.000
 -18910551.85649 -14724049.49547  19323582.298    19323582.109    19323591.790
       239.000         207.000
 -13223745.14349 -10045461.71246  22363539.344    22363539.669    22363557.715
       218.000         165.000
  -6762856.84049  -5251697.09845  22947422.793    22947423.358    22947443.313
       212.000         154.000
  -2042459.61649  -1575188.06446  22968861.469    22968861.574    22968880.074
       221.000         163.000
 -23744334.78349 -18484042.59547  19656326.642    19656327.121    19656335.954
       242.000         204.000
 01 11 12 18 57 29.9960000  0  8G22G20G27G 1G 3G31G 8G13
  -8394674.51749  -6521195.29046  21259616.786    21259615.708    21259629.773
       230.000         187.000
   1160073.38549    914264.91646  21629176.279    21629175.345    21629188.665
       227.000         176.000
 -18112636.76049 -14087533.08747  21135806.828    21135806.982    21135818.617
       237.000         198.000
 -18918916.75449 -14730567.62047  19321990.523    19321990.344    19322000.015
       239.000         208.000
 -13296295.66449 -10101994.47446  22349733.390    22349733.695    22349751.541
       216.000         166.000
  -6873738.33049  -5338098.02245  22926322.518    22926323.066    22926342.888
       211.000         148.000
  -2146161.24449  -1655994.28645  22949127.589    22949127.688    22949146.118
       218.000         159.000
 -23812944.28149 -18537504.49747  19643270.679    19643271.149    19643279.968
       242.000         204.000
 01 11 12 18 57 59.9960000  0  8G22G20G27G 1G 3G31G 8G13
  -8321799.90449  -6464410.10946  21273484.522    21273483.442    21273497.556
       230.000         184.000
   1243258.18849    979083.98546  21645006.005    21645005.040    21645018.449
       226.000         176.000
 -18185612.78249 -14144397.47447  21121919.942    21121920.048    21121931.680
       239.000         198.000
 -18926892.50449 -14736782.51447  19320472.812    19320472.631    19320482.300
       239.000         208.000
 -13368463.95049 -10158229.34146  22336000.024    22336000.365    22336018.278
       219.000         163.000
  -6984542.21849  -5424438.47345  22905237.068    22905237.593    22905257.341
       214.000         159.000
  -2249718.10749  -1736687.67645  22929421.194    22929421.340    22929439.681
       218.000         158.000
 -23881246.24249 -18590726.76747  19630273.215    19630273.697    19630282.502
       242.000         204.000
 01 11 12 18 58 29.9950000  0  8G22G20G27G 1G 3G31G 8G13
  -8248592.52849  -6407365.63546  21287415.584    21287414.494    21287428.663
       228.000         185.000
   1326653.31149   1044066.94246  21660875.740    21660874.776    21660888.240
       226.000         176.000
 -18258424.92249 -14201134.14547  21108064.238    21108064.320    21108075.924
       238.000         198.000
 -18934498.16049 -14742709.02447  19319025.529    19319025.344    19319035.016
       239.000         207.000
 -13440264.91649 -10214177.97146  22322336.616    22322336.951    22322354.968
       220.000         166.000
  -7095281.69149  -5510728.67045  22884163.782    22884164.365    22884184.238
       209.000         153.000
  -2353146.74749  -1817281.16545  22909739.239    22909739.367    22909757.666
       216.000         160.000
 -23949256.51649 -18643721.74947  19617331.268    19617331.754    19617340.536
       241.000         204.000
 01 11 12 18 58 59.9950000  0  8G22G20G27G 1G 3G31G 8G13
  -8175057.68049  -6350065.98246  21301408.950    21301407.869    21301422.097
       227.000         185.000
   1410253.82649   1109209.92246  21676784.569    21676783.623    21676797.153
       226.000         176.000
 -18331085.53149 -14257752.75047  21094237.255    21094237.422    21094249.000
       238.000         198.000
 -18941740.60949 -14748352.51247  19317647.349    19317647.160    19317656.840
       239.000         208.000
 -13511707.81149 -10269847.62746  22308741.328    22308741.641    22308759.582
       221.000         167.000
  -7205968.22149  -5596977.73245  22863100.564    22863101.119    22863120.882
       211.000         146.000
  -2456460.88049  -1897785.38145  22890078.984    22890079.146    22890097.441
       216.000         162.000
 -24016985.23949 -18696497.34447  19604442.896    19604443.375    19604452.143
       241.000         204.000
 01 11 12 18 59 29.9950000  0  8G22G20G27G 1G 3G31G 8G13
  -8101197.40949  -6292512.77146  21315464.269    21315463.169    21315477.465
       229.000         184.000
   1494057.62249   1174511.32046  21692732.084    21692731.136    21692744.738
       226.000         177.000
 -18403588.88849 -14314248.82847  21080440.364    21080440.445    21080452.014
       238.000         198.000
 -18948615.23349 -14753709.38647  19316339.167    19316338.987    19316348.666
       240.000         208.000
 -13582784.17749 -10325231.65746  22295215.836    22295216.180    22295234.093
       221.000         165.000
  -7316591.44549  -5683177.44345  22842049.605    22842050.064    22842069.722
       210.000         157.000
  -2559653.39849  -1978194.87746  22870441.918    22870442.060    22870460.305
       221.000         166.000
 -24084424.89249 -18749047.69447  19591609.552    19591610.014    19591618.765
       241.000         204.000
 01 11 12 18 59 59.9950000  0  8G22G20G27G 1G 3G31G 8G13
  -8027001.94249  -6234698.36746  21329583.327    21329582.245    21329596.606
       227.000         183.000
   1578074.59749   1239978.83346  21708720.204    21708719.227    21708732.916
       226.000         176.000
 -18475922.56749 -14370612.69447  21066675.692    21066675.751    21066687.316
       237.000         199.000
 -18955108.46849 -14758769.07647  19315103.576    19315103.381    19315113.069
       239.000         207.000
 -13653478.71549 -10380318.15046  22281763.080    22281763.377    22281781.331
       218.000         167.000
  -7427135.24449  -5769315.17245  22821013.489    22821013.999    22821033.842
       212.000         154.000
  -2662711.48749  -2058499.53546  22850830.368    22850830.569    22850848.858
       217.000         164.000
 -24151560.96649 -18801361.48747  19578833.940    19578834.421    19578843.171
       241.000         204.000
 01 11 12 19  0 29.9950000  0  8G22G20G27G 1G 3G31G 8G13
  -7952480.79749  -6176630.20246  21343764.404    21343763.283    21343777.741
       227.000         182.000
   1662295.01449   1305604.86746  21724747.039    21724746.036    21724759.777
       226.000         176.000
 -18548093.47849 -14426849.72447  21052941.982    21052942.048    21052953.604
       239.000         198.000
 -18961226.29049 -14763536.24047  19313939.414    19313939.219    19313948.919
       239.000         208.000
 -13723795.83649 -10435110.63646  22268382.017    22268382.354    22268400.144
       219.000         167.000
  -7537603.05749  -5855393.86845  22799992.073    22799992.527    22800012.058
       211.000         147.000
  -2765641.54249  -2138704.56845  22831243.345    22831243.544    22831261.694
       216.000         160.000
 -24218398.40549 -18853442.57847  19566115.185    19566115.652    19566124.386
       241.000         203.000
 01 11 12 19  0 59.9950000  0  8G22G20G27G 1G 3G31G 8G13
  -7877635.53249  -6118309.47546  21358007.134    21358006.029    21358020.558
       225.000         182.000
   1746717.52649   1371388.36846  21740812.338    21740811.326    21740825.097
       226.000         177.000
 -18620100.38349 -14482958.95847  21039239.593    21039239.540    21039251.106
       239.000         198.000
 -18966966.49249 -14768009.15247  19312847.106    19312846.905    19312856.629
       239.000         208.000
 -13793731.61349 -10489605.88746  22255073.514    22255073.900    22255091.763
       221.000         167.000
  -7647990.75149  -5941409.98845  22778985.662    22778986.163    22779005.792
       213.000         156.000
  -2868442.01949  -2218808.54745  22811680.812    22811681.041    22811699.196
       215.000         161.000
 -24284934.02149 -18905288.47747  19553453.847    19553454.322    19553463.049
       241.000         204.000
 01 11 12 19  1 29.9950000  0  8G22G20G27G 1G 3G31G 8G13
  -7802463.01349  -6059733.76646  21372312.165    21372311.061    21372325.640
       228.000         182.000
   1831345.07049   1437331.63946  21756916.689    21756915.636    21756929.427
       226.000         176.000
 -18691937.43449 -14538935.84247  21025569.290    21025569.352    21025580.924
       238.000         198.000
 -18972322.11249 -14772182.38647  19311828.013    19311827.801    19311837.517
       239.000         208.000
 -13863277.24849 -10543797.16046  22241839.338    22241839.676    22241857.500
       224.000         172.000
  -7758289.12849  -6027356.53545  22757996.538    22757996.943    22758016.662
       214.000         153.000
  -2971106.48649  -2298806.58746  22792144.262    22792144.510    22792162.591
       219.000         168.000
 -24351160.28349 -18956893.32447  19540851.378    19540851.864    19540860.578
       241.000         204.000
 01 11 12 19  1 59.9950000  0  8G22G20G27G 1G 3G31G 8G13
  -7726978.99149  -6000915.31746  21386676.479    21386675.362    21386690.012
       227.000         182.000
   1916162.19249   1503422.63146  21773057.084    21773056.021    21773069.856
       226.000         174.000
 -18763617.61849 -14594790.49747  21011929.149    21011929.037    21011940.586
       239.000         199.000
 -18977305.05549 -14776065.22047  19310879.824    19310879.613    19310889.323
       239.000         208.000
 -13932442.80949 -10597692.29346  22228677.484    22228677.786    22228695.567
       224.000         168.000
  -7868507.60549  -6113240.89045  22737022.289    22737022.743    22737042.216
       212.000         148.000
  -3073647.68549  -2378708.60446  22772631.181    22772631.394    22772649.375
       221.000         164.000
 -24417087.77449 -19008265.36547  19528305.765    19528306.249    19528314.955
       241.000         204.000
 01 11 12 19  2 29.9950000  0  8G22G20G27G 1G 3G31G 8G13
  -7651181.61949  -5941852.71446  21401100.403    21401099.308    21401114.006
       227.000         182.000
   2001170.61049   1569662.68046  21789233.928    21789232.802    21789246.687
       226.000         174.000
 -18835136.45149 -14650519.41947  20998319.652    20998319.425    20998330.967
       239.000         199.000
 -18981909.80549 -14779653.35547  19310003.609    19310003.384    19310013.093
       240.000         208.000
 -14001221.10049 -10651285.63846  22215589.357    22215589.598    22215607.408
       222.000         167.000
  -7978638.23749  -6199056.73345  22716065.188    22716065.510    22716084.930
       214.000         159.000
  -3176060.69949  -2458510.73046  22753142.430    22753142.663    22753160.600
       218.000         167.000
 -24482709.90449 -19059399.46047  19515818.289    19515818.763    19515827.449
       240.000         204.000
 01 11 12 19  2 59.9950000  0  8G22G20G27G 1G 3G31G 8G13
  -7575084.35749  -5882556.42046  21415581.415    21415580.324    21415595.078
       226.000         182.000
   2086356.76549   1636041.22946  21805444.475    21805443.420    21805457.313
       225.000         174.000
 -18906504.66049 -14706130.97047  20984738.459    20984738.468    20984749.994
       236.000         199.000
 -18986146.16649 -14782954.43947  19309197.489    19309197.254    19309206.975
       240.000         208.000
 -14069619.84849 -10704583.26846  22202573.411    22202573.667    22202591.349
       221.000         169.000
  -8088688.39649  -6284809.82845  22695123.021    22695123.432    22695142.915
       211.000         147.000
  -3278355.78849  -2538220.95146  22733676.115    22733676.378    22733694.287
       216.000         164.000
 -24548035.86049 -19110302.76847  19503387.155    19503387.615    19503396.303
       240.000         204.000
 01 11 12 19  3 29.9950000  0  8G22G20G27G 1G 3G31G 8G13
  -7498671.50249  -5823014.22946  21430122.486    21430121.383    21430136.209
       228.000         181.000
   2171736.47749   1702570.59446  21821691.877    21821690.853    21821704.779
       225.000         172.000
 -18977703.81449 -14761610.79047  20971189.688    20971189.674    20971201.202
       238.000         199.000
 -18989994.51049 -14785953.17547  19308465.202    19308464.972    19308474.682
       240.000         208.000
 -14137618.15149 -10757568.86946  22189633.734    22189633.938    22189651.564
       221.000         166.000
  -8198635.91949  -6370483.06845  22674200.631    22674200.943    22674220.107
       216.000         155.000
  -3380513.95949  -2617824.57346  22714235.927    22714236.176    22714253.940
       220.000         167.000
 -24613044.96449 -19160959.18047  19491016.301    19491016.774    19491025.437
       241.000         204.000
 01 11 12 19  3 59.9950000  0  8G22G20G27G 1G 3G31G 8G13
  -7421954.30049  -5763234.88046  21444721.498    21444720.363    21444735.270
       227.000         182.000
   2257298.51549   1769242.04946  21837974.043    21837973.018    21837986.925
       224.000         170.000
 -19048742.36149 -14816965.47547  20957671.482    20957671.456    20957682.977
       239.000         199.000
 -18993462.47549 -14788655.51447  19307805.314    19307805.065    19307814.782
       240.000         208.000
 -14205221.77849 -10810246.88546  22176769.072    22176769.257    22176786.901
       219.000         168.000
  -8308486.05049  -6456080.26145  22653296.500    22653296.903    22653316.230
       211.000         153.000
  -3482543.57649  -2697327.97446  22694820.139    22694820.363    22694838.195
       221.000         169.000
 -24677743.94149 -19211373.92947  19478704.480    19478704.940    19478713.601
       240.000         204.000
 01 11 12 19  4 29.9950000  0  8G22G20G27G 1G 3G31G 8G13
  -7344935.88549  -5703220.82746  21459377.856    21459376.699    21459391.646
       228.000         182.000
   2343039.75849   1836053.11546  21854290.245    21854289.236    21854303.190
       225.000         170.000
 -19119620.86649 -14872195.44147  20944183.715    20944183.697    20944195.199
       238.000         199.000
 -18996549.66149 -14791061.14547  19307217.863    19307217.620    19307227.333
       240.000         208.000
 -14272428.31849 -10862615.53946  22163980.055    22163980.223    22163997.733
       220.000         169.000
  -8418235.89249  -6541599.38745  22632411.707    22632412.048    22632431.204
       219.000         152.000
  -3584444.66849  -2776731.29446  22675428.896    22675429.093    22675446.852
       222.000         167.000
 -24742131.16049 -19261545.75947  19466452.005    19466452.436    19466461.078
       239.000         204.000
 01 11 12 19  4 59.9950000  0  8G22G20G27G 1G 3G31G 8G13
  -7267623.33649  -5642977.56446  21474090.203    21474089.003    21474103.993
       227.000         181.000
   2428953.24049   1902998.40646  21870639.257    21870638.211    21870652.247
       224.000         170.000
 -19190343.75849 -14927304.16047  20930725.532    20930725.556    20930737.039
       236.000         199.000
 -18999259.45449 -14793172.71147  19306702.226    19306701.996    19306711.700
       240.000         208.000
 -14339239.56149 -10914676.11946  22151266.201    22151266.396    22151283.907
       221.000         167.000
  -8527886.62649  -6627041.30545  22611545.714    22611546.049    22611565.010
       213.000         155.000
  -3686221.12949  -2856037.53946  22656061.375    22656061.561    22656079.155
       219.000         166.000
 -24806209.11949 -19311476.60847  19454258.361    19454258.788    19454267.416
       239.000         204.000
